     2              OBSERVATION DATA    GPS                 RINEX VERSION / TYPE
TRRINEXO-V2.3.4-LH UCLA/SCEC 29-JUL-1994                    PGM / RUN BY / DATE
                                                            COMMENT
BIT 2 OF LLI (+4) FLAGS DATA COLLECTED UNDER "AS" CONDITION COMMENT
BIT 2 OF LLI (+4) FLAGS DATA COLLECTED UNDER "AS" CONDITION COMMENT
BIT 2 OF LLI (+4) FLAGS DATA COLLECTED UNDER "AS" CONDITION COMMENT
Original Marker Name: CAR 1942                              COMMENT
Campaign Name: NGS reobservation 93-94                      COMMENT
4-Character Station Name: CARR                              COMMENT
6-Character Antenna Code: TRMSST                            COMMENT
Vertical Measurement Point: BPA                             COMMENT
Vertical Offset to Rinex Ref. Point: 0.0000                 COMMENT
Radial Measurement Point: RRP                               COMMENT
Radial Offset to Rinex Ref. Point: 0.0000                   COMMENT
Antenna Height from Field Measurement: 2.0000 m             COMMENT
Original XYZ: -2620371.7962 -4460934.5674 3718429.2424      COMMENT
New XYZ position is based on association with SCEC monument COMMENT
E1F1N2L6+0011. Position of that monument is believed to be  COMMENT
valid to within 1 m horizontally; vertical accuracy         COMMENT
should be no worse than 3-times this value.                 COMMENT
                                                            COMMENT
Revised Rinex header created by UCSD GPS archive for        COMMENT
GSAC on 17-Apr-1999 (1999:107) 02:27:52 GMT                 COMMENT
For assistance contact dagnew@ucsd.edu or hjohnson@ucsd.edu COMMENT
                                                            COMMENT
CAR 1942                                                    MARKER NAME
E. DUVALL NATIONAL GEODETIC SURVEY                          OBSERVER / AGENCY
1552 TRIMBLE 4000 SSE 5.66                                  REC # / TYPE / VERS
19 TR 4000SST L1/L2 GEO                                     ANT # / TYPE
 -2620435.0000 -4460967.0000  3718423.0000                  APPROX POSITION XYZ
        2.0000        0.0000        0.0000                  ANTENNA: DELTA H/E/N
     1     2     0                                          WAVELENGTH FACT L1/2
     3    C1    L1    L2                                    # / TYPES OF OBSERV
    30                                                      INTERVAL
  1994     3     1    19    56   30.001000                  TIME OF FIRST OBS
  1994     3     2     4     0    0.000000                  TIME OF LAST OBS
     0                                                      # OF SATELLITES
                                                            END OF HEADER
 94  3  1 19 56 30.0010000  0  5 18 19 27 29 31
  20448249.349     -188681.03617   -125575.54319
  21252580.653     -386935.34617   -258260.99519
  22866104.692     -702320.57116   -468614.83519
  21496913.661      258673.74717    172266.50819
  23565558.974     -753502.65216   -483443.89619
 94  3  1 19 57  0.0010000  0  5 18 19 27 29 31
  20444215.474     -209878.837 7   -142093.281 9
  21243798.614     -433085.928 7   -294222.430 9
  22849996.013     -786971.901 6   -534576.834 9
  21503146.872      291428.636 7    197789.795 9
  23548378.067     -843785.956 6   -553794.382 9
 94  3  1 19 57 30.0000000  0  5 18 19 27 29 31
  20440259.000     -230670.561 7   -158294.600 9
  21235050.672     -479053.337 7   -330041.143 9
  22833903.594     -871537.228 6   -600471.832 9
  21509441.844      324510.039 7    223567.501 9
  23531243.156     -933824.457 5   -623954.121 9
 94  3  1 19 58  0.0000000  0  5 18 19 27 29 31
  20436375.383     -251079.453 7   -174197.618 9
  21226336.750     -524842.607 7   -365721.053 9
  22817823.016     -956039.537 6   -666317.723 9
  21515794.563      357894.805 7    249581.599 9
  23514151.797    -1023648.350 6   -693946.636 9
 94  3  1 19 58 30.0000000  0  5 18 19 27 29 31
  20432558.945     -271133.902 7   -189824.443 9
  21217655.211     -570465.222 7   -401271.102 9
  22801751.945    -1040493.596 6   -732126.020 9
  21522200.844      391555.756 7    275810.906 9
  23497093.758    -1113284.375 5   -763792.750 9
 94  3  1 19 59  0.0000000  0  5 18 19 27 29 31
  20428812.648     -290822.138 7   -205165.910 9
  21209006.563     -615915.109 7   -436686.556 9
  22785692.219    -1124886.208 6   -797886.439 9
  21528655.555      425475.372 7    302241.758 9
  23480073.953    -1202725.245 5   -833486.794 9
 94  3  1 19 59 30.0000000  0  5 18 19 27 29 31
  20425139.086     -310126.932 7   -220208.593 9
  21200395.047     -661171.586 7   -471951.305 9
  22769655.242    -1209162.621 6   -863556.288 9
  21535164.094      459682.447 7    328896.609 9
  23463095.937    -1291942.804 5   -903006.821 9
 94  3  1 20  0  0.0000000  0  5 18 19 27 29 31
  20421542.984     -329025.474 7   -234934.712 9
  21191821.273     -706228.208 7   -507060.316 9
  22753647.781    -1293279.327 6   -929101.698 9
  21541737.359      494222.670 7    355811.060 9
  23446166.758    -1380906.771 6   -972329.221 9
 94  3  1 20  0 30.0000000  0  5 18 19 27 29 31
  20418028.930     -347492.108 7   -249324.286 9
  21183288.703     -751063.751 7   -541997.064 9
  22737677.164    -1377211.044 6   -994502.955 9
  21548381.313      529136.352 7    383016.507 9
  23429292.750    -1469577.701 5  -1041423.282 9
 94  3  1 20  1  0.0000000  0  5 18 19 27 29 31
  20414588.320     -365572.882 8   -263413.195 9
  21174791.852     -795715.759 7   -576790.800 9
  22721730.555    -1461009.937 6  -1059800.722 9
  21555090.250      564394.245 7    410490.167 9
  23412470.594    -1557980.975 6  -1110308.782 9
 94  3  1 20  1 30.0000000  0  5 18 19 27 29 31
  20411220.211     -383271.144 7   -277204.037 9
  21166326.820     -840201.008 7   -611454.595 9
  22705804.109    -1544703.782 6  -1125016.638 9
  21561868.953      600013.846 7    438245.693 9
  23395701.531    -1646104.058 6  -1178975.916 9
 94  3  1 20  2  0.0000000  0  5 18 19 27 29 31
  20407930.414     -400559.526 7   -290675.490 9
  21157897.648     -884496.174 7   -645970.275 9
  22689896.375    -1628297.222 6  -1190154.304 9
  21568720.734      636020.248 7    466302.600 9
  23378990.539    -1733918.094 6  -1247402.278 9
 94  3  1 20  2 30.0000000  0  5 18 19 27 29 31
  20404719.930     -417431.570 7   -303822.524 9
  21149509.148     -928577.278 7   -680319.152 9
  22674005.930    -1711802.329 6  -1255223.156 9
  21575645.070      672405.953 7    494655.062 9
  23362337.594    -1821422.996 5  -1315587.744 9
 94  3  1 20  3  0.0000000  0  5 18 19 27 29 31
  20401589.898     -433881.743 8   -316640.830 9
  21141161.188     -972447.349 7   -714503.581 9
  22658132.141    -1795220.721 6  -1320224.417 9
  21582638.867      709160.566 7    523295.001 9
  23345743.891    -1908628.579 5  -1383539.996 9
 94  3  1 20  3 30.0000000  0  5 18 19 27 29 31
  20398540.195     -449908.287 8   -329129.041 9
  21132850.758    -1016117.635 7   -748532.343 9
  22642275.461    -1878545.439 6  -1385152.685 9
  21589700.328      746268.255 7    552210.043 9
  23329201.641    -1995553.278 5  -1451273.381 9
 94  3  1 20  4  0.0000000  0  5 18 19 27 29 31
  20395569.969     -465514.558 8   -341289.754 9
  21124582.008    -1059570.169 7   -782391.432 9
  22626441.563    -1961753.806 6  -1449990.312 9
  21596827.445      783721.368 7    581394.269 9
  23312710.398    -2082215.819 5  -1518802.509 9
 94  3  1 20  4 30.0000000  0  5 18 19 27 29 31
  20392682.242     -480688.683 8   -353113.727 9
  21116354.672    -1102805.610 7   -816081.355 9
  22610631.508    -2044831.944 6  -1514726.460 9
  21604017.969      821508.767 7    610838.975 9
  23296270.555    -2168613.680 6  -1586125.379 9
 94  3  1 20  5  0.0000000  0  5 18 19 27 29 31
  20389882.742     -495402.611 8   -364579.110 9
  21108168.445    -1145825.345 7   -849603.189 9
  22594852.023    -2127756.101 6  -1579342.618 9
  21611273.031      859633.149 7    640546.262 9
  23279882.453    -2254730.527 6  -1653229.317 9
 94  3  1 20  5 30.0000000  0  5 18 19 27 29 31
  20387171.695     -509648.743 8   -375679.987 9
  21100025.102    -1188620.006 7   -882949.648 9
  22579104.039    -2210513.974 6  -1643829.204 9
  21618593.734      898105.636 7    670524.801 9
  23263552.883    -2340544.805 6  -1720097.475 9
 94  3  1 20  6  0.0000000  0  5 18 19 27 29 31
  20384551.617     -523416.833 8   -386408.346 9
  21091926.852    -1231174.126 7   -916108.677 9
  22563388.453    -2293098.779 6  -1708180.934 9
  21625984.742      936944.232 7    700788.612 9
  23247285.758    -2426026.673 6  -1786706.632 9
 94  3  1 20  6 30.0000000  0  5 18 19 27 29 31
  20382023.930     -536700.502 8   -396759.237 9
  21083874.063    -1273489.916 7   -949081.997 9
  22547707.922    -2375499.833 6  -1772389.466 9
  21633447.773      976160.731 7    731346.903 9
  23231087.219    -2511146.731 6  -1853033.844 9
 94  3  1 20  7  0.0000000  0  5 18 19 27 29 31
  20379584.188     -549521.709 8   -406749.775 9
  21075866.422    -1315568.823 7   -981870.733 9
  22532062.227    -2457716.470 6  -1836454.307 9
  21640986.430     1015777.762 7    762217.293 9
  23214960.500    -2595900.830 6  -1919075.894 9
 94  3  1 20  7 30.0000000  0  5 18 19 27 29 31
  20377234.281     -561870.519 8   -416372.212 9
  21067908.570    -1357389.379 7  -1014458.155 9
  22516456.516    -2539728.061 6  -1900359.384 9
  21648609.187     1055838.397 7    793433.337 9
  23198906.555    -2680256.910 6  -1984807.801 9
 94  3  1 20  8  0.0000000  0  5 18 19 27 29 31
  20374976.922     -573732.796 8   -425615.536 9
  21060001.781    -1398940.953 7  -1046835.986 9
  22500889.266    -2621534.146 6  -1964104.304 9
  21656318.430     1096348.834 7    824999.892 9
  23182931.633    -2764207.387 6  -2050223.664 9
 94  3  1 20  8 30.0000000  0  5 18 19 27 29 31
  20372814.352     -585095.251 8   -434469.381 9
  21052146.711    -1440222.349 7  -1079003.289 9
  22485362.086    -2703131.409 6  -2027686.504 9
  21664113.977     1137314.419 7    856921.106 9
  23167033.141    -2847757.113 6  -2115327.228 9
 94  3  1 20  9  0.0000000  0  5 18 19 27 29 31
  20370750.648     -595942.319 8   -442921.627 9
  21044343.492    -1481228.764 7  -1110956.309 9
  22469873.219    -2784524.872 6  -2091109.899 9
  21671997.281     1178740.068 7    889200.796 9
  23151209.672    -2930910.204 6  -2180121.708 9
 94  3  1 20  9 30.0000000  0  5 18 19 27 29 31
  20368783.922     -606278.295 8   -450975.616 9
  21036587.883    -1521982.455 7  -1142712.403 9
  22454417.156    -2865744.488 6  -2154397.833 9
  21679959.961     1220584.413 7    921806.752 9
  23135458.188    -3013683.509 6  -2244620.264 9
 94  3  1 20 10  0.0000000  0  5 18 19 27 29 31
  20366917.672     -616086.290 8   -458618.202 9
  21028886.125    -1562454.957 7  -1174249.391 9
  22438996.727    -2946778.850 6  -2217541.416 9
  21688003.148     1262850.920 7    954741.672 9
  23119782.156    -3096060.295 6  -2308809.807 9
 94  3  1 20 10 30.0000000  0  5 18 19 27 29 31
  20365152.859     -625356.183 8   -465841.477 9
  21021240.727    -1602631.979 7  -1205556.127 9
  22423616.523    -3027601.152 6  -2280519.765 9
  21696129.414     1305553.029 7    988016.013 9
  23104184.398    -3178027.206 6  -2372679.964 9
 94  3  1 20 11  0.0000000  0  5 18 19 27 29 31
  20363492.555     -634084.413 8   -472642.683 9
  21013651.844    -1642513.729 7  -1236632.788 9
  22408276.852    -3108212.630 6  -2343333.834 9
  21704336.172     1348680.174 7   1021621.546 9
  23088665.531    -3259576.980 6  -2436225.087 9
 94  3  1 20 11 30.0000000  0  5 18 19 27 29 31
  20361932.891     -642279.427 8   -479028.391 9
  21006120.117    -1682092.995 7  -1267473.734 9
  22392975.891    -3188620.139 6  -2405988.955 9
  21712621.188     1392219.575 7   1055548.341 9
  23073227.813    -3340703.556 6  -2499440.444 9
 94  3  1 20 12  0.0000000  0  5 18 19 27 29 31
  20360478.539     -649922.379 8   -484983.922 9
  20998651.680    -1721338.920 7  -1298054.931 9
  22377721.227    -3268787.252 6  -2468456.766 9
  21720991.461     1436204.963 7   1089822.647 9
  23057875.570    -3421378.113 6  -2562303.581 9
 94  3  1 20 12 30.0000000  0  5 18 19 27 29 31
  20359131.039     -657002.974 8   -490501.256 9
  20991244.320    -1760264.240 7  -1328386.315 9
  22362512.984    -3348704.022 6  -2530729.502 9
  21729447.672     1480641.911 7   1124448.823 9
  23042611.266    -3501592.290 6  -2624807.979 9
 94  3  1 20 13  0.0000000  0  5 18 19 27 29 31
  20357892.719     -663511.194 8   -495572.583 9
  20983898.688    -1798865.025 7  -1358464.802 9
  22347354.102    -3428364.319 6  -2592802.424 9
  21737992.430     1525544.123 7   1159437.538 9
  23027437.945    -3581326.879 6  -2686938.639 9
 94  3  1 20 13 30.0000000  0  5 18 19 27 29 31
  20356757.484     -669476.183 8   -500220.605 9
  20976612.672    -1837155.793 7  -1388301.723 9
  22332242.195    -3507779.893 6  -2654684.599 9
  21746624.867     1570907.239 7   1194785.404 9
  23012354.266    -3660591.912 6  -2748703.482 9
 94  3  1 20 14  0.0000000  0  5 18 19 27 29 31
  20355728.711     -674882.966 8   -504433.670 9
  20969384.719    -1875141.152 7  -1417900.659 9
  22317180.313    -3586930.377 6  -2716360.234 9
  21755347.258     1616745.588 7   1230503.588 9
  22997362.539    -3739376.261 6  -2810093.718 9
 94  3  1 20 14 30.0000000  0  5 18 19 27 29 31
  20354806.750     -679727.445 7   -508208.584 9
  20962212.563    -1912827.111 7  -1447266.292 9
  22302166.305    -3665827.545 6  -2777838.495 9
  21764159.180     1663053.035 7   1266587.304 9
  22982460.797    -3817683.802 6  -2871112.407 9
 94  3  1 20 15  0.0000000  0  5 18 19 27 29 31
  20353991.836     -684007.635 7   -511543.786 9
  20955102.070    -1950195.778 7  -1476384.696 9
  22287198.102    -3744484.298 6  -2839129.407 9
  21773063.508     1709844.995 7   1303048.547 9
  22967651.664    -3895505.441 6  -2931752.478 9
 94  3  1 20 15 30.0000000  0  5 18 19 27 29 31
  20353286.219     -687717.326 8   -514434.448 9
  20948052.281    -1987239.417 7  -1505249.826 9
  22272275.344    -3822903.316 6  -2900235.078 9
  21782061.016     1757126.836 7   1339891.519 9
  22952936.141    -3972834.006 6  -2992008.338 9
 94  3  1 20 16  0.0000000  0  5 18 19 27 29 31
  20352689.852     -690852.651 7   -516877.566 9
  20941066.258    -2023952.684 7  -1533857.532 9
  22257398.078    -3901087.807 6  -2961157.998 9
  21791149.430     1804886.639 7   1377106.935 9
  22938315.992    -4049664.619 6  -3051876.187 9
 94  3  1 20 16 30.0000000  0  5 18 19 27 29 31
  20352202.617     -693410.735 7   -518870.868 9
  20934146.875    -2060314.906 7  -1562191.691 9
  22242566.492    -3979027.366 6  -3021890.044 9
  21800331.531     1853138.472 7   1414705.739 9
  22923791.758    -4125987.150 6  -3111348.125 9
 94  3  1 20 17  0.0000000  0  5 18 19 27 29 31
  20351821.156     -695415.140 7   -520432.737 9
  20927293.211    -2096332.699 7  -1590257.469 9
  22227783.422    -4056713.390 6  -3082424.537 9
  21809604.547     1901869.966 7   1452678.308 9
  22909363.125    -4201809.015 6  -3170429.923 9
 94  3  1 20 17 30.0000000  0  5 18 19 27 29 31
  20351552.453     -696829.881 8   -521535.137 9
  20920511.273    -2131970.599 7  -1618027.223 9
  22213059.930    -4134083.548 6  -3142712.901 9
  21818972.688     1951098.077 7   1491037.863 9
  22895036.477    -4277095.500 6  -3229094.563 9
 94  3  1 20 18  0.0000000  0  5 18 19 27 29 31
  20351395.203     -697654.218 7   -522177.481 9
  20913800.492    -2167233.925 7  -1645505.106 9
  22198396.531    -4211138.176 6  -3202755.394 9
  21828431.953     2000809.830 6   1529774.283 9
  22880811.297    -4351852.454 6  -3287346.565 9
 94  3  1 20 18 30.0000000  0  5 18 19 27 29 31
  20351353.891     -697870.796 7   -522346.241 9
  20907159.297    -2202132.796 7  -1672698.996 9
  22183795.156    -4287868.693 6  -3262545.334 9
  21837984.125     2051006.808 6   1568888.789 9
  22866686.805    -4426075.996 6  -3345182.916 9
 94  3  1 20 19  0.0000000  0  5 18 19 27 29 31
  20351434.227     -697450.164 7   -522018.477 9
  20900589.148    -2236660.343 7  -1699603.551 9
  22169256.891    -4364271.126 6  -3322079.623 9
  21847630.945     2101697.959 7   1608388.366 9
  22852668.844    -4499737.744 6  -3402581.517 9
 94  3  1 20 19 30.0000000  0  5 18 19 27 29 31
  20351636.461     -696387.089 7   -521190.114 9
  20894082.461    -2270853.398 7  -1726247.469 9
  22154773.664    -4440382.223 6  -3381386.882 9
  21857366.938     2152859.892 7   1648254.788 9
  22838755.875    -4572850.663 6  -3459552.460 9
 94  3  1 20 20  0.0000000  0  5 18 19 27 29 31
  20351960.406     -694682.990 7   -519862.253 9
  20887637.953    -2304720.321 7  -1752637.246 9
  22140341.531    -4516222.854 6  -3440483.401 9
  21867193.219     2204497.847 7   1688492.130 9
  22824947.305    -4645416.745 6  -3516097.319 9
 94  3  1 20 20 30.0000000  0  5 18 19 27 29 31
  20352402.961     -692357.613 7   -518050.276 9
  20881255.523    -2338258.777 7  -1778771.081 9
  22125959.805    -4591794.791 6  -3499370.553 9
  21877110.656     2256614.179 7   1729102.240 9
  22811241.758    -4717440.837 6  -3572219.851 9
 94  3  1 20 21  0.0000000  0  5 18 19 27 29 31
  20352960.047     -689430.365 7   -515769.311 9
  20874935.578    -2371470.536 7  -1804650.348 9
  22111628.586    -4667107.551 6  -3558055.747 9
  21887119.742     2309211.996 7   1770087.530 9
  22797636.813    -4788932.985 6  -3627927.884 9
 94  3  1 20 21 30.0000000  0  5 18 19 27 29 31
  20353631.703     -685902.225 7   -513020.114 9
  20868681.391    -2404336.486 7  -1830260.153 9
  22097350.227    -4742140.627 6  -3616523.018 9
  21897223.063     2362306.020 7   1811459.476 9
  22784131.695    -4859899.406 6  -3683226.278 9
 94  3  1 20 22  0.0000000  0  5 18 19 27 29 31
  20354419.500     -681762.646 7   -509794.468 9
  20862503.711    -2436800.514 7  -1855556.776 9
  22083131.883    -4816859.713 6  -3674745.612 9
  21907426.305     2415923.017 7   1853238.931 9
  22770732.766    -4930308.036 6  -3738090.032 9
 94  3  1 20 22 30.0000000  0  5 18 19 27 29 31
  20355323.094     -677014.767 7   -506094.827 9
  20856398.906    -2468882.040 7  -1880555.338 9
  22068971.695    -4891271.537 6  -3732728.781 9
  21917725.508     2470047.040 7   1895413.473 9
  22757442.141    -5000157.529 6  -3792518.117 9
 94  3  1 20 23  0.0000000  0  5 18 19 27 29 31
  20356344.664     -671644.973 7   -501910.576 9
  20850364.602    -2500592.186 7  -1905264.513 9
  22054868.945    -4965380.595 6  -3790476.040 9
  21928122.250     2524679.717 7   1937984.364 9
  22744257.438    -5069443.116 6  -3846506.791 9
 94  3  1 20 23 30.0000000  0  5 18 19 27 29 31
  20357486.992     -665640.076 7   -497231.434 9
  20844404.930    -2531910.304 7  -1929668.216 9
  22040826.563    -5039174.193 6  -3847977.483 9
  21938618.125     2579836.783 7   1980963.863 9
  22731185.328    -5138134.699 6  -3900032.592 9
 94  3  1 20 24  0.0000000  0  5 18 19 27 29 31
  20358750.219     -659003.078 7   -492059.743 9
  20838517.555    -2562849.057 7  -1953776.310 9
  22026841.430    -5112665.135 6  -3905243.100 9
  21949212.133     2635508.842 7   2024344.659 9
  22718229.234    -5206217.959 6  -3953084.373 9
 94  3  1 20 24 30.0000000  0  5 18 19 27 29 31
  20360135.469     -651723.984 7   -486387.724 9
  20832700.133    -2593418.790 7  -1977596.857 9
  22012915.602    -5185843.418 6  -3962265.098 9
  21959908.891     2691719.998 7   2068145.532 9
  22705389.695    -5273691.879 6  -4005661.344 9
 94  3  1 20 25  0.0000000  0  5 18 19 27 29 31
  20361638.695     -643821.927 7   -480230.271 9
  20826952.680    -2623620.851 7  -2001130.910 9
  21999048.109    -5258718.727 6  -4019051.008 9
  21970706.922     2748463.605 7   2112361.295 9
  22692663.117    -5340564.988 6  -4057770.164 9
 94  3  1 20 25 30.0000000  0  5 18 19 27 29 31
  20363260.758     -635299.259 7   -473589.228 9
  20821275.250    -2653457.078 7  -2024379.889 9
  21985237.156    -5331296.289 6  -4075604.898 9
  21981600.258     2805710.599 7   2156969.308 9
  22680053.367    -5406837.393 6  -4109410.910 9
 94  3  1 20 26  0.0000000  0  5 18 19 27 29 31
  20365002.203     -626147.739 7   -466458.163 9
  20815667.523    -2682926.397 7  -2047342.975 9
  21971486.398    -5403558.469 6  -4131913.042 9
  21992587.812     2863453.687 6   2201963.901 9
  22667556.820    -5472502.693 6  -4160578.579 9
 94  3  1 20 26 30.0000000  0  5 18 19 27 29 31
  20366862.594     -616372.160 7   -458840.820 9
  20810127.422    -2712038.983 7  -2070028.087 9
  21957796.070    -5475502.299 6  -4187973.114 9
  22003670.703     2921689.654 6   2247342.540 9
  22655175.039    -5537567.258 6  -4211278.155 9
 94  3  1 20 27  0.0000000  0  6  2 18 19 27 29 31
  24412568.164     -105129.438 5
  20368841.844     -605971.755 7   -450736.605 9
  20804655.359    -2740793.889 7  -2092434.485 9
  21944165.250    -5547131.448 6  -4243787.983 9
  22014841.844     2980394.751 6   2293086.730 9
  22642908.781    -5602025.336 6  -4261505.149 9
 94  3  1 20 27 30.0000000  0  6  2 18 19 27 29 31
  24391930.219     -213581.335 5    -33772.12718
  20370940.391     -594943.198 7   -442142.919 9
  20799251.961    -2769189.726 7  -2114561.098 9
  21930595.539    -5618440.897 6  -4299353.725 9
  22026101.625     3039566.782 6   2339194.769 9
  22630755.992    -5665893.180 6  -4311272.225 9
 94  3  1 20 28  0.0000000  0  6  2 18 19 27 29 31
  24371351.898     -321719.164 5   -118035.270 8
  20373158.336     -583287.309 7   -433060.397 9
  20793919.594    -2797212.408 7  -2136396.933 9
  21917088.172    -5689420.735 6  -4354662.633 9
  22037455.875     3099231.180 6   2385686.481 9
  22618714.695    -5729170.226 6  -4360578.922 9
 94  3  1 20 28 30.0000000  0  6  2 18 19 27 29 31
  24350834.523     -429539.171 5   -202050.780 8
  20375497.500     -570995.799 7   -423482.601 9
  20788660.617    -2824848.821 7  -2157931.781 9
  21903641.359    -5760083.575 6  -4409724.534 9
  22048905.414     3159401.295 6   2432572.252 9
  22606783.789    -5791865.578 6  -4409432.347 9
 94  3  1 20 29  0.0000000  0  6  2 18 19 27 29 31
  24330373.445     -537064.115 5   -285836.301 8
  20377957.219     -558070.447 7   -413410.894 9
  20783478.109    -2852082.015 7  -2179152.429 9
  21890253.227    -5830439.836 6  -4464547.544 9
  22060451.125     3220072.986 6   2479848.860 9
  22594963.016    -5853985.588 6  -4457837.456 9
 94  3  1 20 29 30.0000000  0  6  2 18 19 27 29 31
  24309965.594     -644302.702 5   -369398.697 8
  20380537.672     -544508.912 7   -402843.460 9
  20778375.164    -2878898.077 7  -2200048.049 9
  21876925.242    -5900482.797 7  -4519126.415 9
  22072096.875     3281271.612 6   2527536.061 9
  22583255.891    -5915506.102 6  -4505775.422 9
 94  3  1 20 30  0.0000000  0  6  2 18 19 27 29 31
  24289617.094     -751241.249 5   -452727.202 9
  20383236.688     -530326.575 7   -391792.293 9
  20773350.070    -2905305.905 7  -2220625.564 9
  21863651.719    -5970232.510 6  -4573476.782 9
  22083842.352     3342993.081 6   2575630.675 9
  22571667.883    -5976401.628 6  -4553226.395 9
 94  3  1 20 30 30.0000000  0  6  2 18 19 27 29 31
  24269321.750     -857884.586 5   -535825.654 8
  20386055.023     -515515.718 7   -380251.366 9
  20768399.398    -2931321.531 7  -2240897.457 9
  21850435.039    -6039684.521 6  -4627595.183 9
  22095687.484     3405242.429 6   2624136.631 9
  22560202.078    -6036654.409 6  -4600176.514 9
 94  3  1 20 31  0.0000000  0  6  2 18 19 27 29 31
  24249083.813     -964231.485 5   -618693.111 9
  20388994.078     -500070.547 7   -368216.171 9
  20763521.523    -2956955.830 7  -2260872.212 9
  21837279.469    -6108817.322 6  -4681464.845 9
  22107633.594     3468017.726 6   2673052.410 9
  22548863.563    -6096240.119 6  -4646606.855 9
 94  3  1 20 31 30.0000000  0  6  2 18 19 27 29 31
  24228909.859    -1070248.769 5   -701303.702 9
  20392056.945     -483978.411 7   -355676.850 9
  20758714.281    -2982217.414 7  -2280556.534 9
  21824188.523    -6177610.184 6  -4735069.622 9
  22119679.750     3531319.755 6   2722378.624 9
  22537655.258    -6155139.849 6  -4692502.669 9
 94  3  1 20 32  0.0000000  0  6  2 18 19 27 29 31
  24208800.938    -1175927.508 5   -783650.482 9
  20395243.336     -467232.618 7   -342628.184 9
  20753974.461    -3007124.060 7  -2299964.283 9
  21811160.852    -6246072.536 6  -4788416.859 9
  22131821.492     3595124.692 6   2772096.703 9
  22526571.570    -6213384.359 6  -4737887.926 9
 94  3  1 20 32 30.0000000  0  6  2 18 19 27 29 31
  24188749.039    -1281291.214 5   -865751.790 9
  20398553.430     -449837.144 7   -329073.266 9
  20749299.758    -3031688.175 7  -2319105.128 9
  21798193.930    -6314212.573 6  -4841512.928 9
  22144053.164     3659402.696 7   2822183.412 9
  22515606.492    -6271000.668 6  -4782783.684 9
 94  3  1 20 33  0.0000000  0  6  2 18 19 27 29 31
  24168763.695    -1386306.273 5   -947581.472 9
  20401988.016     -431788.456 7   -315009.355 9
  20744695.281    -3055887.678 7  -2337961.863 9
  21785291.242    -6382017.135 6  -4894347.611 9
  22156375.234     3724150.970 7   2872636.567 9
  22504763.656    -6327981.579 6  -4827184.334 9
 94  3  1 20 33 30.0000000  0  6  2 18 19 27 29 31
  24148852.094    -1490957.861 5  -1029127.907 9
  20405547.102     -413085.696 7   -300435.788 9
  20740162.273    -3079707.588 7  -2356522.807 9
  21772450.695    -6449494.486 7  -4946927.314 9
  22168787.250     3789377.675 7   2923462.527 9
  22494041.688    -6384328.849 6  -4871091.232 9
 94  3  1 20 34  0.0000000  0  6  2 18 19 27 29 31
  24129003.844    -1595253.406 5  -1110396.931 9
  20409229.930     -393731.209 7   -285354.377 9
  20735703.703    -3103136.126 7  -2374778.793 9
  21759670.938    -6516652.469 7  -4999258.168 9
  22181292.461     3855095.130 6   2974670.879 9
  22483439.188    -6440042.339 6  -4914504.284 9
 94  3  1 20 34 30.0000000  0  6  2 18 19 27 29 31
  24109223.875    -1699196.620 5  -1191391.446 9
  20413034.602     -373737.580 7   -269774.934 9
  20731321.547    -3126166.369 7  -2392724.417 9
  21746953.695    -6583483.686 7  -5051334.404 9
  22193893.844     3921313.670 7   3026269.697 9
  22472961.250    -6495101.655 6  -4957407.598 9
 94  3  1 20 35  0.0000000  0  6  2 18 19 27 29 31
  24089510.156    -1802783.843 5  -1272108.579 9
  20416959.711     -353112.503 7   -253703.453 9
  20727014.055    -3148802.826 7  -2410363.194 9
  21734298.086    -6649990.310 7  -5103157.700 9
  22206592.352     3988044.346 7   3078267.585 9
  22462608.492    -6549506.058 6  -4999800.596 9
 94  3  1 20 35 30.0000000  0  6  2 18 19 27 29 31
  24069865.102    -1906024.261 5  -1352555.491 9
  20421004.281     -331857.912 7   -237141.439 9
  20722779.273    -3171057.885 7  -2427704.783 9
  21721699.617    -6716193.547 7  -5154744.589 9
  22219386.750     4055279.751 6   3130658.756 9
  22452380.672    -6603257.263 6  -5041684.610 9
 94  3  1 20 36  0.0000000  0  6  2 18 19 27 29 31
  24050285.727    -2008915.679 5  -1432730.486 9
  20425169.070     -309971.871 7   -220087.398 9
  20718615.953    -3192936.016 7  -2444752.653 9
  21709161.234    -6782081.442 7  -5206085.754 9
  22232276.766     4123017.853 6   3183441.634 9
  22442277.570    -6656348.270 6  -5083054.186 9
 94  3  1 20 36 30.0000000  0  6  2 18 19 27 29 31
  24030770.109    -2111474.473 5  -1512646.291 9
  20429451.648     -287466.076 7   -202550.416 9
  20714519.734    -3214460.491 7  -2461524.946 9
  21696683.016    -6847656.625 7  -5257183.250 9
  22245259.148     4191242.575 6   3236603.693 9
  22432298.258    -6708792.761 6  -5123919.986 9
 94  3  1 20 37  0.0000000  0  6  2 18 19 27 29 31
  24011316.141    -2213704.493 5  -1592305.919 9
  20433856.187     -264321.641 7   -184515.791 9
  20710492.875    -3235622.750 7  -2478014.991 9
  21684265.141    -6912912.662 7  -5308032.077 9
  22258334.766     4259953.138 6   3290144.324 9
  22422440.586    -6760592.624 6  -5164283.477 9
 94  3  1 20 37 30.0000000  0  6  2 18 19 27 29 31
  23991932.227    -2315563.397 5  -1671676.388 9
  20438393.586     -240476.179 7   -165934.920 9
  20706544.781    -3256367.675 7  -2494179.837 9
  21671919.797    -6977785.860 7  -5358582.582 9
  22271511.055     4329196.490 6   3344100.123 9
  22412715.078    -6811699.459 6  -5204106.933 9
 94  3  1 20 38  0.0000000  0  6  2 18 19 27 29 31
  23972609.648    -2417111.376 5  -1750804.588 9
  20443056.086     -215973.749 7   -146842.115 9
  20702668.742    -3276736.288 7  -2510051.461 9
  21659640.555    -7042314.468 7  -5408864.584 9
  22284780.508     4398930.924 6   3398438.583 9
  22403112.930    -6862158.069 6  -5243425.279 9
 94  3  1 20 38 30.0000000  0  6  2 18 19 27 29 31
  23953343.477    -2518352.220 5  -1829693.455 9
  20447845.063     -190809.988 7   -127233.996 9
  20698864.969    -3296725.663 7  -2525627.577 9
  21647424.930    -7106507.574 7  -5458885.147 9
  22298144.648     4469155.773 6   3453159.181 9
  22393636.438    -6911958.568 6  -5282230.822 9
 94  3  1 20 39  0.0000000  0  6  2 18 19 27 29 31
  23934136.203    -2619287.417 5  -1908344.167 9
  20452753.352     -165014.315 7   -107133.479 9
  20695129.086    -3316359.081 7  -2540926.328 9
  21635267.711    -7170395.304 7  -5508667.744 9
  22311596.359     4539844.780 6   3508241.453 9
  22384283.750    -6961106.397 6  -5320527.784 9
 94  3  1 20 39 30.0000000  0  6  2 18 19 27 29 31
  23914991.648    -2719888.856 5  -1986734.768 9
  20457780.898     -138594.292 7    -86546.444 9
  20691460.500    -3335638.693 7  -2555949.384 9
  21623166.422    -7233984.829 7  -5558217.985 9
  22325136.539     4610997.288 6   3563684.892 9
  22375059.523    -7009580.859 6  -5358300.043 9
 94  3  1 20 40  0.0000000  0  6  2 18 19 27 29 31
  23895918.578    -2820124.551 5  -2064840.373 9
  20462929.586     -111539.674 7    -65464.925 9
  20687861.594    -3354548.856 7  -2570684.557 9
  21611124.133    -7297269.389 7  -5607530.590 9
  22338768.195     4682631.033 6   3619503.332 9
  22365968.359    -7057353.596 6  -5395525.504 9
 94  3  1 20 40 30.0000000  0  6  2 18 19 27 29 31
  23876912.852    -2919992.970 5  -2142659.781 9
  20468195.648      -83865.629 7    -43900.744 9
  20684330.773    -3373102.896 7  -2585142.228 9
  21599137.422    -7360261.587 7  -5656615.379 9
  22352488.500     4754731.969 6   3675685.795 9
  22357007.492    -7104445.258 6  -5432220.249 9
 94  3  1 20 41  0.0000000  0  6  2 18 19 27 29 31
  23857979.398    -3019491.990 5  -2220191.342 9
  20473578.750      -55578.895 7    -21859.138 9
  20680867.320    -3391305.131 7  -2599325.768 9
  21587207.016    -7422955.615 7  -5705467.829 9
  22366296.250     4827292.919 6   3732226.727 9
  22348170.813    -7150880.347 6  -5468403.382 9
 94  3  1 20 41 30.0000000  0  6  2 18 19 27 29 31
  23839114.414    -3118630.592 5  -2297442.066 9
  20479080.289      -26667.377 7       669.315 9
  20677472.844    -3409143.114 7  -2613225.478 9
  21575337.672    -7485329.385 7  -5754070.730 9
  22380193.453     4900323.218 6   3789133.380 9
  22339457.609    -7196667.598 6  -5504081.729 9
 94  3  1 20 42  0.0000000  0  6  2 18 19 27 29 31
  23820314.766    -3217422.038 5  -2374422.247 9
  20484701.047        2871.355 7     23686.509 9
  20674148.352    -3426613.463 7  -2626838.720 9
  21563530.813    -7547373.411 7  -5802416.684 9
  22394182.516     4973835.013 6   3846415.233 9
  22330867.063    -7241815.080 6  -5539261.537 9
 94  3  1 20 42 30.0000000  0  6  2 18 19 27 29 31
  23801579.547    -3315871.998 5  -2451136.325 9
  20490440.609       33031.639 7     47188.022 9
  20670893.391    -3443718.788 7  -2640167.523 9
  21551788.461    -7609078.702 7  -5850498.687 9
  22408262.273     5047825.617 6   3904070.178 9
  22322396.547    -7286327.797 6  -5573946.721 9
 94  3  1 20 43  0.0000000  0  6  2 18 19 27 29 31
  23782907.609    -3413988.712 5  -2527590.766 9
  20496296.391       63803.748 7     71166.282 9
  20667706.867    -3460462.970 7  -2653214.924 9
  21540111.375    -7670443.539 7  -5898315.407 9
  22422431.781     5122287.860 6   3962092.636 9
  22314051.219    -7330179.946 6  -5608117.189 9
 94  3  1 20 43 30.0000000  0  6  2 18 19 27 29 31
  23764298.703    -3511782.549 5  -2603793.612 9
  20502269.125       95191.207 7     95624.032 9
  20664589.328    -3476846.751 7  -2665981.491 9
  21528495.281    -7731485.922 7  -5945880.859 9
  22436692.102     5197223.023 6   4020483.595 9
  22305837.180    -7373344.195 6  -5641751.619 9
 94  3  1 20 44  0.0000000  0  6  2 18 19 27 29 31
  23745752.195    -3609239.854 5  -2679734.211 9
  20508360.914      127201.039 7    120566.749 9
  20661540.203    -3492869.239 7  -2678466.523 9
  21516937.672    -7792222.643 7  -5993208.140 9
  22451039.734     5272620.905 6   4079235.118 9
  22297755.938    -7415813.023 6  -5674844.162 9
 94  3  1 20 44 30.0000000  0  6  2 18 19 27 29 31
  23727270.969    -3706356.910 5  -2755409.707 9
  20514570.055      159832.483 7    145993.826 9
  20658560.031    -3508531.313 7  -2690670.714 9
  21505438.063    -7852654.261 7  -6040297.667 9
  22465473.445     5348469.725 6   4138338.003 9
  22289807.266    -7457582.146 6  -5707391.469 9
 94  3  1 20 45  0.0000000  0  6  2 18 19 27 29 31
  23708856.656    -3803124.803 5  -2830813.144 9
  20520899.461      193095.843 7    171913.317 9
  20655648.789    -3523829.464 7  -2702591.338 9
  21493994.492    -7912788.580 7  -6087155.539 9
  22479992.508     5424768.467 6   4197791.489 9
  22281992.719    -7498648.237 6  -5739390.962 9
 94  3  1 20 45 30.0000000  0  6  2 18 19 27 29 31
  23690509.055    -3899547.211 5  -2905947.367 9
  20527350.820      226995.484 7    198328.605 9
  20652807.328    -3538760.206 7  -2714225.667 9
  21482606.406    -7972632.857 7  -6133787.402 9
  22494595.680     5501510.271 6   4257590.218 9
  22274306.055    -7539044.445 6  -5770868.457 9
 94  3  1 20 46  0.0000000  0  6  2 18 19 27 29 31
  23672228.258    -3995611.752 5  -2980802.740 9
  20533923.602      261535.289 7    225242.722 9
  20650038.742    -3553307.077 7  -2725560.877 9
  21471278.023    -8032162.689 7  -6180174.248 9
  22509285.016     5578700.332 6   4317738.240 9
  22266745.820    -7578772.800 6  -5801825.537 9
 94  3  1 20 46 30.0000000  0  6  2 18 19 27 29 31
  23654011.914    -4091337.727 5  -3055394.312 9
  20540615.203      296701.560 7    252645.001 9
  20647343.844    -3567469.703 7  -2736596.678 9
  21460009.125    -8091380.860 7  -6226318.241 9
  22524058.781     5656337.408 6   4378234.579 9
  22259311.547    -7617838.067 6  -5832265.926 9
 94  3  1 20 47  0.0000000  0  6  2 18 19 27 29 31
  23635861.109    -4186722.250 5  -3129719.846 9
  20547427.586      332501.000 7    280540.659 9
  20644723.453    -3581240.834 7  -2747327.422 9
  21448800.906    -8150282.462 7  -6272215.556 9
  22538918.844     5734428.485 6   4439084.699 9
  22252004.336    -7656237.523 6  -5862187.505 9
 94  3  1 20 47 30.0000000  0  6  2 18 19 27 29 31
  23617774.375    -4281769.384 5  -3203782.488 9
  20554358.953      368922.768 7    308921.240 9
  20642178.148    -3594619.140 7  -2757752.063 9
  21437653.398    -8208862.285 7  -6317862.132 9
  22553866.609     5812978.328 6   4500292.292 9
  22244825.727    -7693964.277 6  -5891584.900 9
 94  3  1 20 48  0.0000000  0  6  2 18 19 27 29 31
  23599753.742    -4376472.079 5  -3277576.723 9
  20561403.438      405943.075 7    337768.209 9
  20639701.938    -3607630.989 7  -2767891.154 9
  21426564.070    -8267136.671 7  -6363270.703 9
  22568900.813     5891981.431 6   4561853.062 9
  22237775.633    -7731012.603 6  -5920453.648 9
 94  3  1 20 48 30.0000000  0  6  2 18 19 27 29 31
  23581798.695    -4470823.234 5  -3351097.050 9
  20568557.781      443537.638 7    367062.663 9
  20637291.422    -3620297.395 7  -2777761.072 9
  21415529.703    -8325121.237 7  -6408453.441 9
  22584020.109     5971438.018 6   4623767.203 9
  22230853.063    -7767384.465 6  -5948795.299 9
 94  3  1 20 49  0.0000000  0  6  2 18 19 27 29 31
  23563912.641    -4564812.409 5  -3424335.308 9
  20575820.781      481706.079 7    396804.293 9
  20634943.500    -3632633.541 7  -2787373.647 9
  21404551.531    -8382812.031 7  -6453407.266 9
  22599227.719     6051351.428 6   4686037.320 9
  22224064.875    -7803058.975 6  -5976593.567 9
 94  3  1 20 49 30.0000000  0  7  2 16 18 19 27 29 31
  23546093.227    -4658454.969 5  -3497303.484 9
  24232287.125      -61150.659 3
  20583188.828      520425.792 7    426975.479 9
  20632653.820    -3644666.261 7  -2796749.782 9
  21393625.320    -8440231.996 7  -6498150.068 9
  22614515.898     6131691.676 6   4748640.045 9
  22217407.070    -7838048.131 6  -6003857.786 9
 94  3  1 20 50  0.0000000  0  7  2 16 18 19 27 29 31
  23528338.094    -4751755.935 5  -3570005.476 9
  24220363.055     -123811.764 3    -21095.06416
  20590663.438      559703.752 7    457581.663 9
  20630419.023    -3656413.651 7  -2805903.580 9
  21382750.195    -8497381.068 7  -6542681.779 9
  22629881.961     6212438.717 6   4811559.727 9
  22210877.133    -7872362.846 6  -6030596.477 9
 94  3  1 20 50 30.0000000  0  7  2 16 18 19 27 29 31
  23510655.039    -4844685.942 5  -3642418.407 9
  24208562.883     -185822.737 3    -69415.257 5
  20598256.078      599604.193 7    488672.894 9
  20628248.555    -3667818.459 7  -2814790.432 9
  21371936.188    -8554207.784 7  -6586962.303 9
  22645332.117     6293625.273 6   4874821.905 9
  22204482.344    -7905963.782 6  -6056778.974 9
 94  3  1 20 51  0.0000000  0  7  2 16 18 19 27 29 31
  23493041.656    -4937249.716 6  -3714545.926 9
  24196887.469     -247177.019 3   -117223.687 7
  20605972.852      640159.132 7    520274.123 9
  20626145.422    -3678870.790 7  -2823402.619 9
  21361187.141    -8610693.988 7  -6630977.488 9
  22660860.133     6375232.038 6   4938411.516 9
  22198223.141    -7938857.965 6  -6082410.771 9
 94  3  1 20 51 30.0000000  0  7  2 16 18 19 27 29 31
  23475495.875    -5029449.935 5  -3786390.159 9
  24185333.406     -307893.540 3   -164535.246 7
  20613815.242      681368.187 7    552385.058 9
  20624110.594    -3689562.631 7  -2831733.913 9
  21350502.031    -8666842.884 7  -6674729.831 9
  22676468.516     6457252.448 6   5002323.447 9
  22192092.539    -7971074.274 6  -6107514.339 9
 94  3  1 20 52  0.0000000  0  7  2 16 18 19 27 29 31
  23458016.727    -5121298.887 5  -3857960.660 9
  24173897.727     -367999.583 3   -211371.054 8
  20621782.352      723233.516 7    585007.369 9
  20622146.156    -3699885.909 7  -2839778.021 9
  21339879.984    -8722661.597 7  -6718224.903 9
  22692156.078     6539688.916 6   5066559.579 9
  22186091.102    -8002614.033 6  -6132090.715 9
 94  3  1 20 52 30.0000000  0  7  2 16 18 19 27 29 31
  23440603.641    -5212807.736 5  -3929266.156 9
  24162568.641     -427519.583 3   -257750.217 6
  20629869.273      765734.829 7    618125.252 9
  20620253.000    -3709832.949 7  -2847528.943 9
  21329317.352    -8778170.137 7  -6761478.269 9
  22707921.492     6622535.737 6   5131115.470 9
  22180216.969    -8033482.064 7  -6156143.688 9
 94  3  1 20 53  0.0000000  0  7  2 16 18 19 27 29 31
  23423254.008    -5303982.176 6  -4000311.054 9
  24151354.539     -486450.964 3   -303670.722 7
  20638071.836      808838.074 7    651712.181 9
  20618429.281    -3719419.199 7  -2854998.729 9
  21318812.234    -8833376.807 7  -6804496.422 9
  22723764.305     6705789.402 6   5195988.378 9
  22174469.906    -8063682.816 7  -6179676.704 9
 94  3  1 20 53 30.0000000  0  7  2 16 18 19 27 29 31
  23405967.977    -5394819.782 6  -4071093.479 9
  24140254.633     -544783.683 3   -349124.716 7
  20646384.594      852519.428 7    685749.569 9
  20616672.828    -3728648.686 7  -2862190.523 9
  21308361.367    -8888296.823 7  -6847291.202 9
  22739686.188     6789456.862 6   5261183.720 9
  22168851.531    -8093205.243 7  -6202681.158 9
 94  3  1 20 54  0.0000000  0  7  2 16 18 19 27 29 31
  23388748.594    -5485307.768 6  -4141603.464 9
  24129268.461     -602500.145 2   -394098.569 7
  20654805.711      896773.778 7    720233.455 9
  20614985.086    -3737517.685 7  -2869101.406 9
  21297965.453    -8942927.520 7  -6889860.542 9
  22755686.125     6873537.686 6   5326701.166 9
  22163367.039    -8122029.514 7  -6225141.595 9
 94  3  1 20 54 30.0000000  0  7  2 16 18 19 27 29 31
  23371597.750    -5575430.450 5  -4211828.793 9
  24118405.391     -659595.602 3   -438588.442 8
  20663334.492      941594.453 7    755158.640 9
  20613365.156    -3746028.750 7  -2875733.385 9
  21287626.359    -8997257.375 7  -6932195.467 9
  22771762.406     6958027.784 6   5392537.526 9
  22158012.734    -8150165.966 7  -6247066.064 9
 94  3  1 20 55  0.0000000  0  7  2 16 18 19 27 29 31
  23354518.406    -5665183.819 5  -4281766.354 9
  24107663.438     -716058.274 3   -482585.251 8
  20671974.039      986992.956 7    790534.076 9
  20611812.586    -3754186.986 7  -2882090.441 9
  21277347.156    -9051275.716 7  -6974287.655 9
  22787920.367     7042935.559 6   5458699.345 9
  22152791.383    -8177604.709 7  -6268446.857 9
 94  3  1 20 55 30.0000000  0  7  2 16 18 19 27 29 31
  23337510.867    -5754558.716 6  -4351409.008 9
  24097038.242     -771890.224 4   -526090.625 8
  20680728.773     1032999.195 7    826383.070 9
  20610328.953    -3761985.863 7  -2888167.471 9
  21267128.797    -9104974.143 7  -7016130.541 9
  22804160.461     7128275.375 6   5525197.821 9
  22147706.070    -8204327.517 7  -6289269.772 9
 94  3  1 20 56  0.0000000  0  7  2 16 18 19 27 29 31
  23320575.633    -5843557.274 6  -4420758.413 9
  24086530.859     -827097.342 4   -569109.079 7
  20689603.719     1079637.980 7    862724.960 9
  20608913.875    -3769420.660 7  -2893960.803 9
  21256974.086    -9158337.171 7  -7057712.077 9
  22820485.086     7214059.475 6   5592042.469 9
  22142758.859    -8230322.244 7  -6309525.373 9
 94  3  1 20 56 30.0000000  0  7  2 16 18 19 27 29 31
  23303707.664    -5932193.080 5  -4489825.147 9
  24076143.234     -881696.156 5   -611653.527 7
  20698599.445     1126908.135 7    899558.827 9
  20607565.352    -3776508.393 7  -2899483.691 9
  21246883.055    -9211364.514 7  -7099032.049 9
  22836893.984     7300289.234 6   5659234.406 9
  22137950.594    -8255590.647 7  -6329214.998 9
 94  3  1 20 57  0.0000000  0  7  2 16 18 19 27 29 31
  23286906.805    -6020481.720 5  -4558621.400 9
  24065870.797     -935678.035 5   -653717.274 8
  20707710.805     1174789.718 7    936869.130 9
  20606279.367    -3783266.948 7  -2904750.080 9
  21236853.438    -9264070.075 7  -7140101.287 9
  22853385.773     7386954.821 6   5726765.955 9
  22133279.813    -8280136.075 7  -6348341.275 9
 94  3  1 20 57 30.0000000  0  7  2 16 18 19 27 29 31
  23270172.977    -6108420.424 5  -4627144.960 9
  24055713.961     -989049.304 5   -695305.242 8
  20716935.391     1223267.895 7    974644.313 9
  20605055.125    -3789698.200 7  -2909761.433 9
  21226883.492    -9316461.952 7  -7180926.094 9
  22869958.852     7474049.449 6   5794631.817 9
  22128745.250    -8303966.010 6  -6366909.998 9
 94  3  1 20 58  0.0000000  0  7  2 16 18 19 27 29 31
  23253506.633    -6196002.186 6  -4695390.386 9
  24045675.203    -1041798.749 4   -736408.684 6
  20726272.992     1272335.748 7   1012878.979 9
  20603897.172    -3795785.700 7  -2914504.931 9
  21216973.352    -9368541.787 7  -7221507.750 9
  22886612.180     7561559.935 6   5862821.728 9
  22124344.039    -8327090.371 6  -6384928.931 9
 94  3  1 20 58 30.0000000  0  7  2 16 18 19 27 29 31
  23236912.016    -6283209.114 6  -4763343.744 9
  24035756.539    -1093913.460 3   -777017.536 2
  20735719.305     1321978.567 7   1051561.678 9
  20602807.305    -3801513.761 7  -2918968.352 9
  21207120.719    -9420316.205 7  -7261851.414 9
  22903341.086     7649467.934 6   5931321.380 9
  22120076.047    -8349517.535 6  -6402404.597 9
 94  3  1 20 59  0.0000000  0  7  2 16 18 19 27 29 31
  23220389.117    -6370036.350 6  -4831001.238 9
  24025962.313    -1145384.501 3
  20745276.625     1372201.930 7   1090696.748 9
  20601787.695    -3806870.743 7  -2923142.621 9
  21197324.438    -9471796.316 7  -7301965.752 9
  22920144.477     7737768.760 6   6000127.121 9
  22115942.000    -8371245.631 6  -6419335.533 9
 94  3  1 20 59 30.0000000  0  7  2 16 18 19 27 29 31
  23203941.406    -6456471.395 6  -4898353.137 9
  24016288.523    -1196219.735 3
  20754948.063     1423024.027 7   1130298.363 9
  20600841.742    -3811841.948 7  -2927016.267 9
  21187582.852    -9522986.488 7  -7341854.173 9
  22937023.336     7826468.107 6   6069243.386 9
  22111942.688    -8392258.569 6  -6435709.208 9
 94  3  1 21  0  0.0000000  0  7  2 16 18 19 27 29 31
  23187567.000    -6542520.785 6  -4965404.525 9
  24006735.086    -1246422.689 3         1.29117
  20764732.180     1474441.264 7   1170363.726 9
  20599966.156    -3816442.249 7  -2930600.903 9
  21177897.945    -9573881.292 7  -7381512.434 9
  22953974.680     7915544.175 6   6138653.194 9
  22108079.727    -8412559.522 6  -6451528.097 9
 94  3  1 21  0 30.0000000  0  7  2 16 18 19 27 29 31
  23171261.703    -6628203.714 6  -5032170.361 9
  23997300.492    -1296002.731 4    -38632.410 7
  20774626.172     1526434.102 7   1210877.610 9
  20599155.438    -3820705.046 7  -2933922.547 9
  21168268.016    -9624489.706 7  -7420947.529 9
  22970995.102     8004993.923 6   6208354.189 9
  22104352.313    -8432153.369 6  -6466795.989 9
 94  3  1 21  1  0.0000000  0  7  2 16 18 19 27 29 31
  23155023.734    -6713532.600 6  -5098660.307 9
  23987987.281    -1344954.047 5    -76776.247 8
  20784632.156     1579013.728 7   1251848.732 9
  20598406.219    -3824641.662 7  -2936990.023 9
  21158694.547    -9674800.804 7  -7460150.940 9
  22988092.477     8094841.469 6   6278365.153 9
  22100759.680    -8451030.626 6  -6481505.501 9
 94  3  1 21  1 30.0000000  0  7  2 16 18 19 27 29 31
  23138851.898    -6798509.849 6  -5164876.276 9
  23978792.641    -1393265.469 5   -114421.474 9
  20794749.102     1632180.912 7   1293277.687 9
  20597718.680    -3828253.558 7  -2939804.468 9
  21149181.406    -9724789.643 7  -7499103.248 9
  23005265.961     8185090.389 6   6348688.893 9
  22097304.172    -8469190.197 6  -6495655.785 9
 94  3  1 21  2  0.0000000  0  7  2 16 18 19 27 29 31
  23122748.086    -6883139.016 6  -5230821.004 9
  23969725.383    -1440914.428 5   -151550.464 9
  20804979.250     1685940.226 7   1335168.048 9
  20597093.570    -3831539.638 7  -2942365.040 9
  21139735.695    -9774426.479 7  -7537781.277 9
  23022516.078     8275737.099 6   6419322.591 9
  22093984.555    -8486629.760 6  -6509245.031 9
 94  3  1 21  2 30.0000000  0  7  2 16 18 19 27 29 31
  23106713.609    -6967400.639 6  -5296479.329 9
  23960787.969    -1487879.051 5   -188146.249 9
  20815323.227     1740297.324 7   1377524.205 9
  20596536.477    -3834465.481 7  -2944644.908 9
  21130356.625    -9823712.224 7  -7576185.738 9
  23039845.766     8366799.841 6   6490280.460 9
  22090804.039    -8503345.710 6  -6522270.421 9
 94  3  1 21  3  0.0000000  0  7  2 16 18 19 27 29 31
  23090752.617    -7051276.483 6  -5361837.048 9
  23951980.141    -1534164.226 4   -224212.542 9
  20825781.023     1795252.355 7   1420346.295 9
  20596049.906    -3837023.712 7  -2946638.322 9
  21121046.492    -9872638.325 7  -7614309.956 9
  23057252.297     8458270.859 6   6561556.480 9
  22087760.133    -8519346.154 7  -6534738.281 9
 94  3  1 21  3 30.0000000  0  7  2 16 18 19 27 29 31
  23074869.383    -7134745.667 6  -5426877.875 9
  23943302.164    -1579768.736 5   -259748.507 9
  20836352.047     1850804.437 7   1463633.607 9
  20595634.180    -3839206.540 7  -2948339.210 9
  21111802.828    -9921214.746 7  -7652161.687 9
  23074734.891     8550142.789 6   6633144.882 9
  22084852.000    -8534624.039 7  -6546643.097 9
 94  3  1 21  4  0.0000000  0  7  2 16 18 19 27 29 31
  23059065.148    -7217797.743 6  -5491593.685 9
  23934750.898    -1624706.855 4   -294765.160 9
  20847036.305     1906952.318 7   1507385.186 9
  20595290.047    -3841013.446 7  -2949747.170 9
  21102619.438    -9969473.074 7  -7689765.557 9
  23092291.016     8642404.945 6   6705037.360 9
  22082081.328    -8549184.221 7  -6557988.668 9
 94  3  1 21  4 30.0000000  0  7  2 16 18 19 27 29 31
  23043343.352    -7300418.319 6  -5555973.263 9
  23926323.477    -1668991.575 5   -329272.694 9
  20857836.641     1963706.746 7   1551609.406 9
  20595016.648    -3842449.096 7  -2950865.843 9
  21093493.125   -10017432.057 7  -7727136.177 9
  23109926.828     8735078.088 6   6777250.081 9
  22079448.867    -8563018.623 7  -6568768.700 9
 94  3  1 21  5  0.0000000  0  7  2 16 18 19 27 29 31
  23027699.117    -7382627.930 6  -5620032.603 9
  23918015.125    -1712649.435 5   -363291.763 9
  20868752.563     2021068.416 7   1596306.795 9
  20594808.648    -3843542.588 7  -2951717.907 9
  21084421.914   -10065099.270 7  -7764279.441 9
  23127640.563     8828161.204 6   6849782.266 9
  22076957.250    -8576112.570 7  -6578971.762 9
 94  3  1 21  5 30.0000000  0  7  2 16 18 19 27 29 31
  23012128.000    -7464451.406 6  -5683791.065 9
  23909826.070    -1755689.254 5   -396829.228 9
  20879782.266     2079030.888 7   1641472.341 9
  20594666.086    -3844293.283 7  -2952302.855 9
  21075405.719   -10112483.959 7  -7801202.552 9
  23145426.828     8921635.069 6   6922618.924 9
  22074607.688    -8588458.679 7  -6588592.091 9
 94  3  1 21  6  0.0000000  0  7  2 16 18 19 27 29 31
  22996629.414    -7545895.764 6  -5747254.123 9
  23901753.414    -1798109.357 5   -429883.801 9
  20890925.227     2137586.760 7   1687100.273 9
  20594589.781    -3844696.068 7  -2952616.702 9
  21066447.055   -10159563.749 7  -7837888.082 9
  23163286.508     9015485.381 6   6995748.905 9
  22072399.102    -8600065.035 7  -6597635.986 9
 94  3  1 21  6 30.0000000  0  7  2 16 18 19 27 29 31
  22981199.188    -7626982.469 6  -5810438.477 9
  23893798.000    -1839915.625 5   -462460.093 9
  20902174.930     2196703.393 7   1733165.163 9
  20594579.016    -3844752.919 7  -2952661.001 9
  21057550.609   -10206312.552 7  -7874315.688 9
  23181215.969     9109704.224 6   7069166.066 9
  22070331.336    -8610932.362 7  -6606104.013 9
 94  3  1 21  7  0.0000000  0  7  2 16 18 19 27 29 31
  22965835.156    -7707720.694 6  -5873351.308 9
  23885963.648    -1881085.459 5   -494540.414 9
  20913528.711     2256368.593 7   1779657.505 9
  20594637.977    -3844443.204 7  -2952419.665 9
  21048723.391   -10252700.578 7  -7910462.171 9
  23199212.969     9204277.585 6   7142859.467 9
  22068401.969    -8621069.177 7  -6614002.801 9
 94  3  1 21  7 30.0000000  0  7  2 16 18 19 27 29 31
  22950537.219    -7788112.354 6  -5935994.090 9
  23878254.523    -1921598.905 5   -526109.328 9
  20924986.906     2316581.129 7   1826576.343 9
  20594768.242    -3843755.491 7  -2951883.771 9
  21039965.000   -10298724.483 7  -7946324.923 9
  23217275.328     9299198.028 5   7216823.321 9
  22066609.125    -8630488.658 7  -6621342.638 9
 94  3  1 21  8  0.0000000  0  7  2 16 18 19 27 29 31
  22935307.586    -7868143.512 6  -5998355.954 9
  23870672.734    -1961444.275 5   -557157.630 9
  20936549.711     2377345.105 7   1873924.868 9
  20594969.906    -3842698.235 7  -2951059.925 9
  21031275.219   -10344391.042 7  -7981909.227 9
  23235410.539     9394496.131 5   7291081.453 9
  22064953.070    -8639192.418 7  -6628124.782 9
 94  3  1 21  8 30.0000000  0  7  2 16 18 19 27 29 31
  22920144.891    -7947826.468 6  -6060446.498 9
  23863215.516    -2000630.202 5   -587692.087 9
  20948216.625     2438654.139 7   1921698.109 9
  20595237.563    -3841287.132 7  -2949960.362 9
  21022650.148   -10389717.771 7  -8017228.718 9
  23253618.367     9490179.235 5   7365639.592 9
  22063432.062    -8647187.745 7  -6634354.893 9
 94  3  1 21  9  0.0000000  0  7  2 16 18 19 27 29 31
  22905050.906    -8027146.081 6  -6122253.902 9
  23855886.250    -2039146.857 5   -617705.031 9
  20959992.703     2500537.790 7   1969919.113 9
  20595573.945    -3839522.390 7  -2948585.232 9
  21014082.688   -10434738.095 7  -8052309.462 9
  23271899.898     9586248.824 5   7440498.889 9
  22062042.695    -8654490.382 7  -6640045.229 9
 94  3  1 21  9 30.0000000  0  7  2 16 18 19 27 29 31
  22890034.234    -8106060.710 6  -6183745.738 9
  23848684.813    -2076989.669 5   -647192.883 9
  20971881.539     2563016.561 7   2018603.845 9
  20595979.227    -3837393.425 7  -2946926.290 9
  21005572.852   -10479458.788 7  -8087156.726 9
  23290257.406     9682722.223 5   7515672.834 9
  22060788.437    -8661076.262 7  -6645177.074 9
 94  3  1 21 10  0.0000000  0  7  2 16 18 19 27 29 31
  22875096.344    -8184557.683 6  -6244912.148 9
  23841610.313    -2114164.423 5   -676160.183 9
  20983883.070     2626083.621 7   2067746.985 9
  20596453.227    -3834903.824 7  -2944986.337 9
  20997119.727   -10523879.897 7  -8121770.543 9
  23308691.078     9779585.648 5   7591150.713 9
  22059671.469    -8666947.491 7  -6649752.058 9
 94  3  1 21 10 30.0000000  0  7  2 16 18 19 27 29 31
  22860238.625    -8262637.693 6  -6305753.652 9
  23834659.953    -2150680.663 5   -704614.382 9
  20995995.914     2689737.868 7   2117347.660 9
  20596997.180    -3832043.058 7  -2942757.161 9
  20988724.203   -10567995.313 7  -8156146.155 9
  23327191.266     9876805.330 5   7666906.176 9
  22058690.008    -8672105.400 7  -6653771.193 9
 94  3  1 21 11  0.0000000  0  7  2 16 18 19 27 29 31
  22845461.664    -8340289.620 6  -6366261.571 9
  23827835.570    -2186548.408 5   -732563.219 9
  21008220.711     2753981.359 7   2167407.499 9
  20597610.000    -3828823.406 7  -2940248.336 9
  20980384.867   -10611818.646 7  -8190294.172 9
  23345757.563     9974373.512 5   7742933.193 9
  22057846.891    -8676538.688 7  -6657225.681 9
 94  3  1 21 11 30.0000000  0  7  2 16 18 19 27 29 31
  22830763.852    -8417522.410 6  -6426442.898 9
  23821131.625    -2221776.063 5   -760013.257 9
  21020554.945     2818793.548 7   2217910.485 9
  20598287.891    -3825262.297 7  -2937473.442 9
  20972105.180   -10655328.182 7  -8224197.681 9
  23364389.891    10072288.473 5   7819230.441 9
  22057144.273    -8680229.900 7  -6660101.926 9
 94  3  1 21 12  0.0000000  0  7  2 16 18 19 27 29 31
  22816141.766    -8494358.893 6  -6486315.419 9
  23814547.828    -2256369.752 4   -786969.364 9
  21032993.844     2884159.629 7   2268845.061 9
  20599026.445    -3821380.223 7  -2934448.446 9
  20963885.438   -10698521.511 7  -8257854.797 9
  23383087.992    10170547.660 5   7895795.904 9
  22056582.891    -8683180.141 7  -6662400.814 9
 94  3  1 21 12 30.0000000  0  7  2 16 18 19 27 29 31
  22801595.422    -8570800.835 6  -6545880.504 9
  23808086.039    -2290332.844 5   -813434.119 8
  21045536.477     2950074.354 7   2320207.155 9
  20599824.219    -3817189.862 7  -2931183.223 9
  20955727.125   -10741395.076 7  -8291262.739 9
  23401854.570    10269165.267 5   7972640.626 9
  22056162.281    -8685387.045 7  -6664120.461 9
 94  3  1 21 13  0.0000000  0  7  2 16 18 19 27 29 31
  22787122.391    -8646859.649 6  -6605147.055 9
  23801747.125    -2323646.165 5   -839392.538 9
  21058183.086     3016532.827 7   2371992.961 9
  20600678.008    -3812701.587 7  -2927685.864 9
  20947630.000   -10783945.488 7  -8324418.871 9
  23420693.430    10368154.793 5   8049775.184 9
  22055884.656    -8686849.340 7  -6665259.882 9
 94  3  1 21 13 30.0000000  0  7  2 16 18 19 27 29 31
  22772721.180    -8722539.839 6  -6664118.580 9
  23795537.406    -2356280.990 5   -864822.272 9
  21070935.109     3083544.591 7   2424209.897 9
  20601594.852    -3807883.628 7  -2923931.603 9
  20939600.289   -10826142.341 7  -8357299.500 9
  23439601.984    10467518.480 5   8127201.260 9
  22055750.773    -8687552.162 7  -6665807.512 9
 94  3  1 21 14  0.0000000  0  7  2 16 18 19 27 29 31
  22758387.172    -8797866.438 6  -6722814.572 9
  23789451.781    -2388259.596 5   -889740.585 6
  21083789.953     3151097.206 7   2476848.277 9
  20602573.258    -3802740.779 7  -2919924.177 9
  20931632.359   -10868012.975 7  -8389925.935 9
  23458573.836    10567219.196 5   8204889.970 9
  22055756.703    -8687519.741 7  -6665782.237 9
 94  3  1 21 14 30.0000000  0  7  2 16 18 19 27 29 31
  22744120.883    -8872837.920 6  -6781233.850 9
  23783493.602    -2419574.352 5   -914141.708 9
  21096749.023     3219198.849 7   2529914.463 9
  20603619.148    -3797245.011 7  -2915641.750 9
  20923728.039   -10909554.546 7  -8422295.962 9
  23477607.789    10667246.664 5   8282833.301 9
  22055903.156    -8686752.455 7  -6665184.341 9
 94  3  1 21 15  0.0000000  0  7  2 16 18 19 27 29 31
  22729919.383    -8947464.161 6  -6839384.108 9
  23777660.078    -2450227.650 5   -938027.335 8
  21109814.563     3287856.855 7   2583414.185 9
  20604734.844    -3791381.748 7  -2911072.963 9
  20915882.273   -10950781.484 7  -8454420.824 9
  23496702.758    10767585.167 5   8361018.990 9
  22056186.766    -8685261.143 7  -6664022.259 9
 94  3  1 21 15 30.0000000  0  7  2 16 18 19 27 29 31
  22715784.500    -9021740.769 6  -6897261.902 9
  23771947.742    -2480245.849 5   -961418.116 9
  21122984.930     3357066.057 7   2637343.415 9
  20605922.281    -3785142.643 7  -2906211.317 9
  20908093.688   -10991710.387 7  -8486313.445 9
  23515853.547    10868230.977 5   8439444.157 9
  22056607.367    -8683050.520 7  -6662299.674 9
 94  3  1 21 16  0.0000000  0  7  2 16 18 19 27 29 31
  22701719.008    -9095656.411 6  -6954858.440 9
  23766354.938    -2509635.872 5   -984319.410 9
  21136256.930     3426809.956 7   2691689.289 9
  20607178.961    -3778539.029 7  -2901065.638 9
  20900359.180   -11032357.495 7  -8517986.490 9
  23535067.648    10969196.225 5   8518118.225 9
  22057161.891    -8680138.950 7  -6660030.899 9
 94  3  1 21 16 30.0000000  0  7  2 16 18 19 27 29 31
  22687723.164    -9169204.851 6  -7012168.845 9
  23760883.906    -2538382.702 5  -1006719.499 9
  21149629.313     3497084.764 7   2746448.852 9
  20608503.680    -3771576.497 7  -2895640.290 9
  20892678.836   -11072716.491 7  -8549435.031 9
  23554345.688    11070501.896 5   8597057.589 9
  22057849.703    -8676523.148 7  -6657213.370 9
 94  3  1 21 17  0.0000000  0  7  2 16 18 19 27 29 31
  22673801.578    -9242366.531 6  -7069177.881 9
  23755537.742    -2566478.446 5  -1028612.241 9
  21163104.484     3567896.640 7   2801626.913 9
  20609896.188    -3764260.148 7  -2889939.232 9
  20885057.867   -11112765.203 7  -8580641.796 9
  23573692.766    11172174.003 5   8676282.454 9
  22058674.055    -8672187.484 7  -6653834.914 9
 94  3  1 21 17 30.0000000  0  7  2 16 18 19 27 29 31
  22659951.352    -9315151.365 6  -7125893.255 9
  23750311.359    -2593940.669 5  -1050011.347 9
  21176674.625     3639206.900 7   2857193.314 9
  20611349.758    -3756620.863 7  -2883986.526 9
  20877495.742   -11152503.904 7  -8611606.996 9
  23593106.773    11274190.492 5   8755775.675 9
  22059634.352    -8667142.789 7  -6649903.961 9
 94  3  1 21 18  0.0000000  0  7  2 16 18 19 27 29 31
  22646179.570    -9387520.631 6  -7182284.815 9
  23745214.625    -2620725.221 5  -1070882.393 9
  21190343.938     3711039.624 7   2913166.837 9
  20612868.555    -3748639.379 7  -2877767.180 9
  20870000.813   -11191888.899 7  -8642296.581 9
  23612587.422    11376560.041 5   8835543.979 9
  22060734.953    -8661360.710 7  -6645398.419 9
 94  3  1 21 18 30.0000000  0  7  2 16 18 19 27 29 31
  22632487.398    -9459471.996 6  -7238350.749 9
  23740245.211    -2646837.411 5  -1091229.507 9
  21204116.125     3783414.808 7   2969563.050 9
  20614454.516    -3740306.226 7  -2871273.801 9
  20862575.688   -11230910.796 7  -8672703.237 9
  23632131.438    11479257.856 5   8915568.103 9
  22061976.047    -8654837.340 6  -6640315.248 9
 94  3  1 21 19  0.0000000  0  7  2 16 18 19 27 29 31
  22618874.781    -9531005.672 6  -7294091.210 9
  23735401.414    -2672289.997 5  -1111062.680 7
  21217991.227     3856327.034 7   3026377.745 9
  20616105.625    -3731630.526 7  -2864513.508 9
  20855215.414   -11269589.821 7  -8702842.720 9
  23651730.719    11582253.546 5   8995824.307 9
  22063354.617    -8647589.553 6  -6634667.592 9
 94  3  1 21 19 30.0000000  0  7  2 16 18 19 27 29 31
  22605342.477    -9602116.071 6  -7349501.851 9
  23730688.922    -2697061.400 5  -1130365.043 9
  21231970.398     3929790.786 7   3083622.200 9
  20617823.797    -3722597.751 7  -2857474.971 9
  20847916.648   -11307944.783 7  -8732729.681 9
  23671381.195    11685527.076 5   9076297.026 9
  22064873.609    -8639611.857 6  -6628451.171 9
 94  3  1 21 20  0.0000000  0  7  2 16 18 19 27 29 31
  22591892.219    -9672798.715 6  -7404579.172 9
  23726106.242    -2721141.853 5  -1149129.020 9
  21246059.617     4003827.352 7   3141313.000 9
  20619612.148    -3713200.070 7  -2850152.097 9
  20840677.594   -11345984.537 7  -8762371.027 9
  23691089.609    11789091.726 5   9156996.613 9
  22066529.484    -8630908.814 6  -6621669.553 9
 94  3  1 21 20 30.0000000  0  7  2 16 18 19 27 29 31
  22578521.469    -9743064.110 6  -7459331.366 9
  23721652.383    -2744545.774 5  -1167365.805 8
  21260256.125     4078432.078 7   3199446.525 9
  20621467.984    -3703448.153 7  -2842553.206 9
  20833497.063   -11383720.500 7  -8791775.657 9
  23710855.281    11892962.049 5   9237934.374 9
  22068323.563    -8621481.351 6  -6614323.435 9
 94  3  1 21 21  0.0000000  0  7  2 16 18 19 27 29 31
  22565227.508    -9812923.151 6  -7513766.914 9
  23717327.539    -2767273.299 5  -1185075.540 9
  21274557.781     4153587.220 7   3258008.933 9
  20623387.461    -3693362.620 7  -2834694.340 9
  20826372.555   -11421159.620 7  -8820948.985 9
  23730682.977    11997159.584 5   9319127.103 9
  22070254.875    -8611329.569 6  -6606412.932 9
 94  3  1 21 21 30.0000000  0  7  2 16 18 19 27 29 31
  22552008.992    -9882386.594 6  -7567894.199 9
  23713127.820    -2789339.099 5  -1202269.652 9
  21288961.203     4229275.172 7   3316986.533 9
  20625369.023    -3682949.984 7  -2826580.607 9
  20819306.563   -11458292.560 7  -8849883.727 9
  23750577.523    12101703.213 5   9400589.539 9
  22072324.680    -8600454.570 6  -6597938.880 9
 94  3  1 21 22  0.0000000  0  7  2 16 18 19 27 29 31
  22538866.086    -9951454.678 6  -7621713.413 9
  23709050.406    -2810766.270 5  -1218966.114 9
  21303463.453     4305486.207 7   3376371.720 9
  20627409.766    -3672224.901 7  -2818223.394 9
  20812303.773   -11495089.498 7  -8878556.646 9
  23770540.992    12206607.877 5   9482333.254 9
  22074532.781    -8588851.916 6  -6588897.820 9
 94  3  1 21 22 30.0000000  0  7  2 16 18 19 27 29 31
  22525798.930   -10020122.512 6  -7675220.751 9
  23705096.961    -2831537.733 5  -1235151.638 9
  21318068.672     4382235.238 7   3436176.127 9
  20629514.422    -3661164.896 7  -2809605.205 9
  20805371.805   -11531519.006 7  -8906943.260 9
  23790574.484    12311879.796 5   9564363.157 9
  22076884.836    -8576489.788 6  -6579264.959 9
 94  3  1 21 23  0.0000000  0  7  2 16 18 19 27 29 31
  22512806.008   -10088400.827 6  -7728424.566 9
  23701271.133    -2851648.362 5  -1250822.231 9
  21332774.477     4459514.543 7   3496393.742 9
  20631685.273    -3649756.606 7  -2800715.623 9
  20798509.438   -11567580.258 7  -8935042.915 9
  23810670.617    12417495.327 5   9646660.811 9
  22079380.172    -8563377.236 6  -6569047.373 9
 94  3  1 21 23 30.0000000  0  7  2 16 18 19 27 29 31
  22499887.992   -10156286.146 6  -7781322.151 9
  23697570.023    -2871096.732 5  -1265976.786 9
  21347580.383     4537319.886 7   3557021.252 9
  20633926.453    -3637980.674 7  -2791539.572 9
  20791719.539   -11603259.656 7  -8962845.021 9
  23830828.031    12523420.385 4   9729199.666 9
  22082016.727    -8549522.505 6  -6558251.453 9
 94  3  1 21 24  0.0000000  0  7  2 16 18 19 27 29 31
  22487040.844   -10223798.209 6  -7833928.887 9
  23693995.805    -2889878.825 5  -1280612.147 9
  21362485.875     4615651.368 7   3618058.737 9
  20636239.500    -3625826.788 7  -2782069.007 9
  20785000.492   -11638568.491 7  -8990358.373 9
  23851037.078    12629625.631 4   9811956.847 9
  22084791.438    -8534939.356 6  -6546887.938 9
 94  3  1 21 24 30.0000000  0  7  2 16 18 19 27 29 31
  22474263.898   -10290939.286 6  -7886246.540 9
  23690550.906    -2907983.227 5  -1294719.465 9
  21377490.781     4694501.020 7   3679499.998 9
  20638626.977    -3613278.518 7  -2772291.142 9
  20778347.180   -11673530.956 7  -9017601.831 9
  23871301.320    12736103.124 5   9894926.146 9
  22087704.391    -8519633.121 6  -6534960.989 9
 94  3  1 21 25  0.0000000  0  7  2 16 18 19 27 29 31
  22461562.664   -10357684.575 6  -7938255.775 9
  23687234.711    -2925411.468 5  -1308299.880 9
  21392594.367     4773870.378 7   3741346.217 9
  20641091.930    -3600327.659 7  -2762199.571 9
  20771759.258   -11708150.832 7  -9044578.335 9
  23891617.086    12842868.438 5   9978119.744 9
  22090755.633    -8503600.710 6  -6522468.181 9
 94  3  1 21 25 30.0000000  0  7  2 16 18 19 27 29 31
  22448939.141   -10424020.022 6  -7989945.663 9
  23684048.125    -2942159.403 5  -1321350.193 9
  21407799.016     4853773.424 7   3803608.303 9
  20643630.539    -3586985.035 7  -2751802.717 9
  20765236.016   -11742431.390 7  -9071290.436 9
  23911991.734    12949939.613 4  10061551.665 9
  22093947.063    -8486828.773 6  -6509399.109 9
 94  3  1 21 26  0.0000000  0  7  2 16 18 19 27 29 31
  22436394.016   -10489944.060 6  -8041314.977 9
  23680990.773    -2958224.270 5  -1333868.226 9
  21423107.461     4934216.712 7   3866291.363 9
  20646243.063    -3573257.793 7  -2741106.163 9
  20758773.859   -11776390.924 7  -9097752.386 9
  23932429.508    13057334.064 4  10145235.492 9
  22097281.758    -8469303.300 6  -6495742.888 9
 94  3  1 21 26 30.0000000  0  7  2 16 18 19 27 29 31
  22423933.891   -10555422.140 6  -8092336.784 9
  23678063.414    -2973607.053 5  -1345854.777 9
  21438518.672     5015205.932 7   3929399.816 9
  20648927.891    -3559149.298 7  -2730112.521 9
  20752374.898   -11810018.092 7  -9123955.349 9
  23952929.359    13165067.017 3  10229183.081 9
  22100763.234    -8451005.395 6  -6481484.770 9
 94  3  1 21 27  0.0000000  0  7  2 16 18 19 27 29 31
  22411559.484   -10620449.249 6  -8143007.196 9
  23675268.305    -2988291.521 5  -1357297.202 9
  21454035.688     5096746.356 7   3992937.779 9
  20651685.312    -3544658.812 7  -2718821.236 9
  20746042.055   -11843297.741 7  -9149887.519 9
  23973494.281    13273141.056 3  10313396.459 7
  22104393.719    -8431931.480 6  -6466621.969 9
 94  3  1 21 27 30.0000000  0  7  2 16 18 19 27 29 31
  22399271.391   -10685026.024 6  -8193326.690 9
  23672611.156    -3002257.857 5  -1368180.046 9
  21469658.438     5178843.760 7   4056909.753 9
  20654516.836    -3529777.589 7  -2707225.475 9
  20739777.242   -11876218.236 7  -9175539.824 9
  23994123.914    13381555.521 3  10397875.096 8
  22108169.859    -8412086.490 6  -6451158.323 9
 94  3  1 21 28  0.0000000  0  7  2 16 18 19 27 29 31
  22387069.180   -10749145.999 6  -8243290.240 9
  23670089.617    -3015512.818 5  -1378508.567 9
  21485386.680     5261493.819 7   4121312.367 9
  20657426.141    -3514489.529 7  -2695312.690 9
  20733585.594   -11908755.270 7  -9200893.332 9
  24014822.938    13490314.353 3  10482622.086 7
  22112092.750    -8391469.476 6  -6435093.094 9
 94  3  1 21 28 30.0000000  0  7  2 16 18 19 27 29 31
  22374952.789   -10812815.592 6  -8292902.848 9
  23667698.578    -3028073.243 5  -1388295.927 9
  21501216.070     5344680.979 7   4186133.501 9
  20660409.133    -3498814.707 7  -2683098.533 9
  20727466.164   -11940914.590 7  -9225952.521 9
  24035582.648    13599403.576 4  10567626.438 9
  22116159.570    -8370096.186 6  -6418438.574 9
 94  3  1 21 29  0.0000000  0  7  2 16 18 19 27 29 31
  22362922.711   -10876036.799 6  -8342166.061 9
  23665442.984    -3039926.558 5  -1397532.237 9
  21517150.102     5428416.307 7   4251381.775 9
  20663465.320    -3482754.969 7  -2670584.440 9
  20721419.906   -11972687.585 7  -9250710.671 9
  24056405.508    13708822.616 5  10652887.848 8
  22120370.203    -8347972.359 6  -6401199.218 9
 94  3  1 21 29 30.0000000  0  7  2 16 18 19 27 29 31
  22350977.867   -10938808.607 6  -8391079.096 9
  23663318.828    -3051092.890 5  -1406233.230 9
  21533190.398     5512704.317 7   4317060.712 9
  20666591.828    -3466325.760 7  -2657782.446 9
  20715448.180   -12004067.917 7  -9275162.847 9
  24077287.547    13818564.546 5  10738400.878 9
  22124722.469    -8325102.158 6  -6383378.266 9
 94  3  1 21 30  0.0000000  0  7  2 16 18 19 27 29 31
  22339117.672   -11001134.099 6  -8439644.355 9
  23661324.688    -3061567.575 5  -1414395.281 9
  21549333.953     5597540.416 7   4383166.722 9
  20669785.289    -3449540.973 7  -2644703.383 9
  20709551.266   -12035055.764 7  -9299309.190 9
  24098231.789    13928624.435 5  10824161.646 8
  22129219.352    -8301470.328 6  -6364963.830 9
 94  3  1 21 30 30.0000000  0  6  2 16 18 19 27 31
  22327343.617   -11063007.683 6  -8487857.485 9
  23659467.609    -3071331.644 5  -1422003.619 9
  21565582.109     5682925.595 7   4449700.592 9
  20673047.102    -3432403.363 7  -2631349.395 9
  20703727.469   -12065659.939 7  -9323156.580 9
  22133860.539    -8277081.317 6  -6345959.395 9
 94  3  1 21 31  0.0000000  0  6  2 16 18 19 27 31
  22315656.516   -11124424.415 6  -8535714.629 9
  23657749.398    -3080360.145 5  -1429038.781 9
  21581936.875     5768870.740 7   4516670.807 9
  20676381.367    -3414880.323 7  -2617695.076 9
  20697982.117   -12095851.691 7  -9346682.584 9
  22138647.898    -8251920.430 6  -6326353.504 9
 94  3  1 21 31 30.0000000  0  6  2 16 18 19 27 31
  22304058.734   -11185371.779 6  -8583206.023 9
  23656173.195    -3088638.454 5  -1435489.388 9
  21598397.984     5855375.348 7   4584076.956 9
  20679794.062    -3396944.950 7  -2603719.460 9
  20692318.727   -12125615.909 7  -9369875.460 9
  22143587.852    -8225962.967 6  -6306126.906 9
 94  3  1 21 32  0.0000000  0  6  2 16 18 19 27 31
  22292550.750   -11245842.939 6  -8630326.356 9
  23654743.195    -3096155.267 5  -1441346.660 9
  21614964.211     5942428.963 7   4651910.912 9
  20683291.320    -3378569.001 7  -2589400.532 9
  20686734.063   -12154960.971 7  -9392741.715 9
  22148680.898    -8199199.802 6  -6285272.493 9
 94  3  1 21 32 30.0000000  0  6  2 16 18 19 27 31
  22281133.719   -11305840.595 6  -8677077.719 9
  23653453.141    -3102936.035 5  -1446630.350 9
  21631632.984     6030023.089 7   4720166.041 9
  20686873.148    -3359745.958 7  -2574733.218 9
  20681227.750   -12183895.907 7  -9415288.389 9
  22153924.070    -8171646.528 6  -6263802.411 9
 94  3  1 21 33  0.0000000  0  6  2 16 18 19 27 31
  22269805.008   -11365371.798 6  -8723465.617 9
  23652300.648    -3108991.492 5  -1451348.864 9
  21648402.086     6118145.693 7   4788832.972 9
  20690539.641    -3340476.821 7  -2559718.297 9
  20675799.430   -12212423.827 7  -9437517.922 9
  22159319.516    -8143291.461 6  -6241707.568 9
 94  3  1 21 33 30.0000000  0  6  2 16 18 19 27 31
  22258570.484   -11424409.142 6  -8769468.693 9
  23651286.148    -3114321.667 5  -1455502.227 9
  21665275.664     6206818.288 7   4857928.467 9
  20694291.602    -3320760.526 7  -2544354.934 9
  20670447.594   -12240547.817 7  -9459432.699 9
  22164868.773    -8114129.558 6  -6218984.018 9
 94  3  1 21 34  0.0000000  0  6  2 16 18 19 27 31
  22247430.203   -11482952.162 6  -8815086.576 9
  23650408.234    -3118931.104 5  -1459093.967 9
  21682256.398     6296051.491 7   4927460.801 9
  20698128.336    -3300598.073 7  -2528643.930 9
  20665170.273   -12268278.950 7  -9481041.350 9
  22170571.242    -8084165.493 6  -6195635.420 9
 94  3  1 21 34 30.0000000  0  6  2 16 18 19 27 31
  22236385.109   -11540996.359 6  -8860315.766 9
  23649670.773    -3122813.830 5  -1462119.409 9
  21699347.336     6385864.757 7   4997445.115 9
  20702047.563    -3280000.049 7  -2512593.529 9
  20659969.969   -12295607.872 7  -9502336.600 9
  22176426.383    -8053397.667 6  -6171660.510 9
 94  3  1 21 35  0.0000000  0  6  2 16 18 19 27 31
  22225432.633   -11598551.998 6  -8905164.265 9
  23649071.250    -3125960.186 5  -1464571.094 9
  21716549.422     6476262.795 7   5067885.099 9
  20706049.320    -3258971.913 7  -2496207.968 9
  20654846.406   -12322534.416 7  -9523318.296 9
  22182432.000    -8021837.083 6  -6147067.869 9
 94  3  1 21 35 30.0000000  0  6  2 16 18 19 27 31
  22214570.195   -11655632.193 6  -8949642.277 9
  23648612.156    -3128376.555 5  -1466453.955 9
  21733864.984     6567258.196 7   5138790.568 9
  20710131.891    -3237516.444 7  -2479489.428 9
  20649797.086   -12349065.940 7  -9543992.194 9
  22188584.859    -7989501.289 6  -6121871.170 9
 94  3  1 21 36  0.0000000  0  6  2 16 18 19 27 31
  22203796.227   -11712249.661 6  -8993759.731 9
  23648292.109    -3130055.104 5  -1467761.905 9
  21751293.102     6658841.682 7   5210154.284 9
  20714296.227    -3215636.639 7  -2462440.232 9
  20644824.617   -12375196.022 7  -9564353.284 9
  22194888.539    -7956377.252 6  -6096060.263 9
 94  3  1 21 36 30.0000000  0  6  2 16 18 19 27 31
  22193109.195   -11768412.191 6  -9037522.684 9
  23648112.523    -3130998.183 5  -1468496.756 9
  21768830.250     6751000.530 7   5281966.346 9
  20718537.688    -3193344.221 7  -2445069.519 9
  20639930.891   -12400912.862 7  -9584392.369 9
  22201339.469    -7922478.404 6  -6069645.597 9
 94  3  1 21 37  0.0000000  0  6  2 16 18 19 27 31
  22182507.508   -11824125.666 7  -9080935.712 9
  23648071.742    -3131214.295 5  -1468665.133 9
  21786473.680     6843719.207 7   5354214.633 9
  20722857.789    -3170644.817 7  -2427381.681 9
  20635117.023   -12426209.356 7  -9604103.911 9
  22207936.250    -7887812.691 6  -6042633.369 9
 94  3  1 21 37 30.0000000  0  6  2 16 18 19 27 31
  22171996.195   -11879362.404 6  -9123977.276 9
  23648167.063    -3130710.158 5  -1468272.278 9
  21804222.875     6936987.418 7   5426891.128 9
  20727253.570    -3147544.015 7  -2409381.062 9
  20630383.969   -12451083.233 7  -9623486.132 9
  22214680.820    -7852369.118 6  -6015015.031 9
 94  3  1 21 38  0.0000000  0  6  2 16 18 19 27 31
  22161576.398   -11934117.676 6  -9166643.668 9
  23648398.734    -3129492.649 5  -1467323.551 9
  21822068.578     7030767.766 7   5499966.688 9
  20731725.117    -3124045.317 7  -2391070.391 9
  20625732.172   -12475527.371 7  -9642533.499 9
  22221571.891    -7816154.957 6  -5986796.217 9
 94  3  1 21 38 30.0000000  0  6  2 16 18 19 27 31
  22151251.039   -11988377.322 6  -9208923.860 9
  23648768.133    -3127552.798 5  -1465811.951 7
  21840010.719     7125054.976 7   5573437.203 9
  20736275.039    -3100135.406 7  -2372439.299 9
  20621166.094   -12499521.796 7  -9661230.439 9
  22228611.313    -7779164.088 6  -5957972.177 9
 94  3  1 21 39  0.0000000  0  6  2 16 18 19 27 31
  22141018.063   -12042153.488 7  -9250827.314 9
  23649271.773    -3124905.804 5  -1463749.347 8
  21858042.984     7219816.657 7   5647277.444 9
  20740899.484    -3075833.415 7  -2353502.683 9
  20616681.664   -12523090.937 7  -9679596.006 9
  22235797.063    -7741404.482 7  -5928549.118 9
 94  3  1 21 39 30.0000000  0  6  2 16 18 19 27 31
  22130877.352   -12095442.121 7  -9292350.866 9
  23649911.523    -3121542.315 5  -1461128.429 9
  21876165.016     7315046.251 7   5721482.281 9
  20745601.945    -3051123.155 7  -2334247.952 9
  20612278.766   -12546228.601 7  -9697625.339 9
  22243129.734    -7702868.512 6  -5898521.092 9
 94  3  1 21 40  0.0000000  0  6  2 16 18 19 27 31
  22120822.836   -12148278.769 6  -9333522.232 9
  23650687.016    -3117466.814 5  -1457952.694 9
  21894373.938     7410734.574 7   5796044.572 9
  20750382.727    -3025998.761 7  -2314670.504 9
  20607956.719   -12568941.853 7  -9715323.966 9
  22250606.711    -7663575.142 6  -5867902.890 9
 94  3  1 21 40 30.0000000  0  6  2 16 18 19 27 31
  22110852.969   -12200669.383 6  -9374346.035 9
  23651597.859    -3112684.584 5  -1454226.305 9
  21912675.383     7506910.903 7   5870987.128 9
  20755242.266    -3000463.600 7  -2294772.982 9
  20603713.000   -12591240.246 7  -9732699.330 9
  22258228.336    -7623524.495 7  -5836694.594 9
 94  3  1 21 41  0.0000000  0  6  2 16 18 19 27 31
  22100967.086   -12252620.755 6  -9414827.575 9
  23652640.273    -3107206.700 5  -1449957.807 9
  21931073.195     7603591.103 7   5946322.307 9
  20760179.844    -2974516.438 7  -2274554.413 9
  20599545.750   -12613137.995 7  -9749762.505 9
  22265991.961    -7582726.815 6  -5804904.190 9
 94  3  1 21 41 30.0000000  0  6  2 16 18 19 27 31
  22091162.563   -12304142.115 6  -9454974.040 9
  23653813.992    -3101040.895 5  -1445153.274 9
  21949571.336     7700798.652 7   6022068.407 9
  20765197.336    -2948146.893 7  -2254006.718 9
  20595454.156   -12634639.277 7  -9766516.738 9
  22273896.672    -7541187.537 6  -5772535.919 9
 94  3  1 21 42  0.0000000  0  6  2 16 18 19 27 31
  22081439.563   -12355238.320 7  -9494789.214 9
  23655115.805    -3094191.406 5  -1439816.003 9
  21968170.016     7798535.611 7   6098227.037 9
  20770291.961    -2921376.651 7  -2233146.787 9
  20591434.914   -12655760.036 7  -9782974.456 9
  22281942.266    -7498908.023 7  -5739590.837 9
 94  3  1 21 42 30.0000000  0  6  2 16 18 19 27 31
  22071798.305   -12405905.668 7  -9534270.220 9
  23656549.023    -3086661.154 5  -1433948.235 9
  21986868.375     7896795.589 7   6174793.216 9
  20775459.094    -2894224.486 7  -2211989.263 9
  20587488.969   -12676498.698 7  -9799134.435 9
  22290129.211    -7455884.356 6  -5706065.892 9
 94  3  1 21 43  0.0000000  0  6  2 16 18 19 27 31
  22062236.945   -12456151.822 7  -9573423.013 9
  23658111.219    -3078456.064 5  -1427554.651 9
  22005659.727     7995543.847 7   6251739.867 9
  20780696.266    -2866700.564 7  -2190542.059 9
  20583613.688   -12696862.743 7  -9815002.505 9
  22298455.672    -7412127.279 6  -5671969.469 9
 94  3  1 21 43 30.0000000  0  6  2 16 18 19 27 31
  22052753.484   -12505983.353 7  -9612252.732 9
  23659799.570    -3069582.403 5  -1420640.068 9
  22024538.844     8094753.820 7   6329046.298 9
  20786002.930    -2838813.091 7  -2168811.562 9
  20579808.047   -12716861.594 7  -9830586.005 9
  22306920.172    -7367645.567 6  -5637308.390 9
 94  3  1 21 44  0.0000000  0  6  2 16 18 19 27 31
  22043348.883   -12555403.625 7  -9650761.985 9
  23661613.992    -3060045.939 5  -1413209.064 9
  22043500.375     8194398.620 7   6406691.553 9
  20791375.734    -2810580.034 7  -2146811.777 9
  20576070.617   -12736501.059 7  -9845889.465 9
  22315520.367    -7322453.643 6  -5602093.895 9
 94  3  1 21 44 30.0000000  0  6  2 16 18 19 27 31
  22034023.188   -12604411.161 7  -9688949.629 9
  23663554.078    -3049857.802 5  -1405270.242 9
  22062543.727     8294473.543 7   6484671.975 9
  20796815.922    -2781994.048 7  -2124536.989 9
  20572399.828   -12755789.880 7  -9860919.694 9
  22324253.430    -7276560.953 6  -5566333.363 9
 94  3  1 21 45  0.0000000  0  6  2 16 18 19 27 31
  22024774.336   -12653013.150 7  -9726821.262 9
  23665611.867    -3039038.984 5  -1396839.989 9
  22081667.758     8394971.034 7   6562981.671 9
  20802320.914    -2753064.448 7  -2101994.446 9
  20568791.805   -12774752.266 7  -9875695.562 9
  22333115.461    -7229989.552 6  -5530043.971 9
 94  3  1 21 45 30.0000000  0  6  2 16 18 19 27 31
  22015605.242   -12701199.275 7  -9764368.853 9
  23667792.406    -3027582.843 5  -1387913.121 9
  22100874.836     8495903.574 7   6641630.361 9
  20807892.438    -2723784.718 7  -2079179.069 9
  20565246.758   -12793381.703 7  -9890211.990 9
  22342108.070    -7182733.643 6  -5493221.189 9
 94  3  1 21 46  0.0000000  0  6  2 16 18 19 27 31
  22006516.078   -12748963.509 7  -9801587.691 9
  23670094.297    -3015484.900 5  -1378486.138 9
  22120166.750     8597283.752 7   6720627.858 9
  20813530.469    -2694156.517 7  -2056092.158 9
  20561767.484   -12811665.170 7  -9904458.829 9
  22351231.055    -7134793.165 6  -5455864.981 9
 94  3  1 21 46 30.0000000  0  6  2 16 18 19 27 31
  21997508.328   -12796297.844 7  -9838471.545 9
  23672517.688    -3002746.064 5  -1368559.771 9
  22139545.945     8699120.642 7   6799981.245 9
  20819238.125    -2664161.985 7  -2032719.793 9
  20558355.789   -12829592.255 7  -9918427.972 9
  22360482.945    -7086171.893 6  -5417978.282 9
 94  3  1 21 47  0.0000000  0  6  2 16 18 19 27 31
  21988578.867   -12843222.553 7  -9875036.215 9
  23675062.320    -2989373.847 5  -1358139.882 9
  22159008.891     8801399.241 7   6879678.808 9
  20825014.500    -2633808.951 7  -2009068.074 9
  20555013.219   -12847157.341 7  -9932115.025 9
  22369861.859    -7036882.411 6  -5379570.904 9
 94  3  1 21 47 30.0000000  0  6  2 16 18 19 27 31
  21979726.898   -12889740.790 7  -9911284.155 9
  23677731.664    -2975345.946 5  -1347209.072 8
  22178554.047     8904107.836 7   6959711.437 9
  20830860.953    -2603083.528 7  -1985126.177 9
  20551743.203   -12864343.585 7  -9945506.878 9
  22379369.023    -6986924.065 6  -5340642.342 9
 94  3  1 21 48  0.0000000  0  6  2 16 18 19 27 31
  21970950.766   -12935856.054 7  -9947218.088 9
  23680524.102    -2960671.376 5  -1335774.325 9
  22198177.812     9007231.832 7   7040067.761 9
  20836776.953    -2571996.189 7  -1960902.268 9
  20548542.945   -12881160.308 7  -9958610.800 9
  22389000.672    -6936310.480 6  -5301203.199 9
 94  3  1 21 48 30.0000000  0  6  2 16 18 19 27 31
  21962248.828   -12981586.299 7  -9982852.008 9
  23683438.422    -2945359.258 5  -1323842.797 9
  22217875.180     9110739.382 7   7120722.948 9
  20842758.555    -2540562.040 7  -1936408.115 9
  20545408.828   -12897631.161 7  -9971445.214 9
  22398756.656    -6885042.242 6  -5261253.935 9
 94  3  1 21 49  0.0000000  0  6  2 16 18 19 27 31
  21953617.734   -13026947.615 7 -10018198.452 9
  23686471.789    -2929415.743 5  -1311419.259 9
  22237639.859     9214605.798 7   7201657.764 9
  20848802.039    -2508803.671 7  -1911661.336 9
  20542337.586   -12913771.892 7  -9984022.393 9
  22408637.422    -6833118.970 6  -5220794.262 9
 94  3  1 21 49 30.0000000  0  6  2 16 18 19 27 31
  21945056.758   -13071933.879 7 -10053252.627 9
  23689625.203    -2912852.242 5  -1298512.602 9
  22257472.773     9318829.774 7   7282871.196 9
  20854904.398    -2476736.561 7  -1886673.971 9
  20539325.656   -12929597.987 7  -9996354.399 9
  22418642.844    -6780542.447 6  -5179825.557 9
 94  3  1 21 50  0.0000000  0  6  2 16 18 19 27 31
  21936568.102   -13116540.668 7 -10088011.125 9
  23692889.375    -2895695.272 5  -1285143.523 9
  22277375.000     9423416.547 6   7364367.329 9
  20861064.750    -2444362.887 7  -1861447.736 9
  20536373.969   -12945106.824 7 -10008439.187 9
  22428775.359    -6727294.917 6  -5138333.988 9
 94  3  1 21 50 30.0000000  0  6  2 16 18 19 27 31
  21928147.602   -13160790.831 7 -10122491.724 9
  23696263.422    -2877965.608 5  -1271328.214 9
  22297345.344     9528360.749 6   7446141.984 9
  20867284.477    -2411676.486 7  -1835977.804 9
  20533481.445   -12960306.559 7 -10020283.120 9
  22439034.477    -6673378.244 6  -5096321.012 9
 94  3  1 21 51  0.0000000  0  6  2 16 18 19 27 31
  21919796.250   -13204677.932 7 -10156689.417 9
  23699742.539    -2859679.028 5  -1257078.918 9
  22317386.867     9633681.744 6   7528210.234 9
  20873565.602    -2378668.671 7  -1810257.415 9
  20530649.320   -12975191.033 7 -10031881.394 9
  22449419.445    -6618807.597 6  -5053798.466 9
 94  3  1 21 51 30.0000000  0  6  2 16 18 19 27 31
  21911514.281   -13248200.770 7 -10190603.274 9
  23703326.641    -2840842.987 5  -1242401.483 9
  22337500.805     9739380.493 6   7610572.857 9
  20879909.742    -2345331.510 7  -1784280.397 9
  20527877.016   -12989760.209 7 -10043233.981 9
  22459926.461    -6563596.633 6  -5010776.964 9
 94  3  1 21 52  0.0000000  0  6  2 16 18 19 27 31
  21903299.750   -13291365.637 7 -10224238.184 9
  23707018.617    -2821446.859 5  -1227287.649 9
  22357686.125     9845450.415 6   7693224.683 9
  20886319.508    -2311646.601 7  -1758032.417 9
  20525166.305   -13004004.511 7 -10054333.427 9
  22470552.898    -6507755.945 6  -4967264.753 9
 94  3  1 21 52 30.0000000  0  6  2 16 18 19 27 31
  21895155.641   -13334164.155 7 -10257587.627 9
  23710819.422    -2801468.104 5  -1211719.773 9
  22377943.250     9951902.427 7   7776174.253 9
  20892795.125    -2277617.241 7  -1731516.032 9
  20522516.359   -13017928.469 7 -10065183.255 9
  22481295.375    -6451301.263 6  -4923274.112 9
 94  3  1 21 53  0.0000000  0  6  2 16 18 19 27 31
  21887079.625   -13376602.253 7 -10290656.222 9
  23714733.898    -2780899.160 5  -1195692.024 9
  22398270.648    10058722.956 6   7859410.968 9
  20899330.852    -2243271.500 7  -1704753.117 9
  20519928.711   -13031529.089 7 -10075781.120 9
  22492150.320    -6394256.581 6  -4878823.736 9
 94  3  1 21 53 30.0000000  0  6  2 16 18 19 27 31
  21879072.523   -13418679.049 7 -10323443.286 9
  23718765.055    -2759717.131 5  -1179186.533 9
  22418665.070    10165901.392 6   7942926.586 9
  20905926.438    -2208609.611 7  -1677743.849 9
  20517405.203   -13044789.405 7 -10086113.825 9
  22503118.414    -6336619.681 6  -4833911.885 9
 94  3  1 21 54  0.0000000  0  6  2 16 18 19 27 31
  21871131.477   -13460406.337 7 -10355958.011 9
  23722912.000    -2737926.872 5  -1162207.125 9
  22439127.727    10273433.600 6   8026717.872 9
  20912579.297    -2173650.789 7  -1650503.212 9
  20514946.977   -13057709.436 7 -10096181.367 9
  22514198.438    -6278390.764 6  -4788538.724 9
 94  3  1 21 54 30.0000000  0  6  2 16 18 19 27 31
  21863257.672   -13501783.416 7 -10388199.850 9
  23727172.906    -2715535.280 5  -1144759.146 9
  22459658.773    10381323.087 6   8110787.553 9
  20919284.906    -2138413.549 7  -1623045.627 9
  20512553.336   -13070287.046 7 -10105982.086 9
  22525394.445    -6219559.941 6  -4742696.549 9
 94  3  1 21 55  0.0000000  0  6  2 16 18 19 27 31
  21855448.828   -13542823.595 7 -10420179.170 9
  23731544.391    -2692563.632 5  -1126859.175 9
  22480253.539    10489547.731 6   8195118.386 9
  20926041.703    -2102904.893 7  -1595376.553 9
  20510225.562   -13082517.974 7 -10115512.673 9
  22536704.500    -6160124.056 6  -4696382.901 9
 94  3  1 21 55 30.0000000  0  6  2 16 18 19 27 31
  21847706.656   -13583507.916 7 -10451881.185 9
  23736023.438    -2669018.896 5  -1108512.639 9
  22500913.859    10598119.277 6   8279719.537 9
  20932852.266    -2067117.005 7  -1567489.894 9
  20507962.297   -13094412.393 7 -10124781.043 9
  22548133.719    -6100062.634 6  -4649581.812 9
 94  3  1 21 56  0.0000000  0  6  2 16 18 19 27 31
  21840033.742   -13623829.987 7 -10483300.930 9
  23740607.758    -2644928.835 5  -1089741.137 9
  22521640.094    10707032.582 6   8364586.988 9
  20939714.000    -2031056.519 7  -1539390.824 9
  20505759.531   -13105989.238 7 -10133801.954 9
  22559684.242    -6039362.216 6  -4602282.814 9
 94  3  1 21 56 30.0000000  0  6  2 16 18 19 27 31
  21832431.070   -13663780.824 7 -10514431.405 9
  23745298.453    -2620280.762 5  -1070534.857 9
  22542432.438    10816298.316 6   8449729.067 9
  20946630.688    -1994710.383 7  -1511069.161 9
  20503617.141   -13117247.237 7 -10142574.414 9
  22571356.984    -5978025.347 6  -4554487.886 9
 94  3  1 21 57  0.0000000  0  6  2 16 18 19 27 31
  21824889.289   -13703414.424 7 -10545314.678 9
  23750084.047    -2595128.345 5  -1050935.572 9
  22563281.070    10925858.642 6   8535100.668 9
  20953593.430    -1958120.022 7  -1482557.211 9
  20501522.961   -13128252.519 7 -10151149.950 9
  22583137.789    -5916113.596 6  -4506244.985 9
 94  3  1 21 57 30.0000000  0  6  2 16 18 19 27 31
  21817409.086   -13742720.745 7 -10575942.934 9
  23754969.484    -2569458.484 5  -1030933.069 9
  22584188.859    11035730.314 6   8620714.888 9
  20960607.805    -1921260.310 7  -1453835.365 9
  20499477.375   -13139002.155 7 -10159526.273 9
  22595028.102    -5853629.795 6  -4457556.329 9
 94  3  1 21 58  0.0000000  0  6  2 16 18 19 27 31
  21809990.367   -13781707.335 7 -10606322.049 9
  23759959.195    -2543243.285 5  -1010505.660 9
  22605157.172    11145920.708 6   8706577.467 9
  20967681.125    -1884090.448 7  -1424871.846 9
  20497487.484   -13149458.014 7 -10167673.686 9
  22607027.516    -5790571.326 6  -4408419.889 9
 94  3  1 21 58 30.0000000  0  6  2 16 18 19 27 31
  21802625.414   -13820411.133 7 -10636480.806 9
  23765049.766    -2516487.921 5   -989657.330 9
  22626181.813    11256406.895 6   8792670.545 9
  20974810.906    -1846618.115 7  -1395672.638 9
  20495552.688   -13159626.757 7 -10175597.382 9
  22619127.711    -5726980.402 6  -4358868.548 9
 94  3  1 21 59  0.0000000  0  6  2 16 18 19 27 31
  21795316.578   -13858820.080 7 -10666409.805 9
  23770242.969    -2489201.206 5   -968394.988 9
  22647259.930    11367171.426 6   8878980.517 9
  20982003.273    -1808824.479 7  -1366223.054 9
  20493675.461   -13169490.623 7 -10183283.504 9
  22631332.758    -5662847.037 6  -4308894.517 9
 94  3  1 21 59 30.0000000  0  6  2 16 18 19 27 31
  21788067.109   -13896915.071 7 -10696094.174 9
  23775537.125    -2461385.999 5   -946720.820 9
  22668389.289    11478205.902 6   8965500.815 9
  20989256.281    -1770714.414 7  -1336526.909 9
  20491859.516   -13179032.370 7 -10190718.627 9
  22643640.156    -5598176.498 6  -4258501.904 9
 94  3  1 22  0  0.0000000  0  6  2 16 18 19 27 31
  21780882.523   -13934669.979 7 -10725513.538 9
  23780932.211    -2433027.729 5   -924623.481 9
  22689570.281    11589509.566 6   9052230.871 9
  20996567.078    -1732293.385 7  -1306588.459 9
  20490108.242   -13188236.218 7 -10197890.454 9
  22656052.195    -5532946.224 6  -4207673.135 9
 94  3  1 22  0 30.0000000  0  6  2 16 18 19 27 31
  21773768.648   -13972051.896 7 -10754642.265 9
  23786430.414    -2404137.198 5   -902111.390 9
  22710801.875    11701085.666 6   9139173.216 9
  21003933.188    -1693581.639 7  -1276423.472 9
  20488417.445   -13197119.087 7 -10204812.160 9
  22668573.266    -5467145.120 6  -4156399.582 9
 94  3  1 22  1  0.0000000  0  6  2 16 18 19 27 31
  21766727.766   -14009050.787 7 -10783472.534 9
  23792026.953    -2374726.789 5   -879194.220 9
  22732085.500    11812933.039 6   9226326.946 9
  21011351.609    -1654601.151 7  -1246049.071 9
  20486783.961   -13205704.078 7 -10211501.758 9
  22681203.078    -5400776.297 6  -4104683.632 9
 94  3  1 22  1 30.0000000  0  6  2 16 18 19 27 31
  21759755.734   -14045689.119 7 -10812021.844 9
  23797722.422    -2344793.698 5   -855869.762 9
  22753422.852    11925059.884 6   9313698.440 9
  21018816.367    -1615371.313 7  -1215480.373 9
  20485203.906   -13214006.010 7 -10217970.797 9
  22693940.648    -5333840.595 6  -4052525.956 9
 94  3  1 22  2  0.0000000  0  6  2 16 18 19 27 31
  21752846.016   -14082000.524 7 -10840316.416 9
  23803517.070    -2314338.625 5   -832138.536 9
  22774813.734    12037469.801 6   9401290.514 9
  21026329.133    -1575892.439 7  -1184717.620 9
  20483677.578   -13222027.431 7 -10224221.243 9
  22706787.922    -5266328.471 6  -3999919.135 9
 94  3  1 22  2 30.0000000  0  7  2 16 18 19  7 27 31
  21745990.609   -14118026.058 7 -10868388.224 9
  23809406.844    -2283381.671 4   -808016.249 9
  22796257.758    12150156.586 6   9489098.317 9
  21033887.320    -1536171.386 7  -1153766.164 9
  24333576.734      -15906.84713
  20482202.555   -13229778.551 7 -10230261.068 9
  22719739.523    -5198269.736 6  -3946886.396 9
 94  3  1 22  3  0.0000000  0  7  2 16 18 19  7 27 31
  21739183.391   -14153797.388 7 -10896261.951 9
  23815394.266    -2251922.892 5   -783502.924 9
  22817750.422    12263100.867 6   9577106.753 9
  21041492.578    -1496206.628 7  -1122624.805 9
  24315417.180     -111334.772 4
  20480781.625   -13237248.051 7 -10236081.451 9
  22732792.102    -5129675.715 6  -3893436.530 9
 94  3  1 22  3 30.0000000  0  7  2 16 18 19  7 27 31
  21732426.758   -14189301.497 7 -10923927.448 9
  23821478.023    -2219957.014 5   -758594.450 9
  22839294.156    12376314.894 6   9665325.392 9
  21049148.102    -1455977.390 7  -1091277.357 9
  24297270.039     -206697.362 4
  20479419.641   -13244404.520 7 -10241657.904 9
  22745951.172    -5060525.023 6  -3839552.907 9
 94  3  1 22  4  0.0000000  0  7  2 16 18 19  7 27 31
  21725721.313   -14224537.352 7 -10951383.936 9
  23827651.109    -2187517.584 5   -733317.004 9
  22860885.734    12489777.331 6   9753737.594 9
  21056851.398    -1415496.964 7  -1059734.180 9
  24279134.273     -301998.869 4
  20478114.422   -13251260.992 7 -10247000.601 9
  22759209.477    -4990852.961 6  -3785263.021 9
 94  3  1 22  4 30.0000000  0  7  2 16 18 19  7 27 31
  21719073.148   -14259478.020 7 -10978610.398 9
  23833915.172    -2154601.997 5   -707668.519 9
  22882523.227    12603482.915 6   9842339.260 9
  21064604.414    -1374754.127 7  -1027986.528 9
  24261012.461     -397233.900 4    -69257.84719
  20476864.695   -13257830.447 7 -10252119.651 9
  22772565.586    -4920669.215 6  -3730574.436 9
 94  3  1 22  5  0.0000000  0  7  2 16 18 19  7 27 31
  21712484.023   -14294105.556 7 -11005592.853 9
  23840268.742    -2121217.580 5   -681654.706 8
  22904205.914    12717424.047 6   9931124.488 9
  21072408.102    -1333744.879 7   -996031.275 9
  24242898.937     -492424.943 5   -143432.325 8
  20475666.789   -13264126.677 7 -10257025.783 9
  22786018.617    -4849969.350 6  -3675483.687 9
 94  3  1 22  5 30.0000000  0  7  2 16 18 19  7 27 31
  21705953.867   -14328419.284 7 -11032330.783 9
  23846708.477    -2087370.684 5   -655280.543 9
  22925935.438    12831611.363 6  10020101.541 9
  21080261.648    -1292473.973 7   -963872.136 9
  24224791.289     -587582.904 5   -217581.040 8
  20474519.000   -13270159.257 7 -10261726.479 9
  22799568.727    -4778765.575 6  -3620000.269 9
 94  3  1 22  6  0.0000000  0  7  2 16 18 19  7 27 31
  21699482.844   -14362426.236 7 -11058829.671 9
  23853241.055    -2053038.360 5   -628528.127 9
  22947711.055    12946042.066 6  10109268.249 9
  21088168.625    -1250924.359 7   -931495.825 9
  24206690.539     -682704.001 5   -291701.016 8
  20473422.070   -13275924.770 7 -10266219.081 9
  22813211.883    -4707068.654 6  -3564132.596 9
 94  3  1 22  6 30.0000000  0  7  2 16 18 19  7 27 31
  21693068.516   -14396131.547 7 -11085093.517 9
  23859872.258    -2018195.611 5   -601377.942 9
  22969531.344    13060710.933 6  10198620.541 9
  21096131.141    -1209081.889 7   -898891.319 9
  24188594.781     -777787.506 5   -365791.751 8
  20472377.820   -13281409.475 7 -10270492.870 9
  22826951.867    -4634863.267 6  -3507868.700 9
 94  3  1 22  7  0.0000000  0  7  2 16 18 19  7 27 31
  21686710.719   -14429540.048 7 -11111126.081 9
  23866599.039    -1982847.918 5   -573834.329 9
  22991396.055    13175613.253 6  10288154.747 9
  21104146.891    -1166958.037 7   -866067.548 9
  24170510.250     -872823.876 5   -439845.729 7
  20471391.953   -13286589.624 7 -10274529.342 9
  22840789.828    -4562148.135 6  -3451207.609 9
 94  3  1 22  7 30.0000000  0  7  2 16 18 19  7 27 31
  21680409.188   -14462654.624 7 -11136929.622 9
  23873422.742    -1946987.448 5   -545891.144 9
  23013302.508    13290735.164 6  10377860.065 9
  21112214.438    -1124562.917 7   -833032.396 9
  24152438.141     -967789.652 5   -513844.753 9
  20470465.938   -13291456.594 7 -10278321.762 9
  22854721.250    -4488939.484 6  -3394161.934 9
 94  3  1 22  8  0.0000000  0  7  2 16 18 19  7 27 31
  21674167.930   -14495455.666 7 -11162488.850 9
  23880347.016    -1910605.515 5   -517541.589 9
  23035250.445    13406067.248 6  10467729.153 9
  21120335.461    -1081887.215 7   -799778.614 9
  24134382.969    -1062667.254 5   -587775.090 9
  20469600.078   -13296007.464 7 -10281867.881 9
  22868748.711    -4415224.438 6  -3336721.687 9
 94  3  1 22  8 30.0000000  0  7  2 16 18 19  7 27 31
  21667987.141   -14527936.521 7 -11187798.578 9
  23887366.188    -1873717.530 5   -488797.735 9
  23057238.000    13521611.080 6  10557763.223 9
  21128505.844    -1038951.442 7   -766322.175 9
  24116347.781    -1157446.806 5   -661629.026 8
  20468793.289   -13300246.276 7 -10285170.840 9
  22882874.836    -4340988.407 6  -3278875.468 9
 94  3  1 22  9  0.0000000  0  7  2 16 18 19  7 27 31
  21661865.859   -14560101.372 7 -11212862.059 9
  23894476.852    -1836349.996 5   -459680.224 9
  23079267.086    13637374.185 6  10647968.164 9
  21136722.258     -995772.956 7   -732676.603 9
  24098329.945    -1252131.648 5   -735409.185 8
  20468043.305   -13304187.545 7 -10288241.942 9
  22897101.094    -4266232.838 6  -3220624.412 9
 94  3  1 22  9 30.0000000  0  7  2 16 18 19  7 27 31
  21655808.555   -14591937.047 7 -11237669.051 9
  23901681.914    -1798490.951 5   -430179.718 9
  23101341.547    13753380.365 6  10738362.499 9
  21144989.875     -952327.781 7   -698823.220 9
  24080330.273    -1346716.022 5   -809111.071 9
  20467351.961   -13307820.454 7 -10291072.775 9
  22911428.797    -4190936.874 6  -3161952.273 9
 94  3  1 22 10  0.0000000  0  7  2 16 18 19  7 27 31
  21649817.977   -14623416.013 7 -11262198.083 9
  23908983.117    -1760120.844 5   -400280.965 9
  23123469.578    13869664.904 6  10828973.752 9
  21153314.758     -908579.270 7   -664733.485 9
  24062354.547    -1441179.145 5   -882718.469 9
  20466726.609   -13311106.248 7 -10293633.124 9
  22925868.094    -4115056.411 6  -3102824.671 9
 94  3  1 22 10 30.0000000  0  7  2 16 18 19  7 27 31
  21643887.891   -14654578.388 7 -11286480.432 9
  23916373.078    -1721287.484 5   -370021.234 9
  23145645.289    13986199.452 6  10919779.825 9
  21161691.438     -864559.625 7   -630432.466 9
  24044394.219    -1535554.204 5   -956257.319 9
  20466162.945   -13314068.801 7 -10295941.597 9
  22940409.172    -4038643.450 6  -3043282.128 9
 94  3  1 22 11  0.0000000  0  7  2 16 18 19  7 27 31
  21638016.461   -14685433.492 7 -11310523.352 9
  23923849.742    -1681999.695 5   -339407.422 9
  23167866.078    14102971.148 6  11010770.683 9
  21170120.430     -820265.255 7   -595917.387 9
  24026449.797    -1629853.960 5  -1029737.487 9
  20465657.023   -13316727.495 7 -10298013.299 9
  22955043.703    -3961740.304 6  -2983357.625 9
 94  3  1 22 11 30.0000000  0  7  2 16 18 19  7 27 31
  21632211.047   -14715938.762 7 -11334293.666 9
  23931423.391    -1642193.318 5   -308389.506 9
  23190137.414    14220006.241 6  11101966.803 9
  21178610.594     -775648.406 7   -561151.021 9
  24008530.797    -1724020.528 5  -1103113.885 9
  20465217.164   -13319038.116 7 -10299813.776 9
  22969774.016    -3884332.949 6  -2923040.218 9
 94  3  1 22 12  0.0000000  0  7  2 16 18 19  7 27 31
  21626463.336   -14746144.461 7 -11357830.552 9
  23939089.320    -1601909.625 5   -276999.674 9
  23212448.852    14337249.814 6  11193325.366 9
  21187153.258     -730754.581 7   -526168.819 9
  23990630.719    -1818088.822 5  -1176413.692 9
  20464833.430   -13321054.375 7 -10301384.882 9
  22984587.016    -3806490.962 6  -2862384.151 9
 94  3  1 22 12 30.0000000  0  7  2 16 18 19  7 27 31
  21620773.016   -14776045.467 7 -11381130.012 9
  23946845.461    -1561141.617 5   -245232.441 9
  23234802.102    14454716.338 6  11284857.648 9
  21195750.039     -685579.353 7   -490967.348 9
  23972750.734    -1912047.618 5  -1249628.181 9
  20464504.250   -13322785.271 7 -10302733.631 9
  22999483.055    -3728209.994 6  -2801386.016 9
 94  3  1 22 13  0.0000000  0  7  2 16 18 19  7 27 31
  21615142.023   -14805638.676 7 -11404189.635 9
  23954697.898    -1519879.009 5   -213079.776 9
  23257198.305    14572406.592 6  11376564.249 9
  21204401.625     -640117.167 7   -455542.292 9
  23954892.641    -2005892.428 5  -1322753.835 9
  20464231.398   -13324220.944 7 -10303852.334 9
  23014467.461    -3649468.022 6  -2740028.655 9
 94  3  1 22 13 30.0000000  0  7  2 16 18 19  7 27 31
  21609567.109   -14834934.582 7 -11427017.583 9
  23962642.484    -1478134.618 5   -180551.710 9
  23279634.531    14690312.389 6  11468438.806 9
  21213105.969     -594373.847 7   -419898.163 9
  23937055.711    -2099628.448 5  -1395794.714 9
  20464018.930   -13325337.551 7 -10304722.417 9
  23029542.406    -3570245.645 6  -2678296.939 9
 94  3  1 22 14  0.0000000  0  7  2 16 18 19  7 27 31
  21604050.547   -14863923.548 7 -11449606.365 9
  23970673.547    -1435928.655 5   -147663.984 9
  23302115.992    14808453.133 6  11560496.417 9
  21221863.195     -548353.444 7   -384038.110 9
  23919236.594    -2193264.468 5  -1468757.670 9
  20463868.688   -13326123.591 7 -10305334.907 9
  23044715.523    -3490510.990 6  -2616166.066 9
 94  3  1 22 14 30.0000000  0  7  2 16 18 19  7 27 31
  21598589.234   -14892623.672 7 -11471970.064 9
  23978789.016    -1393288.225 5   -114437.695 9
  23324638.836    14926809.598 6  11652722.136 9
  21230668.234     -502083.058 7   -347983.271 9
  23901433.914    -2286817.321 5  -1541655.804 9
  20463779.547   -13326591.933 7 -10305699.843 9
  23059987.828    -3410257.325 6  -2553630.768 9
 94  3  1 22 15  0.0000000  0  7  2 16 18 19  7 27 31
  21593188.945   -14921001.203 7 -11494082.403 9
  23986992.289    -1350183.136 5    -80849.389 9
  23347205.625    15045403.358 6  11745132.782 9
  21239527.313     -455529.065 7   -311707.459 9
  23883655.859    -2380245.030 5  -1614456.438 9
  20463761.234   -13326690.557 7 -10305776.692 9
  23075364.820    -3329452.929 6  -2490666.339 9
 94  3  1 22 15 30.0000000  0  7  2 16 18 19  7 27 31
  21587856.234   -14949024.225 7 -11515918.489 9
  23995288.344    -1306585.011 5    -46876.849 9
  23369825.609    15164266.927 6  11837753.673 9
  21248444.984     -408665.964 7   -275190.777 9
  23865905.953    -2473513.717 5  -1687133.136 9
  20463815.922   -13326404.610 7 -10305553.877 9
  23090849.344    -3248076.189 6  -2427255.922 9
 94  3  1 22 16  0.0000000  0  7  2 16 18 19  7 27 31
  21582586.656   -14976717.619 7 -11537497.733 9
  24003673.664    -1262515.150 5    -12536.762 9
  23392488.531    15283364.775 6  11930557.110 9
  21257418.547     -361508.726 7   -238444.888 9
  23848185.477    -2566633.718 5  -1759693.981 9
  20463935.414   -13325774.636 7 -10305062.985 9
  23106440.453    -3166148.530 6  -2363416.220 9
 94  3  1 22 16 30.0000000  0  7  2 16 18 19  7 27 31
  21577376.531   -15004097.253 7 -11558832.477 9
  24012152.266    -1217963.092 5     22179.086 9
  23415191.078    15402665.086 6  12023518.302 9
  21266450.367     -314047.072 7   -201461.798 9
  23830495.930    -2659593.596 5  -1832130.068 9
  20464118.500   -13324811.559 7 -10304312.524 9
  23122132.438    -3083682.883 6  -2299157.295 9
 94  3  1 22 17  0.0000000  0  7  2 16 18 19  7 27 31
  21572225.352   -15031164.910 7 -11579924.130 9
  24020721.492    -1172924.997 5     57273.671 9
  23437929.281    15522156.842 6  12116628.677 9
  21275542.391     -266268.307 7   -164231.610 9
  23812835.250    -2752399.420 5  -1904446.074 9
  20464363.758   -13323523.483 7 -10303308.826 9
  23137921.453    -3000711.464 6  -2234504.280 9
 94  3  1 22 17 30.0000000  0  7  2 16 18 19  7 27 31
  21567133.484   -15057924.828 7 -11600775.981 9
  24029387.969    -1127384.000 5     92760.111 9
  23460704.055    15641838.084 6  12209886.702 9
  21284696.898     -218161.422 7   -126745.746 9
  23795201.813    -2845055.705 5  -1976645.592 8
  20464670.180   -13321915.903 7 -10302056.172 9
  23153807.195    -2917230.756 6  -2169454.407 9
 94  3  1 22 18  0.0000000  0  7  2 16 18 19  7 27 31
  21562098.445   -15084383.875 7 -11621393.387 9
  24038148.289    -1081351.854 5    128629.275 9
  23483512.375    15761693.004 6  12303280.072 9
  21293911.992     -169736.549 7    -89012.095 9
  23777597.156    -2937576.003 5  -2048739.140 9
  20465037.922   -13319982.911 7 -10300549.955 9
  23169788.828    -2833244.763 6  -2104010.810 9
 94  3  1 22 18 30.0000000  0  7  2 16 18 19  7 27 31
  21557123.367   -15110528.196 7 -11641765.557 9
  24046997.719    -1034842.590 5    164870.222 9
  23506356.750    15881740.800 6  12396823.730 9
  21303184.227     -121009.336 7    -51042.849 9
  23760015.914    -3029971.001 5  -2120735.037 9
  20465467.836   -13317720.430 7 -10298786.982 9
  23185863.516    -2748775.728 6  -2038190.825 9
 94  3  1 22 19  0.0000000  0  7  2 16 18 19  7 27 31
  21552213.078   -15136329.820 7 -11661870.693 9
  24055939.273     -987862.469 5    201478.066 9
  23529241.539    16002002.020 6  12490533.673 9
  21312514.422      -71980.572 7    -12838.625 9
  23742457.750    -3122242.225 5  -2192634.489 9
  20465964.914   -13315108.896 7 -10296752.008 9
  23202027.109    -2663831.702 6  -1972000.706 9
 94  3  1 22 19 30.0000000  0  7  2 16 18 19  7 27 31
  21547368.750   -15161787.141 7 -11681707.538 9
  24064965.391     -940424.505 5    238442.674 9
  23552168.961    16122483.179 6  12584414.984 9
  21321899.273      -22659.512 7     25593.360 9
  23724922.938    -3214381.822 5  -2264431.385 9
  20466531.633   -13312131.801 7 -10294432.197 9
  23218284.805    -2578400.279 6  -1905430.810 9
 94  3  1 22 20  0.0000000  0  7  2 16 18 19  7 27 31
  21542592.023   -15186887.449 7 -11701266.194 9
  24074077.281     -892547.401 5    275749.478 9
  23575138.914    16243190.971 6  12678472.887 9
  21331338.625       26941.435 7     64243.440 9
  23707416.500    -3306382.622 5  -2336120.136 9
  20467166.844   -13308793.660 7 -10291831.059 9
  23234629.633    -2492508.368 6  -1838502.091 9
 94  3  1 22 20 30.0000000  0  7  2 16 18 19  7 27 31
  21537883.688   -15211630.435 7 -11720546.427 9
  24083275.781     -844207.980 5    313416.491 9
  23598152.977    16364130.274 6  12772711.192 9
  21340831.922       76829.281 7    103117.072 9
  23689937.977    -3398227.754 5  -2407687.594 9
  20467870.633   -13305095.000 7 -10288948.990 9
  23251060.102    -2406168.074 6  -1771223.976 9
 94  3  1 22 21  0.0000000  0  7  2 16 18 19  7 27 31
  21533238.664   -15236040.703 7 -11739567.393 9
  24092564.656     -795394.346 5    351453.055 9
  23621206.508    16485278.186 6  12867112.052 9
  21350379.781      127004.465 7    142214.606 9
  23672486.750    -3489929.751 5  -2479143.536 9
  20468642.313   -13301040.150 7 -10285789.362 9
  23267573.125    -2319389.474 6  -1703604.327 9
 94  3  1 22 21 30.0000000  0  7  2 16 18 19  7 27 31
  21528655.117   -15260128.436 7 -11758337.033 9
  24101945.273     -746097.289 5    389866.282 9
  23644301.523    16606645.798 6  12961684.119 9
  21359982.805      177470.681 7    181538.920 9
  23655065.344    -3581473.408 5  -2550476.106 9
  20469480.914   -13296631.499 7 -10282354.039 9
  23284171.641    -2232161.674 6  -1635634.660 9
 94  3  1 22 22  0.0000000  0  7  2 16 18 19  7 27 31
  21524133.281   -15283892.523 7 -11776854.479 9
  24111417.828     -696318.673 5    428654.757 9
  23667435.977    16728218.915 6  13056416.325 9
  21369640.242      228217.558 7    221081.926 9
  23637677.562    -3672847.871 5  -2621676.875 9
  20470383.828   -13291887.096 7 -10278657.093 9
  23300854.594    -2144490.121 6  -1567319.212 9
 94  3  1 22 22 30.0000000  0  7  2 16 18 19  7 27 31
  21519672.508   -15307330.888 7 -11795118.115 9
  24120982.500     -646055.129 5    467821.143 9
  23690609.430    16849994.524 6  13151306.308 9
  21379354.922      279269.528 7    260862.657 9
  23620325.414    -3764034.450 5  -2692731.216 9
  20471353.945   -13286792.178 7 -10274687.025 9
  23317627.750    -2056348.145 6  -1498637.204 9
 94  3  1 22 23  0.0000000  0  7  2 16 18 19  7 27 31
  21515273.133   -15330449.060 7 -11813132.257 9
  24130632.102     -595342.354 5    507337.553 9
  23713821.297    16971967.906 6  13246350.390 9
  21389128.633      330630.803 7    300884.414 9
  23603010.000    -3855028.007 5  -2763635.176 9
  20472389.016   -13281352.965 7 -10270448.685 9
  23334491.867    -1967727.433 6  -1429582.160 9
 94  3  1 22 23 30.0000000  0  7  2 16 18 19  7 27 31
  21510934.719   -15353245.005 7 -11830895.320 9
  24140362.906     -544210.769 5    547180.282 9
  23737064.078    17094107.261 6  13341523.810 9
  21398960.242      382294.884 7    341142.123 9
  23585734.211    -3945814.367 5  -2834377.696 9
  20473486.742   -13275582.418 7 -10265952.149 9
  23351448.117    -1878626.884 6  -1360153.207 9
 94  3  1 22 24  0.0000000  0  7  2 16 18 19  7 27 31
  21506657.313   -15375721.491 7 -11848409.457 9
  24150173.102     -492662.228 5    587347.947 9
  23760333.336    17216391.473 6  13436810.099 9
  21408851.516      434273.091 7    381644.598 9
  23568496.500    -4036400.454 5  -2904964.161 9
  20474650.641   -13269466.365 7 -10261186.385 9
  23368494.336    -1789048.015 6  -1290351.548 9
 94  3  1 22 24 30.0000000  0  7  2 16 18 19  7 27 31
  21502436.172   -15397908.692 7 -11865698.168 9
  24160057.000     -440720.030 5    627822.282 9
  23783628.609    17338806.874 6  13532198.621 9
  21418800.836      486560.805 7    422388.248 9
  23551290.680    -4126822.181 5  -2975422.539 9
  20475879.391   -13263009.570 7 -10256155.122 9
  23385625.625    -1699022.941 6  -1220202.192 9
 94  3  1 22 25  0.0000000  0  7  2 16 18 19  7 27 31
  21498266.242   -15419823.608 7 -11882774.711 9
  24170012.102     -388403.650 5    668588.275 7
  23806943.133    17461330.211 5  13627671.247 9
  21428805.477      539133.019 7    463353.596 9
  23534110.703    -4217105.307 5  -3045772.936 9
  20477171.883   -13256217.319 7 -10250862.452 9
  23402837.570    -1608571.664 6  -1149720.739 9
 94  3  1 22 25 30.0000000  0  7  2 16 18 19  7 27 31
  21494147.938   -15441464.056 7 -11899637.375 9
  24180041.648     -335707.571 5    709650.152 9
  23830277.648    17583956.265 5  13723223.920 9
  21438861.742      591976.229 7    504530.103 9
  23516952.266    -4307270.596 5  -3116031.527 9
  20478530.336   -13249078.797 7 -10245299.968 9
  23420127.023    -1517713.015 5  -1078921.857 9
 94  3  1 22 26  0.0000000  0  7  2 16 18 19  7 27 31
  21490079.680   -15462844.642 7 -11916297.552 9
  24190141.211     -282629.618 5    751009.300 2
  23853639.242    17706719.204 5  13818883.242 9
  21448967.656      645084.308 7    545913.002 9
  23499815.570    -4397323.053 5  -3186202.183 9
  20479954.469   -13241594.110 7 -10239467.748 9
  23437491.281    -1426463.541 5  -1007818.437 9
 94  3  1 22 26 30.0000000  0  7  2 16 18 19  7 27 31
  21486063.086   -15483948.665 7 -11932742.229 9
  24200317.031     -229157.643 5    792675.924 9
  23877031.305    17829642.353 5  13914667.368 9
  21459123.906      698458.482 7    587503.250 9
  23482707.031    -4487232.877 5  -3256261.723 9
  20481442.820   -13233770.982 7 -10233371.796 9
  23454934.398    -1334802.281 6   -936394.141 9
 94  3  1 22 27  0.0000000  0  7  2 16 18 19  7 27 31
  21482106.891   -15504738.772 7 -11948942.303 9
  24210576.859     -175246.127 5    834684.766 9
  23900457.781    17952753.567 5  14010598.073 9
  21469334.258      752112.477 7    629311.533 9
  23465631.914    -4576960.380 5  -3326179.152 9
  20482999.508   -13225591.873 7 -10226998.465 9
  23472461.297    -1242696.219 5   -864623.233 9
 94  3  1 22 27 30.0000000  0  7  2 16 18 19  7 27 31
  21478205.766   -15525238.298 7 -11964915.941 9
  24220917.680     -120895.264 5    877036.045 9
  23923919.773    18076045.376 5  14106669.489 9
  21479591.727      806016.884 7    671314.943 9
  23448592.242    -4666506.774 6  -3395955.469 9
  20484617.406   -13217087.588 7 -10220371.751 9
  23490066.594    -1150176.414 5   -792529.936 9
 94  3  1 22 28  0.0000000  0  7  2 16 18 19  7 27 31
  21474356.328   -15545469.618 7 -11980680.594 9
  24231343.250      -66113.008 5    919723.488 9
  23947411.711    18199496.385 5  14202864.976 9
  21489894.078      860156.908 7    713501.965 9
  23431586.922    -4755866.870 6  -3465586.619 9
  20486292.047   -13208289.138 7 -10213515.811 9
  23507751.563    -1057242.364 5   -720113.862 9
 94  3  1 22 28 30.0000000  0  7  2 16 18 19  7 27 31
  21470558.742   -15565426.164 7 -11996231.119 9
  24241850.422      -10895.288 5    962750.270 9
  23970928.391    18323073.641 5  14299158.791 9
  21500241.664      914532.392 7    755872.448 9
  23414618.281    -4845040.312 6  -3535072.310 9
  20488022.563   -13199195.029 7 -10206429.491 9
  23525515.141     -963897.457 5   -647377.639 9
 94  3  1 22 29  0.0000000  0  7  2 16 18 19  7 27 31
  21466812.641   -15585110.014 7 -12011569.164 9
  24252438.266       44746.992 5   1006107.820 9
  23994466.711    18446770.450 5  14395545.796 9
  21510636.313      969156.553 7    798436.699 9
  23397682.641    -4934032.320 5  -3604416.640 9
  20489811.977   -13189791.625 7 -10199102.163 9
  23543354.305     -870156.491 5   -574332.818 9
 94  3  1 22 29 30.0000000  0  7  2 16 18 19  7 27 31
  21463120.805   -15604509.926 7 -12026685.956 9
  24263103.219      100791.414 5   1049778.752 8
  24018028.211    18570587.671 5  14492026.644 9
  21521084.664     1024062.801 7    841220.770 9
  23380783.719    -5022833.782 5  -3673612.498 9
  20491663.414   -13180061.768 7 -10191520.452 9
  23561271.336     -776004.171 5   -500967.416 9
 94  3  1 22 30  0.0000000  0  7  2 16 18 19  7 27 31
  21459482.875   -15623625.829 7 -12041581.455 9
  24273836.195      157196.675 5   1093730.851 9
  24041607.195    18694494.095 5  14588576.968 9
  21531588.594     1079261.861 7    884232.999 9
  23363918.078    -5111462.246 5  -3742673.547 9
  20493575.969   -13170010.897 7 -10183688.613 9
  23579264.156     -681439.257 5   -427280.530 9
 94  3  1 22 30 30.0000000  0  7  2 16 18 19  7 27 31
  21455902.977   -15642441.320 7 -12056242.866 9
  24284636.016      213948.890 4   1137953.297 8
  24065203.805    18818495.870 5  14685201.619 9
  21542152.297     1134771.293 7    927487.074 9
  23347086.141    -5199909.094 5  -3811593.068 9
  20495553.070   -13159622.058 7 -10175593.415 9
  23597339.102     -586456.028 5   -353267.689 9
 94  3  1 22 31  0.0000000  0  7  2 16 18 19  7 27 31
  21452380.742   -15660950.553 7 -12070665.632 9
  24295497.773      271029.574 5   1182431.751 9
  24088821.258    18942605.980 5  14781910.658 9
  21552773.555     1190588.208 7    970980.754 9
  23330289.406    -5288172.429 5  -3880369.619 9
  20497593.328   -13148902.122 7 -10167240.215 9
  23615496.742     -491041.020 5   -278918.402 9
 94  3  1 22 31 30.0000000  0  7  2 16 18 19  7 27 31
  21448919.766   -15679139.194 7 -12084838.586 9
  24306428.672      328462.677 5   1227184.750 9
  24112462.648    19066836.045 5  14878713.202 9
  21563454.016     1246714.884 7   1014715.809 9
  23313532.516    -5376235.282 5  -3948989.949 9
  20499699.656   -13137833.197 7 -10158615.081 9
  23633741.781     -395174.596 5   -204217.349 9
 94  3  1 22 32  0.0000000  0  7  2 16 18 19  7 27 31
  21445514.578   -15697032.455 7 -12098781.370 9
  24317426.422      386257.379 5   1272219.536 8
  24136124.797    19191184.220 5  14975607.737 9
  21574187.438     1303119.511 7   1058667.445 9
  23296813.297    -5464106.349 6  -4017460.810 9
  20501871.992   -13126415.684 7 -10149718.321 9
  23652064.211     -298881.979 5   -129184.193 9
 94  3  1 22 32 30.0000000  0  7  2 16 18 19  7 27 31
  21442161.422   -15714652.858 7 -12112511.546 9
  24328493.641      444419.113 5   1317540.306 8
  24159813.445    19315664.828 5  15072605.477 9
  21584969.563     1359779.974 7   1102818.432 9
  23280125.992    -5551801.514 6  -4085794.606 9
  20504109.953   -13114654.996 7 -10140554.145 9
  23670462.602     -202198.590 5    -53846.568 9
 94  3  1 22 33  0.0000000  0  7  2 16 18 19  7 27 31
  21438859.680   -15732006.166 7 -12126033.587 9
  24339632.023      502957.941 5   1363154.920 7
  24183525.773    19440276.325 5  15169705.210 9
  21595799.281     1416690.769 7   1147164.483 9
  23263467.523    -5639334.768 6  -4154002.252 9
  20506416.148   -13102535.234 7 -10131110.168 9
  23688927.719     -105157.778 5     21769.588 9
 94  3  1 22 33 30.0000000  0  7  2 16 18 19  7 27 31
  21435606.523   -15749099.432 7 -12139353.006 9
  24350846.633      561880.690 5   1409068.709 9
  24207262.297    19565009.456 5  15266899.723 9
  21606677.531     1473856.775 7   1191709.400 9
  23246842.352    -5726703.403 6  -4222081.633 9
  20508794.938   -13090035.943 7 -10121370.468 9
  23707458.859       -7781.577 5     97647.069 9
 94  3  1 22 34  0.0010000  0  8  2 16 18 19  7 27 26 31
  21432402.271   -15765938.561 7 -12152474.396 9
  24362130.606      621178.687 5   1455274.874 9
  24231021.544    19689862.668 5  15364187.799 9
  21617606.825     1531289.030 7   1236461.791 9
  23230246.997    -5813907.896 6  -4290033.110 9
  20511243.567   -13077168.304 7 -10111343.739 9
  24611876.114      -12990.87013
  23726050.599       89919.107 5    173777.414 9
 94  3  1 22 34 30.0010000  0  8  2 16 18 19  7 27 26 31
  21429249.833   -15782503.579 7 -12165382.188 9
  24373486.474      680850.984 5   1501772.733 9
  24254798.302    19814814.056 5  15461552.380 9
  21628587.442     1588991.641 7   1281424.846 9
  23213689.513    -5900917.222 6  -4357832.520 9
  20513759.536   -13063947.732 7 -10101042.004 9
  24597066.544      -90821.219 3
  23744706.263      187951.149 5    250165.923 9
 94  3  1 22 35  0.0010000  0  8  2 16 18 19  7 27 26 31
  21426153.021   -15798775.873 7 -12178061.891 9
  24384915.653      740914.729 5   1548575.595 9
  24278594.841    19939861.814 5  15558992.063 9
  21639624.294     1646990.625 7   1326618.837 9
  23197176.341    -5987695.365 6  -4425451.793 9
  20516344.661   -13050362.903 7 -10090456.428 9
  24582300.114     -168434.015 4
  23763428.911      286344.623 5    326836.106 9
 94  3  1 22 35 30.0010000  0  8  2 16 18 19  7 27 26 31
  21423111.231   -15814763.040 7 -12190519.413 9
  24396417.310      801356.893 4   1595673.334 9
  24302408.599    20064996.809 5  15656499.677 9
  21650717.302     1705285.016 7   1372043.014 9
  23180711.005    -6074224.111 6  -4492876.743 9
  20518993.411   -13036442.518 7 -10079609.371 9
  24567570.216     -245824.476 4    -34148.40018
  23782225.052      385122.039 5    403805.429 9
 94  3  1 22 36  0.0010000  0  8  2 16 18 19  7 27 26 31
  21420124.810   -15830455.716 7 -12202747.461 9
  24407991.325      862183.957 4   1643070.991 9
  24326239.310    20190230.357 5  15754084.119 9
  21661867.833     1763882.485 7   1417703.357 9
  23164293.966    -6160492.404 6  -4560098.718 9
  20521704.403   -13022195.784 7 -10068508.023 9
  24552892.630     -322963.494 4    -94256.656 6
  23801098.146      484298.687 5    481085.867 9
 94  3  1 22 36 30.0010000  0  8  2 16 18 19  7 27 26 31
  21417196.114   -15845845.364 7 -12214739.384 9
  24419636.927      923383.698 4   1690759.045 8
  24350089.630    20315563.267 5  15851745.981 9
  21673074.997     1822775.834 7   1463594.259 9
  23147927.778    -6246500.201 6  -4627117.717 9
  20524480.755   -13007607.309 7 -10057140.380 9
  24538260.692     -399849.549 5   -154167.807 8
  23820045.966      583872.646 5    558675.885 9
 94  3  1 22 37  0.0010000  0  8  2 16 18 19  7 27 26 31
  21414321.755   -15860950.484 7 -12226509.592 9
  24431350.560      984930.314 5   1738717.367 9
  24373957.192    20440993.059 5  15949483.313 9
  21684336.263     1881955.433 7   1509708.206 9
  23131604.161    -6332277.768 6  -4693957.323 9
  20527322.872   -12992670.009 7 -10045500.925 9
  24523675.177     -476491.409 4   -213888.659 8
  23839066.856      683827.646 5    636562.827 9
 94  3  1 22 37 30.0010000  0  8  2 16 18 19  7 27 26 31
  21411500.614   -15875775.218 7 -12238061.317 9
  24443125.231     1046806.560 4   1786932.559 8
  24397844.216    20566523.758 5  16047299.313 9
  21695648.903     1941403.543 7   1556031.377 9
  23115320.325    -6417846.837 6  -4760634.461 9
  20530231.106   -12977388.181 7 -10033593.011 9
  24509134.950     -552896.209 4   -273424.776 8
  23858159.302      784154.165 5    714739.271 9
 94  3  1 22 38  0.0010000  0  8  2 16 18 19  7 27 26 31
  21408734.130   -15890312.707 7 -12249389.220 9
  24454960.708     1109019.865 3   1835410.461 8
  24421754.450    20692167.853 5  16145203.646 9
  21707012.958     2001121.230 7   1602564.618 9
  23099075.481    -6503212.752 6  -4827153.284 9
  20533207.185   -12961748.213 7 -10021406.030 9
  24494643.435     -629059.814 5   -332772.956 7
  23877319.395      884836.743 5    793193.139 9
 94  3  1 22 38 30.0010000  0  8  2 16 18 19  7 27 26 31
  21406020.771   -15904572.841 7 -12260501.001 9
  24466865.278     1171564.332 3   1884146.354 7
  24445682.403    20817911.966 5  16243185.918 9
  21718425.942     2061099.195 7   1649300.670 9
  23082866.294    -6588389.302 5  -4893524.555 9
  20536250.950   -12945752.534 7 -10008941.872 9
  24480195.692     -704979.800 5   -391931.345 8
  23896543.028      985865.305 5    871916.638 9
 94  3  1 22 39  0.0010000  0  8  2 16 18 19  7 27 26 31
  21403356.810   -15918573.033 7 -12271410.219 9
  24478827.981     1234441.331 3   1933141.368 8
  24469628.310    20943745.629 5  16341237.977 9
  21729889.685     2121337.795 7   1696239.813 9
  23066693.247    -6673382.728 6  -4959753.119 9
  20539359.825   -12929414.735 7  -9996211.112 9
  24465797.583     -780645.602 4   -450891.628 8
  23915834.669     1087246.030 5    950914.543 9
 94  3  1 22 39 30.0010000  0  8  2 16 18 19  7 27 26 31
  21400743.083   -15932305.653 7 -12282110.945 9
  24490859.200     1297656.938 4   1982400.204 8
  24493589.786    21069660.967 5  16439353.668 9
  21741404.591     2181847.653 7   1743390.325 9
  23050555.481    -6758186.476 6  -5025833.863 9
  20542533.224   -12912740.469 7  -9983218.183 9
  24451446.013     -856056.109 4   -509653.001 7
  23935193.646     1188977.739 5   1030185.928 9
 94  3  1 22 40  0.0010000  0  8  2 16 18 19  7 27 26 31
  21398181.177   -15945771.210 7 -12292603.567 9
  24502953.927     1361210.230 4   2031922.161 9
  24517562.270    21195636.622 5  16537516.342 9
  21752971.536     2242636.518 7   1790758.247 9
  23034457.224    -6842786.338 6  -5091755.743 9
  20545771.325   -12895725.946 7  -9969960.122 9
  24437147.200     -931202.339 5   -568208.419 9
  23954622.630     1291062.886 6   1109732.707 9
 94  3  1 22 40 30.0010000  0  8  2 16 18 19  7 27 26 31
  21395669.544   -15958967.382 7 -12302886.280 9
  24515109.841     1425101.428 3   2081707.484 7
  24541542.021    21321652.056 5  16635710.017 9
  21764594.349     2303713.744 7   1838350.875 9
  23018402.091    -6927155.346 6  -5157497.717 9
  20549077.841   -12878347.572 7  -9956418.539 9
  24422897.270    -1006080.814 5   -626555.257 9
  23974119.036     1393524.016 6   1189572.481 9
 94  3  1 22 41  0.0010000  0  8  2 16 18 19  7 27 26 31
  21393209.060   -15971895.303 7 -12312959.968 9
  24527333.450     1489320.201 4   2131748.048 8
  24565527.239    21447695.825 5  16733925.796 9
  21776270.677     2365071.485 7   1886162.075 9
  23002393.708    -7011281.155 6  -5223050.187 9
  20552453.388   -12860611.047 7  -9942597.866 9
  24408692.403    -1080726.798 5   -684720.876 9
  23993684.263     1496335.677 6   1269685.389 9
 94  3  1 22 41 30.0010000  0  8  2 16 18 19  7 27 26 31
  21390803.888   -15984535.974 7 -12322809.833 9
  24539614.966     1553863.722 4   2182041.656 9
  24589518.911    21573772.582 5  16832167.273 9
  21787997.966     2426701.066 7   1934185.097 9
  22986433.653    -7095148.705 6  -5288401.407 9
  20555897.146   -12842514.488 7  -9928496.661 9
  24394529.630    -1155147.459 5   -742710.937 9
  24013310.341     1599478.682 5   1350056.511 9
 94  3  1 22 42  0.0010000  0  8  2 16 18 19  7 27 26 31
  21388452.200   -15996893.595 7 -12332439.137 9
  24551960.583     1618731.408 5   2232587.827 9
  24613519.091    21699892.123 5  16930442.060 9
  21799776.333     2488595.499 7   1982414.498 9
  22970525.099    -7178751.117 6  -5353546.033 9
  20559410.630   -12824049.819 7  -9914108.617 9
  24380414.278    -1229329.531 5   -800515.069 9
  24032998.224     1702938.234 5   1430674.276 9
 94  3  1 22 42 30.0010000  0  7  2 18 19  7 27 26 31
  21386153.067   -16008977.594 7 -12341855.232 9
  24637526.606    21826063.908 4  17028757.580 8
  21811603.153     2550743.934 7   2030841.813 9
  22954661.755    -7262109.993 6  -5418500.875 9
  20562991.817   -12805227.098 7  -9899441.559 9
  24366342.575    -1303275.644 5   -858135.351 9
  24052741.224     1806688.051 5   1511518.207 9
 94  3  1 22 43  0.0010000  0  7  2 18 19  7 27 26 31
  21383910.325   -16020763.939 7 -12351039.391 9
  24661554.075    21952322.828 4  17127141.022 9
  21823480.286     2613159.435 7   2079477.235 9
  22938844.208    -7345231.438 6  -5483270.722 9
  20566640.349   -12786053.870 7  -9884501.390 9
  24352318.997    -1376970.326 5   -915559.687 9
  24072539.583     1910723.898 6   1592585.035 9
 94  3  1 22 43 30.0010000  0  7  2 18 19  7 27 26 31
  21381721.770   -16032263.768 7 -12360000.276 9
  24685595.372    22078664.556 3  17225588.931 9
  21835408.552     2675843.443 7   2128321.888 9
  22923070.013    -7428126.788 6  -5547864.384 9
  20570356.544   -12766527.286 7  -9869285.878 9
  24338348.614    -1450387.709 5   -972767.964 9
  24092395.106     2015064.540 6   1673889.378 9
 94  3  1 22 44  0.0010000  0  7  2 18 19  7 27 26 31
  21379581.997   -16043507.553 7 -12368761.653 9
  24709647.989    22205067.431 3  17324084.535 8
  21847389.935     2738806.055 7   2177383.626 9
  22907335.630    -7510811.647 6  -5612294.022 9
  20574139.810   -12746646.505 7  -9853794.380 9
  24324428.927    -1523535.160 5  -1029765.917 9
  24112309.310     2119717.710 6   1755437.234 9
 94  3  1 22 44 30.0010000  0  6  2 19  7 27 26 31
  21377491.099   -16054495.650 7 -12377323.788 9
  21859426.919     2802059.530 7   2226672.013 9
  22891642.192    -7593278.428 6  -5676553.740 9
  20577992.388   -12726400.366 7  -9838018.177 9
  24310557.567    -1596424.567 5  -1086562.786 9
  24132286.302     2224701.205 5   1837242.483 9
 94  3  1 22 45  0.0010000  0  6  2 19  7 27 26 31
  21375446.208   -16065240.834 7 -12385696.648 9
  21871517.919     2865598.162 7   2276182.591 9
  22875991.466    -7675523.016 6  -5740640.330 9
  20581913.981   -12705793.738 7  -9821961.069 9
  24296735.052    -1669069.084 5  -1143168.830 9
  24152329.239     2330024.468 6   1919312.480 9
 94  3  1 22 45 30.0010000  0  6  2 19  7 27 26 31
  21373440.560   -16075779.004 7 -12393908.201 9
  21883661.747     2929413.552 7   2325908.827 9
  22860383.247    -7757540.181 6  -5804549.726 9
  20585904.427   -12684825.196 7  -9805621.954 9
  24282957.083    -1741472.752 5  -1199587.180 9
  24172433.911     2435673.742 5   2001636.522 9
 94  3  1 22 46  0.0010000  0  6  2 19  7 27 26 31
  21371476.224   -16086102.831 7 -12401952.736 9
  21895858.661     2993510.159 7   2375854.198 9
  22844822.927    -7839314.738 6  -5868270.082 9
  20589963.005   -12663496.447 7  -9789002.156 9
  24269224.731    -1813634.094 5  -1255816.753 9
  24192596.966     2541631.917 5   2084201.254 9
 94  3  1 22 46 30.0010000  0  6  2 19  7 27 26 31
  21369555.450   -16096196.798 7 -12409818.156 9
  21908106.536     3057873.388 7   2426007.328 9
  22829310.630    -7920833.209 6  -5931790.900 9
  20594087.325   -12641821.952 7  -9772112.950 9
  24255541.044    -1885542.386 4  -1311849.094 9
  24212817.060     2647884.417 5   2166995.350 9
 94  3  1 22 47  0.0010000  0  6  2 19  7 27 26 31
  21367681.435   -16106044.172 7 -12417491.426 9
  21920404.552     3122499.668 7   2476365.431 9
  22813851.411    -8002076.869 6  -5995097.575 9
  20598275.052   -12619815.269 7  -9754964.888 9
  24241911.825    -1957160.138 4  -1367655.062 8
  24233091.106     2754428.891 5   2250016.927 9
 94  3  1 22 47 30.0010000  0  6  2 19  7 27 26 31
  21365858.521   -16115624.096 7 -12424956.297 9
  21932752.669     3187388.840 7   2526928.379 9
  22798446.825    -8083027.808 6  -6058176.162 9
  20602527.849   -12597466.804 7  -9737550.500 9
  24228342.005    -2028470.307 4  -1423221.368 7
  24253418.692     2861251.239 5   2333255.057 9
 94  3  1 22 48  0.0010000  0  6  2 19  7 27 26 31
  21364092.286   -16124906.745 7 -12432189.516 9
  21945148.841     3252530.828 7   2577688.336 9
  22783097.161    -8163688.071 6  -6121028.256 9
  20606843.880   -12574786.133 7  -9719877.256 9
  24214831.395    -2099470.557 4  -1478546.166 9
  24273798.403     2968343.168 5   2416703.235 9
 94  3  1 22 48 30.0010000  0  6  2 19  7 27 26 31
  21362380.028   -16133904.371 7 -12439200.647 9
  21957592.099     3317920.056 7   2628640.947 9
  22767801.466    -8244067.451 6  -6183661.488 9
  20611223.599   -12551768.352 7  -9701941.332 9
  24201378.310    -2170161.498 4  -1533629.923 8
  24294229.450     3075710.627 5   2500366.102 9
 94  3  1 22 49  0.0010000  0  6  2 19  7 27 26 31
  21360721.731   -16142620.685 7 -12445992.561 9
  21970083.981     3383566.703 7   2679794.132 9
  22752558.591    -8324167.419 6  -6246076.998 9
  20615672.700   -12528389.407 7  -9683723.983 9
  24187987.286    -2240540.659 5  -1588470.761 9
  24314713.966     3183357.027 5   2584246.340 9
 94  3  1 22 49 30.0010000  0  6  2 19  7 27 26 31
  21359113.903   -16151068.401 7 -12452575.180 9
  21982628.388     3449487.569 7   2731161.009 9
  22737367.989    -8403997.340 6  -6308282.091 9
  20620194.724   -12504627.795 7  -9665208.449 9
  24174649.200    -2310628.808 5  -1643084.873 9
  24335250.872     3291283.186 5   2668344.557 9
 94  3  1 22 50  0.0010000  0  6  2 19  7 27 26 31
  21357552.591   -16159273.011 7 -12458968.373 9
  21995226.247     3515689.026 7   2782746.537 9
  22722223.450    -8483578.477 6  -6370293.319 9
  20624789.575   -12480478.330 7  -9646390.687 9
  24161365.489    -2380435.995 5  -1697480.034 9
  24355845.442     3399505.965 5   2752673.886 9
 94  3  1 22 50 30.0010000  0  6  2 19  7 27 26 31
  21356031.942   -16167264.365 7 -12465195.400 9
  22007876.755     3582164.741 7   2834545.756 9
  22707123.192    -8562931.089 6  -6432126.490 9
  20629460.974   -12455933.202 7  -9627264.623 9
  24148133.060    -2449972.010 5  -1751663.882 9
  24376496.966     3508028.952 5   2837237.214 9
 94  3  1 22 51  0.0010000  0  6  2 19  7 27 26 31
  21354556.622   -16175014.522 7 -12471234.480 9
  22020577.896     3648911.104 7   2886555.868 9
  22692070.013    -8642034.863 6  -6493765.758 9
  20634207.419   -12430989.722 7  -9607828.161 9
  24134954.856    -2519225.749 5  -1805627.774 9
  24397206.458     3616853.104 5   2922035.172 9
 94  3  1 22 51 30.0010000  0  6  2 19  7 27 26 31
  21353129.302   -16182515.426 7 -12477079.336 9
  22033328.310     3715919.851 7   2938770.442 9
  22677066.427    -8720878.552 6  -6555202.367 9
  20639028.567   -12405652.380 7  -9588084.788 9
  24121831.591    -2588185.764 5  -1859362.789 9
  24417970.028     3725974.704 5   3007064.915 9
 94  3  1 22 52  0.0010000  0  6  2 19  7 27 26 31
  21351751.630   -16189757.882 7 -12482722.798 9
  22046126.466     3783170.173 7   2991173.262 9
  22662114.333    -8799450.591 6  -6616427.294 9
  20643923.146   -12379934.745 7  -9568045.081 9
  24108766.755    -2656845.057 5  -1912863.480 9
  24438787.489     3835377.043 5   3092313.413 8
 94  3  1 22 52 30.0010000  0  6  2 19  7 27 26 31
  21350424.919   -16196729.781 7 -12488155.439 9
  22058969.700     3850660.444 7   3043763.052 9
  22647220.255    -8877722.851 6  -6677418.622 9
  20648886.481   -12353851.425 7  -9547720.427 9
  24095759.341    -2725199.580 5  -1966126.677 9
  24459658.200     3945038.852 5   3177764.096 9
 94  3  1 22 53  0.0010000  0  6  2 19  7 27 26 31
  21349150.489   -16203425.581 7 -12493372.948 9
  22071860.817     3918405.297 7   3096551.221 9
  22632386.552    -8955674.393 6  -6738160.036 9
  20653916.755   -12327416.119 7  -9527121.501 9
  24082808.317    -2793255.569 5  -2019157.278 9
  24480571.302     4054949.939 4   3263409.025 8
 94  3  1 22 53 30.0010000  0  6  2 19  7 27 26 31
  21347925.466   -16209865.387 7 -12498390.975 9
  22084805.966     3986430.914 7   3149558.163 9
  22617611.724    -9033317.988 6  -6798661.491 9
  20659013.310   -12300633.099 7  -9506251.632 9
  24069912.146    -2861023.110 5  -2071963.103 9
  24501537.255     4165111.635 5   3349249.220 9
 94  3  1 22 54  0.0010000  0  6  2 19  7 27 26 31
  21346745.466   -16216064.394 7 -12503221.364 9
  22097808.005     4054759.075 7   3202800.849 9
  22602893.567    -9110662.092 6  -6858929.562 9
  20664174.786   -12273511.223 7  -9485117.709 9
  24057070.856    -2928506.671 5  -2124547.648 9
  24522548.333     4275531.977 5   3435290.966 8
 94  3  1 22 54 30.0010000  0  6  2 19  7 27 26 31
  21345611.778   -16222020.784 7 -12507862.693 9
  22110870.067     4123399.487 7   3256286.859 9
  22588229.825    -9187722.588 6  -6918976.652 9
  20669399.224   -12246054.191 7  -9463722.626 9
  24044283.044    -2995702.684 5  -2176908.134 9
  24543612.044     4386218.789 5   3521540.368 9
 94  3  1 22 55  0.0010000  0  6  2 19  7 27 26 31
  21344524.474   -16227737.063 7 -12512316.939 9
  22123989.474     4192344.297 7   3310010.057 9
  22573615.708    -9264516.674 6  -6978816.148 9
  20674687.544   -12218265.311 7  -9442068.967 9
  24031555.177    -3062591.867 5  -2229029.517 9
  24564723.411     4497162.978 5   3607990.268 9
 94  3  1 22 55 30.0010000  0  5  2 19  7 27 26
  21343484.341   -16233201.776 7 -12516575.153 9
  22137166.325     4261586.757 7   3363965.179 9
  22559054.130    -9341039.375 6  -7038444.180 9
  20680042.872   -12190123.652 7  -9420140.413 9
  24018889.950    -3129145.629 5  -2280889.539 9
 94  3  1 22 56  0.0010000  0  5  2 19  7 27 26
  21342490.771   -16238425.146 7 -12520645.303 9
  22150390.778     4331082.864 7   3418117.952 9
  22544544.044    -9417290.592 6  -7097860.668 9
  20685462.786   -12161640.418 7  -9397945.697 9
  24006286.849    -3195371.493 5  -2332494.055 9
 94  3  1 22 56 30.0010000  0  5  2 19  7 27 26
  21341541.911   -16243410.053 7 -12524529.637 9
  22163654.747     4400786.323 7   3472432.300 9
  22530082.380    -9493284.206 6  -7157076.424 9
  20690947.247   -12132819.697 7  -9375488.008 9
  23993745.075    -3261281.943 5  -2383852.778 9
 94  3  1 22 57  0.0010000  0  5  2 19  7 27 26
  21340641.271   -16248145.240 7 -12528219.391 9
  22176963.021     4470719.678 7   3526925.795 9
  22515678.927    -9568976.845 6  -7216057.663 9
  20696504.294   -12103615.754 7  -9352731.697 9
  23981267.771    -3326850.706 5  -2434945.262 9
 94  3  1 22 57 30.0010000  0  5  2 19  7 27 26
  21339784.825   -16252642.800 7 -12531723.979 9
  22190315.685     4540888.456 7   3581602.714 9
  22501332.020    -9644367.501 6  -7274803.587 9
  20702135.302   -12074025.449 7  -9329674.323 9
  23968849.739    -3392109.013 5  -2485795.818 9
 94  3  1 22 58  0.0010000  0  5  2 19  7 27 26
  21338976.372   -16256889.782 7 -12535033.314 9
  22203719.028     4611323.505 7   3636487.129 9
  22487045.981    -9719439.169 6  -7333300.950 9
  20707844.013   -12044028.931 7  -9306300.430 9
  23956493.872    -3457035.526 5  -2536387.841 9
 94  3  1 22 58 30.0010000  0  5  2 19  7 27 26
  21338213.614   -16260899.719 7 -12538157.936 9
  22217174.825     4682034.836 7   3691586.839 9
  22472819.669    -9794200.054 6  -7391556.149 9
  20713629.192   -12013625.014 7  -9282609.087 9
  23944202.099    -3521627.997 5  -2586719.556 9
 94  3  1 22 59  0.0010000  0  5  2 19  7 27 26
  21337496.130   -16264672.537 7 -12541097.788 9
  22230689.614     4753052.718 7   3746925.402 9
  22458656.224    -9868628.547 6  -7449552.344 9
  20719492.630   -11982812.925 7  -9258599.673 9
  23931975.552    -3585884.184 5  -2636789.233 9
 94  3  1 22 59 30.0010000  0  5  2 19  7 27 26
  21336825.427   -16268196.844 7 -12543843.989 9
  22244261.981     4824377.274 7   3802502.930 9
  22444554.739    -9942732.821 6  -7507295.891 9
  20725431.114   -11951606.199 7  -9234282.754 9
  23919812.138    -3649800.812 5  -2686594.344 9
 94  3  1 23  0  0.0010000  0  5  2 19  7 27 26
  21336203.521   -16271463.659 7 -12546389.548 9
  22257891.310     4895998.240 7   3858311.430 9
  22430516.731   -10016504.679 6  -7564780.413 9
  20731445.396   -11920001.114 7  -9209655.434 9
  23907718.567    -3713354.184 5  -2736116.381 9
 94  3  1 23  0 30.0010000  0  5  2 19  7 27 26
  21335634.427   -16274455.251 7 -12548720.655 9
  22271576.810     4967917.946 7   3914352.722 9
  22416545.388   -10089921.913 6  -7621988.607 9
  20737535.005   -11888001.788 7  -9184720.919 9
  23895693.646    -3776547.047 5  -2785357.536 9
 94  3  1 23  1  0.0010000  0  5  2 19  7 27 26
  21335113.981   -16277189.575 7 -12550851.293 9
  22285313.833     5040106.064 7   3970603.158 9
  22402636.825   -10163013.544 6  -7678943.088 9
  20743693.036   -11855639.817 7  -9159503.818 9
  23883731.224    -3839408.886 5  -2834340.735 9
 94  3  1 23  1 30.0010000  0  5  2 19  7 27 26
  21334639.606   -16279682.384 7 -12552793.734 9
  22299098.177     5112544.225 7   4027048.439 9
  22388787.161   -10235795.737 6  -7735656.456 9
  20749919.013   -11822920.388 7  -9134008.170 9
  23871832.466    -3901937.820 5  -2883064.515 9
 94  3  1 23  2  0.0010000  0  5  2 19  7 27 26
  21334206.560   -16281960.002 7 -12554568.492 9
  22312928.122     5185220.857 7   4083679.533 9
  22374995.802   -10308268.668 6  -7792128.824 9
  20756213.419   -11789845.183 7  -9108235.295 9
  23859994.114    -3964145.990 5  -2931538.344 9
 94  3  1 23  2 30.0010000  0  5  2 19  7 27 26
  21333815.341   -16284015.914 7 -12556170.495 9
  22326806.106     5258149.639 7   4140507.113 9
  22361263.560   -10380432.667 6  -7848360.483 9
  20762577.372   -11756404.370 7  -9082177.536 9
  23848217.349    -4026034.267 5  -2979762.947 9
 94  3  1 23  3  0.0010000  0  5  2 19  7 27 26
  21333463.075   -16285864.271 7 -12557610.765 9
  22340729.653     5331317.630 7   4197521.082 9
  22347586.278   -10452306.663 6  -7904366.149 9
  20769011.474   -11722592.276 7  -9055830.476 9
  23836503.575    -4087593.235 5  -3027730.893 9
 94  3  1 23  3 30.0010000  0  5  2 19  7 27 26
  21333152.622   -16287496.464 7 -12558882.599 9
  22354701.356     5404737.176 7   4254731.076 9
  22333967.091   -10523876.014 6  -7960134.436 9
  20775517.544   -11688401.367 7  -9029188.228 9
  23824853.442    -4148811.492 5  -3075433.384 9
 94  3  1 23  4  0.0010000  0  5  2 19  7 27 26
  21332889.263   -16288881.572 7 -12559961.898 9
  22368722.817     5478422.146 7   4312147.883 9
  22320410.614   -10595115.741 6  -8015645.871 9
  20782098.169   -11653820.213 7  -9002241.881 9
  23813270.646    -4209674.713 5  -3122859.217 9
 94  3  1 23  4 30.0010000  0  5  2 19  7 27 26
  21332674.950   -16290007.130 7 -12560838.951 9
  22382795.856     5552377.243 7   4369775.196 9
  22306917.755   -10666021.936 6  -8070897.412 9
  20788752.060   -11618855.324 7  -8974996.528 9
  23801758.395    -4270172.799 5  -3170000.517 9
 94  3  1 23  5  0.0010000  0  5  2 19  7 27 26
  21332506.138   -16290891.261 7 -12561527.881 9
  22396919.216     5626593.394 7   4427605.927 9
  22293489.216   -10736587.552 6  -8125883.563 9
  20795476.114   -11583517.819 7  -8947460.822 9
  23790316.200    -4330305.621 5  -3216857.203 9
 94  3  1 23  5 30.0010000  0  5  2 19  7 27 26
  21332381.138   -16291549.651 7 -12562040.904 9
  22411091.880     5701070.954 7   4485640.338 9
  22280126.599   -10806808.534 6  -8180601.177 9
  20802270.708   -11547813.135 7  -8919638.992 9
  23778939.747    -4390090.267 6  -3263442.604 9
 94  3  1 23  6  0.0010000  0  5  2 19  7 27 26
  21332297.036   -16291991.545 7 -12562385.233 9
  22425313.583     5775807.765 7   4543876.772 9
  22266828.005   -10876692.576 6  -8235056.234 9
  20809136.427   -11511733.227 7  -8891524.800 9
  23767629.739    -4449524.720 6  -3309755.143 9
 94  3  1 23  6 30.0010000  0  5  2 19  7 27 26
  21332250.802   -16292234.374 7 -12562574.447 9
  22439583.521     5850797.911 7   4602310.596 9
  22253591.333   -10946250.794 6  -8289257.418 9
  20816073.036   -11475281.187 7  -8863120.630 9
  23756384.747    -4508616.759 6  -3355800.857 9
 94  3  1 23  7  0.0010000  0  5  2 19  7 27 26
  21332242.614   -16292277.228 7 -12562607.837 9
  22453903.122     5926046.069 7   4660945.479 9
  22240417.036   -11015481.924 6  -8343203.720 9
  20823082.864   -11438444.364 7  -8834416.615 9
  23745206.005    -4567363.235 6  -3401577.279 9
 94  3  1 23  7 30.0010000  0  5  2 19  7 27 26
  21332275.185   -16292105.359 7 -12562473.906 9
  22468270.802     6001549.576 7   4719779.329 9
  22227305.138   -11084390.425 7  -8396898.623 9
  20830165.692   -11401223.553 7  -8805413.398 9
  23734092.903    -4625763.222 6  -3447083.736 9
 94  3  1 23  8  0.0010000  0  5  2 19  7 27 26
  21332353.130   -16291697.801 7 -12562156.333 9
  22482688.677     6077315.993 7   4778818.045 9
  22214257.645   -11152951.520 7  -8450322.817 9
  20837321.521   -11363618.537 7  -8776110.803 9
  23723048.161    -4683798.951 6  -3492306.357 9
 94  3  1 23  8 30.0010000  0  5  2 19  7 27 26
  21332472.849   -16291067.606 7 -12561665.273 9
  22497152.521     6153324.026 7   4838045.036 9
  22201277.356   -11221164.003 7  -8503475.371 9
  20844544.872   -11325660.486 7  -8746533.111 9
  23712072.724    -4741477.409 6  -3537250.574 9
 94  3  1 23  9  0.0010000  0  5  2 19  7 27 26
  21332632.286   -16290228.559 7 -12561011.470 9
  22511659.372     6229555.745 7   4897446.320 9
  22188363.450   -11289028.032 7  -8556356.396 9
  20851832.645   -11287363.018 7  -8716690.946 9
  23701163.560    -4798804.514 6  -3581921.014 9
 94  3  1 23  9 30.0010000  0  5  2 19  7 27 26
  21332833.177   -16289175.697 7 -12560191.055 9
  22526207.091     6306003.392 7   4957015.866 9
  22175517.216   -11356534.554 7  -8608958.852 9
  20859183.302   -11248733.941 7  -8686590.373 9
  23690322.286    -4855777.074 6  -3626315.181 9
 94  3  1 23 10  0.0010000  0  5  2 19  7 27 26
  21333073.614   -16287910.583 7 -12559205.249 9
  22540796.669     6382678.260 6   5016762.474 9
  22162740.817   -11423672.108 7  -8661273.801 9
  20866600.763   -11209757.523 7  -8656219.152 9
  23679548.255    -4912391.919 5  -3670430.600 9
 94  3  1 23 10 30.0010000  0  5  2 19  7 27 26
  21333355.169   -16286431.401 7 -12558052.639 9
  22555432.208     6459585.648 6   5076690.263 9
  22150032.599   -11490454.984 7  -8713312.373 9
  20874086.185   -11170419.146 7  -8625565.895 9
  23668844.997    -4968635.820 5  -3714256.950 9
 94  3  1 23 11  0.0010000  0  5  2 19  7 27 26
  21333679.169   -16284727.053 7 -12556724.570 9
  22570117.942     6536752.494 7   5136820.213 9
  22137392.356   -11556881.307 7  -8765073.115 9
  20881647.145   -11130686.239 7  -8594605.204 9
  23658214.450    -5024505.202 5  -3757791.489 9
 94  3  1 23 11 30.0010000  0  5  2 19  7 27 26
  21334046.958   -16282793.804 7 -12555218.141 9
  22584854.833     6614198.506 7   5197167.695 9
  22124817.239   -11622962.447 7  -8816564.882 9
  20889285.739   -11090546.155 7  -8563327.232 9
  23647653.950    -5079997.548 5  -3801032.231 9
 94  3  1 23 12  0.0010000  0  5  2 19  7 27 26
  21334457.513   -16280637.453 7 -12553537.864 9
  22599646.356     6691931.014 6   5257738.439 9
  22112308.036   -11688700.782 7  -8867789.532 9
  20897004.317   -11049983.234 7  -8531719.781 9
  23637167.317    -5135105.905 6  -3843973.744 9
 94  3  1 23 12 30.0010000  0  5  2 19  7 27 26
  21334910.481   -16278256.892 7 -12551682.877 9
  22614493.747     6769954.393 6   5318535.832 9
  22099863.122   -11754098.139 7  -8918748.472 9
  20904804.153   -11008997.209 7  -8499782.638 9
  23626757.966    -5189808.526 6  -3886599.107 9
 94  3  1 23 13  0.0010000  0  5  2 19  7 27 26
  21335406.146   -16275654.094 7 -12549654.715 9
  22629397.224     6848268.591 7   5379559.812 9
  22087485.942   -11819139.631 7  -8969430.115 9
  20912683.786   -10967589.902 7  -8467517.220 9
  23616424.583    -5244110.304 6  -3928912.134 9
 94  3  1 23 13 30.0010000  0  5  2 19  7 27 26
  21335942.021   -16272835.885 7 -12547458.698 9
  22644350.450     6926853.736 6   5440794.937 9
  22075178.106   -11883817.340 7  -9019828.297 9
  20920639.536   -10925779.256 7  -8434937.515 9
  23606169.130    -5298004.320 6  -3970907.433 9
 94  3  1 23 14  0.0010000  0  5  2 19  7 27 26
  21336515.599   -16269823.660 7 -12545111.499 9
  22659350.880     7005680.827 6   5502218.589 9
  22062937.825   -11948141.642 7  -9069951.094 9
  20928667.622   -10883593.386 7  -8402065.418 9
  23595987.200    -5351509.848 6  -4012600.011 9
 94  3  1 23 14 30.0010000  0  5  2 19  7 27 26
  21337129.427   -16266597.404 7 -12542597.514 9
  22674401.692     7084771.895 6   5563847.935 9
  22050769.552   -12012085.528 7  -9119777.462 9
  20936767.778   -10841029.365 7  -8368898.661 9
  23585881.497    -5404614.604 6  -4053980.306 9
 94  3  1 23 15  0.0010000  0  5  2 19  7 27 26
  21337785.091   -16263149.392 7 -12539910.734 9
  22689500.146     7164115.596 6   5625674.142 9
  22038676.974   -12075634.300 7  -9169295.959 9
  20944937.419   -10798093.615 7  -8335442.252 9
  23575849.958    -5457329.942 6  -4095057.138 9
 94  3  1 23 15 30.0010000  0  5  2 19  7 27 26
  21338484.419   -16259474.305 7 -12537047.019 9
  22704647.036     7243711.711 6   5687697.041 9
  22026657.372   -12138798.256 7  -9218514.589 9
  20953179.606   -10754781.026 7  -8301692.190 9
  23565892.653    -5509656.175 6  -4135830.787 9
 94  3  1 23 16  0.0010000  0  5  2 19  7 27 26
  21339235.278   -16255530.248 7 -12533973.719 9
  22719847.739     7323595.158 6   5749943.839 9
  22014715.661   -12201552.922 7  -9267414.285 9
  20961500.427   -10711058.939 7  -8267623.049 9
  23556016.630    -5561556.428 6  -4176272.486 9
 94  3  1 23 16 30.0010000  0  5  2 19  7 27 26
  21340037.747   -16251313.737 7 -12530688.114 9
  22735102.513     7403756.395 6   5812407.089 9
  22002851.825   -12263894.353 7  -9315991.987 9
  20969897.224   -10666931.608 7  -8233238.134 9
  23546222.630    -5613023.104 6  -4216376.338 9
 94  3  1 23 17  0.0010000  0  5  2 19  7 27 26
  21340888.841   -16246840.831 7 -12527202.712 9
  22750406.497     7484177.854 6   5875073.120 9
  21991060.435   -12325857.198 7  -9364274.695 9
  20978368.036   -10622414.073 7  -8198549.153 9
  23536509.458    -5664065.634 6  -4256149.689 9
 94  3  1 23 17 30.0010000  0  5  2 19  7 27 26
  21341788.888   -16242110.479 7 -12523516.707 9
  22765764.833     7564888.046 6   5937964.134 9
  21979344.185   -12387428.398 7  -9412252.224 9
  20986918.263   -10577483.688 7  -8163538.482 9
  23526881.364    -5714661.973 6  -4295575.348 9
 94  3  1 23 18  0.0010000  0  5  2 19  7 27 26
  21342731.927   -16237154.119 7 -12519654.597 9
  22781174.724     7645866.178 6   6001063.931 9
  21967701.435   -12448611.107 7  -9459927.024 9
  20995540.942   -10532172.078 7  -8128230.746 9
  23517335.724    -5764825.823 6  -4334664.015 9
 94  3  1 23 18 30.0010000  0  5  2 19  7 27 26
  21343713.153   -16231997.183 7 -12515636.197 9
  22796637.583     7727120.858 6   6064379.209 9
  21956133.474   -12509402.194 7  -9507296.674 9
  21004236.521   -10486478.407 7  -8092625.315 9
  23507869.872    -5814567.975 6  -4373424.109 9
 94  3  1 23 19  0.0010000  0  5  2 19  7 27 26
  21344730.685   -16226650.010 7 -12511469.557 9
  22812153.630     7808662.136 6   6127917.804 9
  21944639.474   -12569803.505 7  -9554362.596 9
  21013006.685   -10440388.924 7  -8056711.444 9
  23498482.919    -5863894.226 6  -4411860.105 9
 94  3  1 23 19 30.0010000  0  5  2 19  7 27 26
  21345782.685   -16221123.432 7 -12507163.125 9
  22827721.700     7890473.215 6   6191666.633 9
  21933222.646   -12629797.571 7  -9601111.185 9
  21021854.130   -10393892.945 7  -8020480.818 9
  23489175.270    -5912806.696 6  -4449973.690 9
 94  3  1 23 20  0.0010000  0  5  2 19  7 27 26
  21346873.864   -16215389.649 7 -12502695.237 9
  22843341.872     7972559.154 6   6255629.642 9
  21921885.466   -12689374.919 7  -9647535.072 9
  21030782.036   -10346979.232 7  -7983924.690 9
  23479949.060    -5961289.537 6  -4487752.479 9
 94  3  1 23 20 30.0010000  0  5  2 19  7 27 26
  21348004.974   -16209445.054 7 -12498063.071 9
  22859011.099     8054899.900 6   6319791.209 9
  21910625.442   -12748545.633 7  -9693642.094 9
  21039789.661   -10299644.418 7  -7947040.438 9
  23470802.708    -6009351.417 5  -4525203.248 9
 94  3  1 23 21  0.0010000  0  5  2 19  7 27 26
  21349181.271   -16203260.682 7 -12493244.063 9
  22874726.278     8137481.880 6   6384140.738 9
  21899446.013   -12807295.493 7  -9739421.179 9
  21048877.599   -10251885.766 7  -7909825.914 9
  23461740.216    -6056973.379 5  -4562311.211 9
 94  3  1 23 21 30.0010000  0  5  2 19  7 27 26
  21350404.622   -16196832.283 7 -12488234.918 9
  22890486.810     8220303.803 6   6448677.249 9
  21888348.552   -12865613.707 7  -9784863.909 9
  21058043.981   -10203717.010 7  -7872291.827 9
  23452765.130    -6104139.248 6  -4599063.782 9
 94  3  1 23 22  0.0010000  0  5  2 19  7 27 26
  21351675.341   -16190156.587 7 -12483033.072 9
  22906293.583     8303370.355 6   6513404.364 9
  21877332.646   -12923504.422 7  -9829973.521 9
  21067285.935   -10155150.613 7  -7834447.903 9
  23443877.403    -6150846.005 6  -4635458.619 9
 94  3  1 23 22 30.0010000  0  5  2 19  7 27 26
  21352990.091   -16183246.082 7 -12477648.252 9
  22922147.005     8386679.203 6   6578320.298 9
  21866397.286   -12980963.776 7  -9874747.009 9
  21076602.817   -10106189.288 7  -7796296.228 9
  23435075.146    -6197102.728 6  -4671502.776 9
 94  3  1 23 23  0.0010000  0  5  2 19  7 27 26
  21354350.864   -16176096.630 7 -12472077.242 9
  22938051.606     8470259.224 6   6643447.537 9
  21855545.161   -13037995.323 7  -9919187.153 9
  21085996.185   -10056827.575 7  -7757832.570 9
  23426357.302    -6242912.694 6  -4707198.816 9
 94  3  1 23 23 30.0010000  0  5  2 19  7 27 26
  21355754.700   -16168719.067 7 -12466328.484 9
  22954010.794     8554120.204 6   6708793.695 9
  21844771.974   -13094609.539 7  -9963302.097 9
  21095466.075   -10007061.208 7  -7719053.601 9
  23417720.153    -6288296.874 6  -4742563.053 9
 94  3  1 23 24  0.0010000  0  5  2 19  7 27 26
  21357204.099   -16161100.763 7 -12460392.138 9
  22970023.685     8638270.809 6   6774365.531 9
  21834077.333   -13150808.102 7 -10007093.150 9
  21105017.005    -9956869.394 7  -7679943.108 9
  23409161.458    -6333276.836 6  -4777612.328 9
 94  3  1 23 24 30.0010000  0  5  2 19  7 27 26
  21358701.021   -16153234.637 7 -12454262.680 9
  22986095.474     8722730.166 6   6840177.961 9
  21823463.731   -13206582.426 7 -10050553.629 9
  21114652.700    -9906236.200 7  -7640488.680 9
  23400682.302    -6377838.127 6  -4812335.375 9
 94  3  1 23 25  0.0010000  0  5  2 19  7 27 26
  21360242.185   -16145135.433 7 -12447951.609 9
  23002225.231     8807489.136 6   6906223.854 9
  21812929.403   -13261939.228 7 -10093688.763 9
  21124369.333    -9855173.587 7  -7600699.644 9
  23392283.685    -6421970.868 6  -4846724.494 9
 94  3  1 23 25 30.0010000  0  5  2 19  7 27 26
  21361824.216   -16136823.622 7 -12441474.872 9
  23018405.685     8892518.154 6   6972480.167 9
  21802475.099   -13316877.635 7 -10136497.877 9
  21134166.239    -9803691.839 7  -7560584.009 9
  23383970.599    -6465659.579 6  -4880767.611 9
 94  3  1 23 26  0.0010000  0  5  2 19  7 27 26
  21363446.622   -16128298.463 7 -12434831.881 9
  23034637.169     8977814.871 6   7038945.074 9
  21792102.411   -13371386.675 7 -10178972.413 9
  21144042.575    -9751789.269 7  -7520140.471 9
  23375747.810    -6508870.509 6  -4914438.445 9
 94  3  1 23 26 30.0010000  0  5  2 19  7 27 26
  21365108.325   -16119565.745 7 -12428027.151 9
  23050916.028     9063364.685 6   7105607.208 9
  21781812.005   -13425461.513 7 -10221108.609 9
  21153996.677    -9699481.827 7  -7479381.433 9
  23367620.575    -6551577.234 6  -4947716.390 9
 94  3  1 23 27  0.0010000  0  5  2 19  7 27 26
  21366811.177   -16110615.136 7 -12421052.635 9
  23067241.278     9149156.780 6   7172458.135 9
  21771605.036   -13479100.308 7 -10262905.045 9
  21164026.981    -9646774.092 7  -7438310.495 9
  23359586.302    -6593800.433 6  -4980617.570 9
 94  3  1 23 27 30.0010000  0  5  2 19  7 27 26
  21368557.138   -16101438.358 7 -12413901.892 9
  23083613.560     9235191.626 6   7239498.225 9
  21761480.755   -13532303.389 7 -10304361.958 9
  21174132.200    -9593667.605 7  -7396928.841 9
  23351639.778    -6635554.830 6  -5013153.432 9
 94  3  1 23 28  0.0010000  0  5  2 19  7 27 26
  21370346.927   -16092035.043 7 -12406574.628 9
  23100034.489     9321479.675 6   7306735.602 9
  21751439.200   -13585070.021 7 -10345478.783 9
  21184313.114    -9540169.574 7  -7355242.073 9
  23343781.396    -6676851.840 6  -5045332.893 9
 94  3  1 23 28 30.0010000  0  5  2 19  7 27 26
  21372179.099   -16082406.651 7 -12399071.985 9
  23116503.247     9408023.588 6   7374172.365 9
  21741478.411   -13637415.436 7 -10386267.391 9
  21194567.544    -9486282.000 7  -7313251.779 9
  23336006.388    -6717710.848 6  -5077171.040 9
 94  3  1 23 29  0.0010000  0  5  2 19  7 27 26
  21374052.950   -16072558.707 7 -12391398.248 9
  23133021.880     9494832.806 6   7441815.849 9
  21731597.575   -13689340.642 7 -10426728.552 9
  21204896.919    -9431999.955 7  -7270954.107 9
  23328316.067    -6758123.451 6  -5108661.355 9
 94  3  1 23 29 30.0010000  0  5  2 19  7 27 26
  21375964.692   -16062513.267 7 -12383570.623 9
  23149591.989     9581909.141 6   7509667.485 9
  21721797.442   -13740841.429 7 -10466859.001 9
  21215302.567    -9377318.011 7  -7228344.822 9
  23320716.372    -6798057.824 6  -5139779.037 9
 94  3  1 23 30  0.0010000  0  5  2 19  7 27 26
  21377912.505   -16052276.584 7 -12375593.977 9
  23166212.067     9669244.119 6   7577720.642 9
  21712078.130   -13791919.197 7 -10506659.816 9
  21225785.239    -9322229.786 7  -7185418.951 9
  23313208.825    -6837511.924 6  -5170522.471 9
 94  3  1 23 30 30.0010000  0  5  2 19  7 27 26
  21379896.919   -16041849.102 7 -12367468.653 9
  23182880.325     9756836.137 6   7645974.108 9
  21702439.771   -13842566.659 7 -10546125.323 9
  21236347.083    -9266730.058 7  -7142172.429 9
  23305792.169    -6876484.575 6  -5200890.740 9
 94  3  1 23 31  0.0010000  0  5  2 19  7 27 26
  21381915.544   -16031239.877 7 -12359201.715 9
  23199594.653     9844674.938 6   7714419.865 9
  21692887.099   -13892764.423 7 -10585240.427 9
  21246985.216    -9210824.600 7  -7098609.754 9
  23298466.802    -6914980.225 6  -5230887.320 9
 94  3  1 23 31 30.0010000  0  5  2 19  7 27 26
  21383972.403   -16020432.301 7 -12350780.205 9
  23216358.849     9932769.237 6   7783064.710 9
  21683422.380   -13942502.402 7 -10623997.258 9
  21257702.771    -9154503.176 7  -7054722.948 9
  23291230.489    -6953006.768 6  -5260518.365 9
 94  3  1 23 32  0.0010000  0  5  2 19  7 27 26
  21386070.841   -16009406.387 7 -12342188.571 9
  23233172.114    10021119.324 6   7851908.876 9
  21674044.458   -13991785.076 7 -10662399.301 9
  21268498.888    -9097770.678 7  -7010515.825 9
  23284079.489    -6990586.048 6  -5289800.889 9
 94  3  1 23 32 30.0010000  0  5  2 19  7 27 26
  21388211.489   -15998157.027 7 -12333422.825 9
  23250033.942    10109731.390 6   7920957.163 9
  21664753.130   -14040609.738 7 -10700444.456 9
  21279371.997    -9040631.690 7  -6965991.961 9
  23277014.146    -7027716.883 6  -5318733.970 9
 94  3  1 23 33  0.0010000  0  5  2 19  7 27 26
  21390395.700   -15986677.186 7 -12324477.476 9
  23266943.122    10198591.247 6   7990198.556 9
  21655549.255   -14088975.241 7 -10738131.818 9
  21290322.239    -8983087.247 7  -6921152.156 9
  23270034.521    -7064395.624 6  -5347314.786 9
 94  3  1 23 33 30.0010000  0  5  2 19  7 27 26
  21392623.864   -15974965.786 7 -12315351.699 9
  23283899.177    10287697.273 6   8059631.766 9
  21646432.028   -14136889.273 7 -10775467.392 9
  21301349.169    -8925139.063 7  -6875997.748 9
  23263141.091    -7100617.766 6  -5375539.795 9
 94  3  1 23 34  0.0020000  0  5  2 19  7 27 26
  21394892.877   -15963044.023 7 -12306062.005 9
  23300901.721    10377045.662 6   8129253.821 9
  21637399.635   -14184355.086 7 -10812453.701 9
  21312452.283    -8866793.085 7  -6830533.367 9
  23256336.096    -7136378.986 6  -5403405.663 9
 94  3  1 23 34 30.0020000  0  5  2 19  7 27 26
  21397197.158   -15950935.562 7 -12296626.823 9
  23317947.299    10466621.254 6   8199052.915 9
  21628451.541   -14231376.677 7 -10849093.857 9
  21323628.768    -8808060.409 7  -6784767.663 9
  23249621.018    -7171669.735 6  -5430904.907 9
 94  3  1 23 35  0.0020000  0  5  2 19  7 27 26
  21399534.033   -15938652.975 7 -12287055.968 9
  23335036.400    10556422.673 6   8269027.993 9
  21619586.088   -14277965.983 7 -10885397.176 9
  21334878.666    -8748942.158 7  -6738701.516 9
  23242996.314    -7206481.217 6  -5458030.713 9
 94  3  1 23 35 30.0020000  0  5  2 19  7 27 26
  21401902.385   -15926209.056 7 -12277359.397 9
  23352170.010    10646460.063 6   8339186.942 9
  21610798.393   -14324144.959 7 -10921380.759 9
  21346200.807    -8689444.463 7  -6692339.696 9
  23236462.260    -7240816.749 6  -5484785.625 9
 94  3  1 23 36  0.0020000  0  5  2 19  7 27 26
  21404302.260   -15913598.570 7 -12267533.034 9
  23369348.900    10736731.143 6   8409527.967 9
  21602088.635   -14369914.300 7 -10957045.140 9
  21357595.471    -8629563.070 7  -6645678.885 9
  23230021.119    -7274663.840 6  -5511159.932 9
 94  3  1 23 36 30.0020000  0  5  2 19  7 27 26
  21406733.799   -15900817.931 7 -12257574.092 9
  23386566.869    10827215.250 6   8480035.003 9
  21593457.025   -14415274.551 7 -10992390.754 9
  21369062.064    -8569306.730 7  -6598725.916 9
  23223672.275    -7308028.245 6  -5537158.137 9
 94  3  1 23 37  0.0020000  0  5  2 19  7 27 26
  21409201.486   -15887852.043 7 -12247470.795 9
  23403827.197    10917915.248 6   8550710.268 9
  21584905.283   -14460210.860 7 -11027406.020 9
  21380599.666    -8508676.918 7  -6551481.929 9
  23217414.916    -7340910.918 6  -5562780.966 9
 94  3  1 23 37 30.0020000  0  5  2 19  7 27 26
  21411707.752   -15874684.495 7 -12237210.356 9
  23421129.424    11008839.038 6   8621559.899 9
  21576439.939   -14504697.964 7 -11062071.261 9
  21392209.408    -8447663.305 7  -6503938.878 9
  23211249.697    -7373311.334 6  -5588028.006 9
 94  3  1 23 38  0.0020000  0  5  2 19  7 27 26
  21414252.791   -15861309.571 7 -12226788.330 9
  23438473.369    11099986.846 6   8692584.097 9
  21568063.478   -14548717.277 7 -11096371.987 9
  21403895.166    -8386257.538 7  -6456090.238 9
  23205176.135    -7405227.417 6  -5612897.652 9
 94  3  1 23 38 30.0020000  0  5  2 19  7 27 26
  21416836.244   -15847730.869 7 -12216207.509 9
  23455862.885    11191371.818 6   8763793.101 9
  21559774.635   -14592271.836 7 -11130310.568 9
  21415655.291    -8324461.217 7  -6407937.288 9
  23199191.627    -7436677.705 6  -5637404.329 9
 94  3  1 23 39  0.0020000  0  5  2 19  7 27 26
  21419457.979   -15833953.061 7 -12205471.537 9
  23473300.564    11283003.393 6   8835194.257 9
  21551574.205   -14635368.452 7 -11163892.307 9
  21427489.963    -8262266.383 7  -6359473.801 9
  23193294.463    -7467669.428 6  -5661553.688 9
 94  3  1 23 39 30.0020000  0  5  2 19  7 27 26
  21422114.697   -15819992.029 7 -12194592.803 9
  23490782.822    11374873.566 6   8906781.330 9
  21543459.119   -14678013.302 7 -11197122.021 9
  21439400.455    -8199674.055 7  -6310700.566 9
  23187483.658    -7498203.059 6  -5685346.101 9
 94  3  1 23 40  0.0020000  0  5  2 19  7 27 26
  21424805.525   -15805851.943 7 -12183574.544 9
  23508311.564    11466982.222 6   8978554.235 9
  21535429.643   -14720208.939 7 -11230001.694 9
  21451386.150    -8136692.708 7  -6261624.217 9
  23181760.041    -7528279.113 6  -5708781.960 9
 94  3  1 23 40 30.0020000  0  5  2 19  7 27 26
  21427532.471   -15791523.780 7 -12172409.722 9
  23525885.986    11559338.064 6   9050519.758 9
  21527487.135   -14761945.721 7 -11262523.823 9
  21463444.049    -8073327.655 7  -6212248.882 9
  23176128.314    -7557873.148 6  -5731842.221 9
 94  3  1 23 41  0.0020000  0  6  2 15 19  7 27 26
  21430294.307   -15777010.659 7 -12161100.778 9
  24579097.861       -5778.036 2
  23543504.768    11651922.084 6   9122663.081 9
  21519632.744   -14803221.902 7 -11294687.041 9
  21475572.541    -8009586.789 7  -6162580.691 9
  23170590.861    -7586973.923 6  -5754518.116 9
 94  3  1 23 41 30.0020000  0  6  2 15 19  7 27 26
  21433092.518   -15762303.213 7 -12149640.413 9
  24576160.166      -21223.303 2
  23561166.252    11744739.333 6   9194988.150 9
  21511866.955   -14844031.191 7 -11326486.447 9
  21487774.486    -7945471.787 7  -6112620.964 9
  23165149.580    -7615567.306 6  -5776798.638 9
 94  3  1 23 42  0.0020000  0  6  2 15 19  7 27 26
  21435928.393   -15747399.145 7 -12138026.836 9
  24573307.174      -36205.765 2
  23578873.814    11837789.814 6   9267494.964 9
  21504189.213   -14884377.463 7 -11357925.062 9
  21500047.354    -7880978.181 7  -6062366.233 9
  23159803.400    -7643659.412 6  -5798688.567 9
 94  3  1 23 42 30.0020000  0  6  2 15 19  7 27 26
  21438799.549   -15732312.270 7 -12126270.818 9
  24570543.885      -50722.564 2
  23596622.275    11931057.660 6   9340171.138 9
  21496596.799   -14924275.905 7 -11389014.724 9
  21512393.486    -7816097.831 7  -6011810.131 9
  23154551.557    -7671260.248 6  -5820195.696 9
 94  3  1 23 43  0.0020000  0  6  2 15 19  7 27 26
  21441706.541   -15717038.656 7 -12114369.287 9
  24567872.619      -64767.465 2
  23614410.502    12024534.570 6   9413010.223 9
  21489091.721   -14963715.348 7 -11419746.725 9
  21524815.885    -7750816.274 7  -5960941.407 9
  23149391.275    -7698377.448 6  -5841325.948 9
 94  3  1 23 43 30.0020000  0  6  2 15 19  7 27 26
  21444646.525   -15701589.304 7 -12102330.814 9
  24565292.713      -78341.311 3
  23632238.010    12118220.722 6   9486012.356 9
  21481674.025   -15002693.770 7 -11450119.484 9
  21537315.471    -7685131.217 7  -5909758.258 9
  23144322.525    -7725011.238 6  -5862079.518 9
 94  3  1 23 44  0.0020000  0  6  2 15 19  7 27 26
  21447617.830   -15685973.337 7 -12090162.513 9
  24562796.479      -91441.650 2
  23650104.408    12212109.224 6   9559172.165 9
  21474344.182   -15041213.924 7 -11480135.152 9
  21549892.252    -7619038.490 7  -5858257.450 9
  23139344.221    -7751168.046 6  -5882461.424 9
 94  3  1 23 44 30.0020000  0  6  2 15 19  7 27 26
  21450623.338   -15670178.369 7 -12077854.724 9
  24560394.814     -104062.155 3
  23668009.439    12306200.871 6   9632490.261 9
  21467102.221   -15079271.662 7 -11509790.494 9
  21562546.596    -7552538.177 7  -5806439.043 9
  23134462.338    -7776825.380 6  -5902454.138 9
 94  3  1 23 45  0.0020000  0  6  2 15 19  7 27 26
  21453666.494   -15654184.736 7 -12065392.139 9
  24558084.869     -116199.449 2
  23685956.361    12400513.698 6   9705980.713 9
  21459949.908   -15116857.801 7 -11539078.349 9
  21575279.971    -7485627.569 7  -5754300.927 9
  23129677.877    -7801969.081 6  -5922046.611 9
 94  3  1 23 45 30.0020000  0  6  2 15 19  7 27 26
  21456747.033   -15637996.569 7 -12052777.979 9
  24555867.557     -127852.701 3
  23703949.064    12495065.757 6   9779657.577 9
  21452884.244   -15153989.337 7 -11568011.972 9
  21588091.822    -7418298.999 7  -5701837.124 9
  23124989.971    -7826606.836 6  -5941244.845 9
 94  3  1 23 46  0.0020000  0  6  2 15 19  7 27 26
  21459866.447   -15621605.238 7 -12040005.509 9
  24553741.533     -139024.082 3
  23721987.299    12589854.503 6   9853518.864 9
  21445902.971   -15190674.618 7 -11596597.864 9
  21600981.986    -7350560.293 7  -5649053.734 9
  23120396.072    -7850745.225 6  -5960053.964 9
 94  3  1 23 46 30.0020000  0  6  2 15 19  7 27 26
  21463025.502   -15605004.888 7 -12027070.161 9
  24551708.947     -149712.322 3     -5231.58116
  23740071.768    12684886.902 6   9927570.000 9
  21439008.260   -15226906.582 7 -11624830.527 9
  21613947.830    -7282427.498 7  -5595963.265 9
  23115899.104    -7874378.279 6  -5978469.316 9
 94  3  1 23 47  0.0020000  0  6  2 15 19  7 27 26
  21466224.018   -15588197.277 7 -12013973.303 9
  24549768.213     -159911.187 3    -13178.650 2
  23758202.283    12780171.064 5  10001817.342 9
  21432202.236   -15262671.414 7 -11652699.195 9
  21626986.721    -7213908.131 7  -5542571.576 9
  23111494.361    -7897525.290 6  -5996505.933 9
 94  3  1 23 47 30.0020000  0  6  2 15 19  7 27 26
  21469458.275   -15571201.199 7 -12000729.595 9
  24547919.416     -169620.531 3
  23776379.533    12875689.793 5  10076247.442 9
  21425486.314   -15297965.334 7 -11680200.915 9
  21640093.127    -7145029.220 7  -5488899.708 9
  23107179.135    -7920197.964 6  -6014172.936 9
 94  3  1 23 48  0.0020000  0  6  2 15 19  7 27 26
  21472731.314   -15554001.628 7 -11987327.325 9
  24546167.611     -178835.005 3
  23794600.791    12971442.679 5  10150860.023 9
  21418862.721   -15332770.979 7 -11707322.159 9
  21653267.947    -7075798.396 7  -5434953.635 9
  23102959.189    -7942376.255 6  -6031454.689 9
 94  3  1 23 48 30.0020000  0  6  2 15 19  7 27 26
  21476040.064   -15536613.544 7 -11973778.163 9
  24544505.807     -187560.122 3
  23812864.611    13067424.454 5  10225650.939 9
  21412331.025   -15367094.010 7 -11734067.343 9
  21666508.986    -7006218.420 7  -5380735.503 9
  23098829.775    -7964072.932 6  -6048361.151 9
 94  3  1 23 49  0.0020000  0  6  2 15 19  7 27 26
  21479384.197   -15519040.319 7 -11960084.730 9
  24542939.963     -195789.903 4
  23831175.713    13163640.645 5  10300624.510 9
  21405890.596   -15400938.412 7 -11760439.570 9
  21679819.596    -6936266.396 7  -5326227.455 9
  23094795.369    -7985276.674 6  -6064883.511 9
 94  3  1 23 49 30.0020000  0  6  2 15 19  7 27 26
  21482762.197   -15501288.777 7 -11946252.359 9
  24541467.744     -203522.998 4      -389.72715
  23849530.369    13260092.472 6  10375781.710 9
  21399539.994   -15434311.721 7 -11786444.701 9
  21693206.830    -6865918.794 7  -5271411.161 9
  23090859.361    -8005962.779 6  -6081002.523 9
 94  3  1 23 50  0.0020000  0  6  2 15 19  7 27 26
  21486175.221   -15483354.132 7 -11932277.303 9
  24540091.627     -210756.441 4     -6026.225 6
  23867928.244    13356775.739 6  10451119.240 9
  21393279.385   -15467211.167 7 -11812080.593 9
  21706672.588    -6795155.199 7  -5216270.733 9
  23087024.713    -8026110.250 6  -6096701.823 9
 94  3  1 23 50 30.0020000  0  6  2 15 19  7 27 26
  21489617.260   -15465265.228 7 -11918182.041 9
  24538808.932     -217492.966 4    -11275.423 6
  23886365.408    13453664.139 6  10526616.622 9
  21387106.557   -15499647.942 7 -11837355.960 9
  21720215.697    -6723985.813 7  -5160814.089 9
  23083291.854    -8045726.991 6  -6111987.565 9
 94  3  1 23 51  0.0020000  0  6  2 15 19  7 27 26
  21493090.768   -15447011.953 7 -11903958.702 9
  24537623.729     -223725.747 5    -16132.051 6
  23904840.502    13550750.743 6  10602268.438 9
  21381025.768   -15531603.613 7 -11862256.446 9
  21733836.674    -6652407.642 7  -5105038.915 9
  23079662.752    -8064795.531 6  -6126846.154 9
 94  3  1 23 51 30.0020000  0  6  2 15 19  7 27 26
  21496599.510   -15428572.849 7 -11889590.565 9
  24536537.002     -229439.534 5    -20584.349 7
  23923351.752    13648032.906 5  10678072.638 9
  21375040.760   -15563055.522 7 -11886764.388 9
  21747536.713    -6580413.705 7  -5048939.768 9
  23076140.986    -8083305.773 6  -6141269.695 9
 94  3  1 23 52  0.0020000  0  6  2 15 19  7 27 26
  21500141.846   -15409957.888 7 -11875085.391 9
  24535544.814     -234645.915 5    -24641.158 7
  23941899.549    13745498.073 5  10754019.431 9
  21369150.588   -15594007.788 7 -11910883.003 9
  21761309.932    -6508033.620 7  -4992539.713 9
  23072721.893    -8101274.939 6  -6155271.612 9
 94  3  1 23 52 30.0020000  0  6  2 15 19  7 27 26
  21503717.088   -15391168.863 7 -11860444.578 9
  24534652.572     -239344.336 5    -28302.263 7
  23960484.939    13843164.461 5  10830123.029 9
  21363354.549   -15624465.451 7 -11934616.211 9
  21775156.721    -6435268.779 7  -4935839.876 9
  23069404.018    -8118710.930 6  -6168858.081 9
 94  3  1 23 53  0.0020000  0  6  2 15 19  7 27 26
  21507329.275   -15372187.164 7 -11845653.627 9
  24533856.791     -243520.497 5    -31556.366 9
  23979116.377    13941074.005 5  10906416.092 9
  21357657.408   -15654401.817 7 -11957943.216 9
  21789081.744    -6362092.389 7  -4878819.341 9
  23066191.260    -8135595.476 6  -6182014.845 9
 94  3  1 23 53 30.0020000  0  6  2 15 19  7 27 26
  21510976.111   -15353023.446 7 -11830720.854 9
  24533160.150     -247177.786 5    -34406.132 7
  23997795.330    14039234.524 5  10982904.751 9
  21352057.619   -15683831.229 7 -11980875.195 9
  21803084.268    -6288509.176 7  -4821481.792 9
  23063080.525    -8151940.039 6  -6194750.843 9
 94  3  1 23 54  0.0020000  0  7  2 15 13 19  7 27 26
  21514657.924   -15333676.491 7 -11815645.294 9
  24532565.291     -250310.804 5    -36847.410 9
  24888647.682      -82093.23513    -66751.88319
  24016525.721    14137660.557 5  11059600.271 9
  21346553.963   -15712751.704 7 -12003410.596 9
  21817163.893    -6214521.535 7  -4763829.120 9
  23060072.963    -8167748.619 6  -6207069.202 9
 94  3  1 23 54 30.0020000  0  7  2 15 13 19  7 27 26
  21518376.510   -15314135.270 7 -11800418.368 9
  24532068.643     -252916.614 5    -38877.874 9
  24868288.666     -189081.514 3   -150119.199 9
  24035305.455    14236349.446 5  11136500.644 9
  21341147.189   -15741164.600 7 -12025550.483 9
  21831321.900    -6140120.854 7  -4705854.597 9
  23057164.807    -8183030.747 6  -6218977.339 9
 94  3  1 23 55  0.0020000  0  6  2 15 19  7 27 26
  21522132.369   -15294397.031 7 -11785037.914 9
  24531670.744     -255003.744 5    -40504.170 9
  24054130.627    14335275.600 5  11213585.881 9
  21335835.674   -15769078.216 7 -12047301.323 9
  21845554.955    -6065323.709 7  -4647571.136 9
  23054352.885    -8197804.779 6  -6230489.552 9
 94  3  1 23 55 30.0020000  0  6  2 15 19  7 27 26
  21525928.775   -15274444.664 7 -11769490.613 9
  24531374.057     -256567.496 5    -41722.641 9
  24072997.353    14434415.242 6  11290837.458 9
  21330617.057   -15796502.336 7 -12068670.730 9
  21859861.502    -5990144.742 7  -4588990.158 9
  23051636.268    -8212080.811 6  -6241613.706 9
 94  3  1 23 56  0.0020000  0  6  2 15 19  7 27 26
  21529768.197   -15254269.480 7 -11753769.683 9
  24531177.307     -257601.337 5    -42528.202 9
  24091902.947    14533766.697 5  11368254.109 9
  21325493.932   -15823424.483 7 -12089648.989 9
  21874240.705    -5914577.457 7  -4530106.596 9
  23049016.471    -8225848.502 6  -6252341.754 9
 94  3  1 23 56 30.0020000  0  6  2 15 19  7 27 26
  21533648.361   -15233881.138 7 -11737882.661 9
  24531081.439     -258105.090 5    -42920.718 9
  24110847.002    14633318.845 6  11445827.132 9
  21320465.275   -15849848.506 7 -12110239.100 9
  21888696.330    -5838615.020 7  -4470915.118 9
  23046496.174    -8239092.964 6  -6262662.101 9
 94  3  1 23 57  0.0020000  0  6  2 15 19  7 27 26
  21537567.189   -15213286.233 7 -11721834.668 9
  24531085.572     -258079.600 5    -42900.826 9
  24129827.604    14733061.141 5  11523548.298 9
  21315531.400   -15875778.332 7 -12130444.125 9
  21903224.572    -5762268.059 7  -4411424.010 9
  23044075.252    -8251812.799 6  -6272573.638 9
 94  3  1 23 57 30.0020000  0  6  2 15 19  7 27 26
  21541526.322   -15192481.290 7 -11705623.018 9
  24531192.619     -257518.545 5    -42463.602 9
  24148846.174    14832999.819 6  11601422.486 9
  21310692.408   -15901208.544 7 -12150259.845 9
  21917830.033    -5685515.386 7  -4351616.766 9
  23041757.330    -8263992.853 6  -6282064.571 9
 94  3  1 23 58  0.0020000  0  6  2 15 19  7 27 26
  21545525.189   -15171466.897 7 -11689248.157 9
  24531403.463     -256412.846 5    -41602.006 9
  24167903.971    14933154.564 5  11679465.036 9
  21305949.752   -15926130.560 7 -12169679.556 9
  21932517.369    -5608336.364 7  -4291477.310 9
  23039546.369    -8275610.724 6  -6291117.442 9
 94  3  1 23 58 30.0020000  0  6  2 15 19  7 27 26
  21549563.307   -15150245.761 7 -11672712.206 9
  24531716.947     -254763.444 5    -40316.737 9
  24187003.283    15033523.681 5  11757674.650 9
  21301301.697   -15950553.799 7 -12188710.617 9
  21947282.143    -5530744.183 7  -4231015.908 9
  23037439.955    -8286677.796 6  -6299741.116 9
 94  3  1 23 59  0.0020000  0  6  2 15 19  7 27 26
  21553642.963   -15128808.818 7 -11656008.083 9
  24532134.971     -252571.208 5    -38608.470 9
  24206146.260    15134119.320 5  11836060.778 9
  21296751.885   -15974463.504 7 -12207341.528 9
  21962125.580    -5452741.395 7  -4170234.540 9
  23035436.814    -8297207.264 6  -6307945.873 9
 94  3  1 23 59 30.0020000  0  6  2 15 19  7 27 26
  21557759.307   -15107177.983 8 -11639152.885 9
  24532653.002     -249841.238 5    -36481.187 9
  24225332.486    15234945.577 5  11914626.637 9
  21292300.705   -15997854.862 7 -12225568.527 9
  21977046.252    -5374333.766 7  -4109137.711 9
  23033536.541    -8307192.768 6  -6315726.764 9
 94  3  2  0  0  0.0020000  0  6  2 15 19  7 27 26
  21561910.580   -15085362.395 7 -11622153.723 9
  24533277.541     -246562.557 6    -33926.349 9
  24244567.361    15336024.696 5  11993389.500 9
  21287951.494   -16020711.086 7 -12243378.543 9
  21992039.213    -5295545.167 7  -4047744.030 9
  23031741.689    -8316625.542 6  -6323076.954 9
 94  3  2  0  0 30.0020000  0  6  2 15 19  7 27 26
  21566096.041   -15063365.862 7 -11605013.552 9
  24534005.932     -242738.130 6    -30946.266 9
  24263849.049    15437351.507 5  12072345.389 9
  21283704.893   -16043027.766 7 -12260768.125 9
  22007101.908    -5216390.712 7  -3986065.264 9
  23030049.955    -8325517.804 6  -6330005.969 9
 94  3  2  0  1  0.0020000  0  6  2 15 19  7 27 26
  21570317.588   -15041182.462 7 -11587727.778 9
  24534838.408     -238364.091 6    -27537.888 9
  24283179.939    15538931.176 5  12151498.289 9
  21279562.025   -16064798.331 7 -12277732.163 9
  22022235.393    -5136863.192 7  -3924095.802 9
  23028464.174    -8333849.884 6  -6336498.481 9
 94  3  2  0  1 30.0020000  0  6  2 15 19  7 27 26
  21574571.760   -15018825.641 7 -11570306.876 9
  24535771.541     -233457.427 6    -23714.495 9
  24302553.471    15640738.405 5  12230828.508 9
  21275514.807   -16086066.409 7 -12294304.654 9
  22037435.369    -5056987.704 7  -3861855.182 9
  23026982.939    -8341636.332 6  -6342565.832 9
 94  3  2  0  2  0.0020000  0  6  2 15 19  7 27 26
  21578864.994   -14996266.358 7 -11552728.209 9
  24536808.096     -228005.807 6    -19466.445 9
  24321968.885    15742770.532 5  12310333.977 9
  21271562.721   -16106835.553 7 -12310488.363 9
  22052705.783    -4976741.059 7  -3799325.368 9
  23025606.283    -8348869.085 6  -6348201.718 9
 94  3  2  0  2 30.0020000  0  6  2 15 19  7 27 26
  21583199.971   -14973485.241 7 -11534976.680 9
  24537951.791     -222000.885 6    -14787.263 9
  24341425.150    15845010.273 5  12390001.228 9
  21267704.072   -16127111.058 7 -12326287.424 9
  22068053.650    -4896089.444 7  -3736479.986 9
  23024337.541    -8355536.191 6  -6353396.847 9
 94  3  2  0  3  0.0020000  0  6  2 15 19  7 27 26
  21587575.619   -14950490.709 7 -11517058.855 9
  24539199.494     -215444.902 6     -9678.669 9
  24360916.846    15947445.757 5  12469820.995 9
  21263936.799   -16146908.432 7 -12341713.917 9
  22083479.986    -4815021.681 7  -3673310.331 9
  23023177.189    -8361633.458 6  -6358147.948 9
 94  3  2  0  3 30.0020000  0  6  2 15 19  7 27 26
  21591989.627   -14927294.431 7 -11498983.816 9
  24540551.908     -208335.366 6     -4138.747 9
  24380445.525    16050065.136 5  12549784.060 9
  21260260.822   -16166223.693 7 -12356764.736 9
  22098987.885    -4733529.188 7  -3609809.731 9
  23022124.939    -8367164.024 6  -6362457.453 9
 94  3  2  0  4  0.0020000  0  6  2 15 19  7 27 26
  21596437.885   -14903920.030 7 -11480769.986 9
  24542008.752     -200677.984 6      1828.085 9
  24400007.338    16152860.450 5  12629884.212 9
  21256679.424   -16185046.220 7 -12371431.603 9
  22114573.650    -4651624.117 7  -3545987.628 9
  23021178.393    -8372137.669 6  -6366333.015 9
 94  3  2  0  4 30.0020000  0  6  2 15 19  7 27 26
  21600921.189   -14880359.416 7 -11462411.055 9
  24543573.002     -192460.766 6      8231.163 9
  24419607.744    16255862.673 5  12710145.584 9
  21253194.627   -16203356.101 7 -12385699.007 9
  22130236.471    -4569314.137 7  -3481850.007 9
  23020338.018    -8376553.145 6  -6369773.627 9
 94  3  2  0  5  0.0020000  0  6  2 15 19  7 27 26
  21605438.947   -14856618.865 7 -11443911.912 9
  24545241.807     -183691.245 6     15064.595 9
  24439249.283    16359083.397 5  12790577.213 9
  21249809.643   -16221144.723 7 -12399560.241 9
  22145974.924    -4486609.144 7  -3417404.592 9
  23019600.854    -8380428.049 6  -6372793.002 9
 94  3  2  0  5 30.0020000  0  6  2 15 19  7 27 26
  21609992.393   -14832688.535 7 -11425264.886 9
  24547015.854     -174368.255 6     22329.292 9
  24458936.236    16462536.324 5  12871189.794 9
  21246526.893   -16238397.264 7 -12413003.746 9
  22161786.322    -4403521.247 7  -3352660.809 9
  23018964.971    -8383767.497 6  -6375395.158 9
 94  3  2  0  6  0.0020000  0  6  2 15 19  7 27 26
  21614584.424   -14808557.046 7 -11406461.116 9
  24548896.127     -164485.912 6     30029.863 9
  24478669.439    16566234.950 5  12951993.804 9
  21243347.096   -16255105.948 7 -12426023.466 9
  22177669.518    -4320051.678 7  -3287619.625 9
  23018429.619    -8386578.366 6  -6377585.433 9
 94  3  2  0  6 30.0020000  0  6  2 15 19  7 27 26
  21619214.604   -14784225.290 7 -11387501.295 9
  24550881.205     -154052.739 6     38159.626 9
  24498445.197    16670155.630 5  13032970.881 9
  21240269.877   -16271277.228 7 -12438624.427 9
  22193624.908    -4236204.387 6  -3222284.108 9
  23017995.299    -8388861.327 6  -6379364.343 9
 94  3  2  0  7  0.0020000  0  6  2 15 19  7 27 26
  21623883.564   -14759689.413 7 -11368382.423 9
  24552973.846     -143058.863 6     46726.315 9
  24518261.416    16774288.065 5  13114112.943 9
  21237297.072   -16286899.652 7 -12450797.711 9
  22209656.596    -4151961.979 7  -3156640.701 9
  23017664.768    -8390597.462 6  -6380717.159 9
 94  3  2  0  7 30.0020000  0  6  2 15 19  7 27 26
  21628594.682   -14734935.244 7 -11349093.447 9
  24555176.088     -131485.334 6     55744.676 9
  24538119.916    16878642.566 5  13195428.057 9
  21234430.268   -16301964.988 7 -12462536.903 9
  22225762.799    -4067320.187 7  -3090686.090 9
  23017443.346    -8391761.617 6  -6381624.283 9
 94  3  2  0  8  0.0020000  0  6  2 15 19  7 27 26
  21633344.518   -14709974.268 7 -11329643.329 9
  24557486.635     -119343.597 6     65205.800 9
  24558013.525    16983188.909 5  13276892.645 9
  21231664.658   -16316496.921 7 -12473860.454 9
  22241943.643    -3982290.455 7  -3024429.200 9
  23017330.275    -8392357.557 6  -6382088.636 9
 94  3  2  0  8 30.0020000  0  6  2 15 19  7 27 26
  21638132.018   -14684815.374 7 -11310038.983 9
  24559901.471     -106651.202 6     75096.005 9
  24577942.768    17087912.032 5  13358494.989 9
  21228994.822   -16330525.936 7 -12484792.121 9
  22258195.689    -3896886.431 7  -2957880.640 9
  23017324.361    -8392388.785 6  -6382112.967 9
 94  3  2  0  9  0.0020000  0  6  2 15 19  7 27 26
  21642961.635   -14659435.479 7 -11290262.428 9
  24562427.822      -93372.158 6     85443.320 9
  24597913.713    17192863.616 5  13440275.341 9
  21226425.002   -16344031.470 7 -12495315.880 9
  22274527.752    -3811060.615 7  -2891003.411 9
  23017432.768    -8391819.280 6  -6381669.177 9
 94  3  2  0  9 30.0020000  0  6  2 15 19  7 27 26
  21647834.541   -14633827.640 7 -11270308.258 9
  24565068.486      -79495.995 5     96255.941 9
  24617931.830    17298058.488 5  13522245.288 9
  21223954.736   -16357012.118 7 -12505430.636 9
  22290942.525    -3724801.806 7  -2823788.793 9
  23017656.885    -8390641.135 6  -6380751.123 9
 94  3  2  0 10  0.0020000  0  6  2 15 19  7 27 26
  21652741.611   -14608038.537 7 -11250212.846 9
  24567816.377      -65059.861 6    107504.911 9
  24637989.721    17403459.649 5  13604375.975 9
  21221578.135   -16369502.135 7 -12515163.087 9
  22307433.713    -3638140.793 7  -2756260.762 9
  23017990.291    -8388890.046 6  -6379386.630 9
 94  3  2  0 10 30.0020000  0  6  2 15 19  7 27 26
  21657686.119   -14582055.716 7 -11229966.485 9
  24570675.932      -50032.839 6    119214.283 9
  24658092.830    17509105.965 5  13686697.671 9
  21219301.861   -16381462.609 7 -12524482.905 9
  22324007.807    -3551042.304 7  -2688391.843 9
  23018438.689    -8386534.242 6  -6377550.934 9
 94  3  2  0 11  0.0020000  0  6  2 15 19  7 27 26
  21662662.838   -14555904.814 7 -11209589.153 9
  24573643.494      -34435.605 5    131368.031 9
  24678238.416    17614974.331 5  13769192.387 9
  21217125.924   -16392898.220 7 -12533393.740 9
  22340659.900    -3463533.212 6  -2620202.970 9
  23018997.791    -8383597.672 6  -6375262.686 9
 94  3  2  0 11 30.0020000  0  6  2 15 19  7 27 26
  21667681.197   -14529531.754 7 -11189038.716 9
  24576726.408      -18232.939 5    143993.498 9
  24698432.893    17721091.780 5  13851881.229 9
  21215059.127   -16403759.791 7 -12541857.266 9
  22357391.791    -3375606.330 6  -2551688.549 9
  23019670.057    -8380062.958 6  -6372508.351 9
 94  3  2  0 12  0.0020000  0  6  2 15 19  7 27 26
  21672739.525   -14502949.530 7 -11168325.288 9
  24579920.049       -1450.791 5    157070.535 9
  24718667.416    17827429.486 5  13934741.662 9
  21213097.916   -16414065.097 7 -12549887.335 9
  22374195.869    -3287305.973 7  -2482883.112 9
  23020449.877    -8375966.364 6  -6369316.179 9
 94  3  2  0 12 30.0020000  0  6  2 15 19  7 27 26
  21677840.814   -14476143.584 7 -11147437.533 9
  24583223.260       15905.125 5    170594.663 9
  24738941.236    17933965.134 5  14017756.367 9
  21211241.744   -16423818.702 7 -12557487.513 9
  22391066.354    -3198649.630 7  -2413800.280 9
  23021331.963    -8371329.170 6  -6365702.762 9
 94  3  2  0 13  0.0020000  0  6  2 15 19  7 27 26
  21682986.400   -14449102.352 7 -11126366.432 9
  24586634.861       33834.909 5    184565.971 9
  24759251.877    18040693.734 5  14100921.411 9
  21209490.439   -16433022.956 7 -12564659.621 9
  22408002.088    -3109649.580 7  -2344449.629 9
  23022313.471    -8366173.136 6  -6361685.055 9
 94  3  2  0 13 30.0020000  0  6  2 15 19  7 27 26
  21688169.908   -14421864.225 7 -11105141.907 9
  24590149.697       52305.966 5    198959.020 9
  24779590.322    18147572.691 5  14184203.617 9
  21207833.471   -16441729.001 7 -12571443.520 9
  22424996.525    -3020344.658 7  -2274861.418 9
  23023385.932    -8360535.112 6  -6357291.772 9
 94  3  2  0 14  0.0020000  0  6  2 15 19  7 27 26
  21693389.916   -14394430.971 7 -11083765.333 9
  24593769.557       71329.696 5    213782.739 9
  24799957.408    18254609.540 5  14267608.877 9
  21206272.057   -16449935.386 7 -12577838.073 9
  22442055.580    -2930699.429 7  -2205008.036 9
  23024557.510    -8354376.682 6  -6352492.973 9
 94  3  2  0 14 30.0020000  0  6  2 15 19  7 27 26
  21698648.721   -14366796.333 7 -11062231.848 9
  24597500.252       90932.264 5    229057.490 9
  24820361.939    18361830.038 5  14351157.202 9
  21204809.111   -16457623.690 7 -12583828.926 9
  22459190.549    -2840654.388 7  -2134843.113 9
  23025836.596    -8347653.058 6  -6347253.774 9
 94  3  2  0 15  0.0020000  0  6  2 15 19  7 27 26
  21703942.986   -14338975.608 7 -11040553.356 9
  24601341.330      111117.690 5    244786.419 9
  24840803.236    18469251.684 5  14434862.291 9
  21203442.853   -16464801.973 7 -12589422.360 9
  22476404.736    -2750189.835 6  -2064351.297 9
  23027227.393    -8340349.359 6  -6341562.562 9
 94  3  2  0 15 30.0020000  0  6  2 15 19  7 27 26
  21709270.400   -14310977.752 7 -11018736.841 9
  24605291.268      131876.915 6    260962.451 9
  24861281.588    18576865.584 5  14518717.186 9
  21202172.674   -16471475.410 7 -12594622.407 9
  22493698.768    -2659310.644 6  -1993536.374 9
  23028730.361    -8332447.177 6  -6335404.995 9
 94  3  2  0 16  0.0020000  0  6  2 15 19  7 27 26
  21714636.025   -14282781.784 7 -10996765.946 9
  24609353.760      153223.303 6    277596.020 9
  24881800.158    18684693.061 5  14602738.520 9
  21201005.322   -16477610.663 7 -12599403.100 9
  22511074.932    -2567999.261 6  -1922384.684 9
  23030351.096    -8323931.574 6  -6328769.438 9
 94  3  2  0 16 30.0020000  0  6  2 15 19  7 27 26
  21720040.197   -14254382.605 7 -10974636.706 9
  24613527.455      175157.887 6    294687.914 9
  24902360.799    18792738.771 5  14686929.881 9
  21199941.432   -16483203.496 7 -12603761.128 9
  22528529.627    -2476274.357 6  -1850910.777 9
  23032082.299    -8314833.857 6  -6321680.286 9
 94  3  2  0 17  0.0020000  0  6  2 15 19  7 27 26
  21725485.330   -14225767.208 7 -10952338.980 9
  24617813.400      197683.201 6    312240.123 9
  24922965.166    18901011.593 5  14771298.209 9
  21198982.729   -16488239.617 7 -12607685.343 9
  22546057.244    -2384167.401 7  -1779139.153 9
  23033923.119    -8305161.958 6  -6314143.727 9
 94  3  2  0 17 30.0020000  0  6  2 15 19  7 27 26
  21730972.330   -14196932.384 7 -10929870.282 9
  24622212.580      220795.751 6    330249.900 9
  24943611.080    19009504.751 5  14855838.232 9
  21198131.619   -16492712.986 7 -12611171.057 9
  22563653.377    -2291698.286 6  -1707085.329 9
  23035871.721    -8294921.861 6  -6306164.417 9
 94  3  2  0 18  0.0020000  0  6  2 15 19  7 27 26
  21736500.393   -14167882.501 7 -10907234.006 9
  24626721.807      244490.962 6    348713.697 9
  24964294.994    19118203.736 5  14940538.660 9
  21197384.916   -16496637.849 7 -12614229.371 9
  22581319.244    -2198861.515 6  -1634745.023 9
  23037923.361    -8284142.028 6  -6297764.536 9
 94  3  2  0 18 30.0020000  0  6  2 15 19  7 27 26
  21742067.189   -14138628.117 7 -10884438.369 9
  24631340.822      268764.291 6    367627.985 9
  24985016.814    19227099.357 5  15025392.280 9
  21196739.830   -16500027.705 7 -12616870.789 9
  22599053.479    -2105668.128 6  -1562126.849 9
  23040078.143    -8272816.395 6  -6288939.353 9
 94  3  2  0 19  0.0020000  0  6  2 15 19  7 27 26
  21747673.416   -14109169.087 7 -10861483.272 9
  24636069.775      293620.674 5    386996.593 9
  25005776.518    19336189.217 5  15110397.264 9
  21196196.479   -16502881.779 7 -12619094.711 9
  22616857.939    -2012107.963 6  -1489222.864 9
  23042343.268    -8260914.288 6  -6279664.974 9
 94  3  2  0 19 30.0020000  0  6  2 15 19  7 27 26
  21753321.111   -14079487.839 7 -10838355.015 9
  24640913.705      319076.560 5    406832.376 9
  25026572.666    19445471.272 4  15195552.017 9
  21195755.244   -16505198.453 7 -12620899.889 9
  22634735.994    -1918158.292 6  -1416015.356 9
  23044721.768    -8248412.089 6  -6269922.995 9
 94  3  2  0 20  0.0020000  0  5  2 15  7 27 26
  21759008.986   -14049599.951 7 -10815065.744 9
  24645871.713      345124.543 6    427129.532 9
  21195415.213   -16506988.298 7 -12622294.548 9
  22652687.377    -1823819.449 6  -1342504.599 9
  23047214.463    -8235316.076 6  -6259718.287 9
 94  3  2  0 20 30.0020000  0  5  2 15  7 27 26
  21764730.908   -14019531.190 7 -10791635.535 9
  24650937.791      371752.754 5    447878.828 9
  21195172.627   -16508261.003 7 -12623286.236 9
  22670708.471    -1729121.862 6  -1268714.316 9
  23049818.674    -8221630.032 6  -6249053.826 9
 94  3  2  0 21  0.0020000  0  5  2 15  7 27 26
  21770488.314   -13989274.277 7 -10768058.713 9
  24656116.525      398964.609 5    469082.880 9
  21195029.939   -16509011.841 7 -12623871.281 9
  22688798.658    -1634056.202 7  -1194637.217 9
  23052533.236    -8207365.016 6  -6237938.226 9
 94  3  2  0 21 30.0020000  0  5  2 15  7 27 26
  21776283.705   -13958820.987 7 -10744328.863 9
  24661406.728      426763.403 5    490744.320 9
  21194987.111   -16509235.708 7 -12624045.698 9
  22706960.955    -1538614.182 7  -1120266.857 9
  23055353.111    -8192545.415 6  -6226390.485 9
 94  3  2  0 22  0.0020000  0  5  2 15  7 27 26
  21782116.291   -13928170.526 7 -10720445.389 9
  24666807.908      455147.534 5    512861.867 9
  21195045.377   -16508929.496 7 -12623807.068 9
  22725195.439    -1442792.301 7  -1045600.502 9
  23058275.439    -8177186.413 6  -6214422.420 9
 94  3  2  0 22 30.0020000  0  5  2 15  7 27 26
  21787989.510   -13897309.276 7 -10696397.661 9
  24672320.854      484116.079 5    535434.766 9
  21195205.807   -16508087.902 7 -12623151.255 9
  22743501.119    -1346592.749 6   -970639.853 9
  23061301.330    -8161282.801 6  -6202029.984 9
 94  3  2  0 23  0.0020000  0  5  2 15  7 27 26
  21793904.416   -13866223.354 7 -10672174.859 9
  24677944.479      513669.472 5    558463.414 9
  21195466.424   -16506718.133 7 -12622083.873 9
  22761881.283    -1250004.939 6   -895376.661 9
  23064432.283    -8144834.119 6  -6189212.824 9
 94  3  2  0 23 30.0020000  0  5  2 15  7 27 26
  21799863.096   -13834910.677 7 -10647775.368 9
  24683679.893      543812.533 5    581951.538 9
  21195825.307   -16504830.421 7 -12620612.899 9
  22780334.197    -1153035.344 6   -819815.981 9
  23067668.447    -8127828.386 6  -6175961.599 9
 94  3  2  0 24  0.0020000  0  5  2 15  7 27 26
  21805863.275   -13803379.865 7 -10623205.889 9
  24689526.900      574538.929 5    605894.205 9
  21196281.385   -16502433.459 7 -12618745.110 9
  22798856.611    -1055700.563 6   -743970.744 9
  23071014.525    -8110244.857 6  -6162260.134 9
 94  3  2  0 24 30.0020000  0  5  2 15  7 27 26
  21811902.939   -13771639.925 7 -10598473.461 9
  24695486.025      605852.359 5    630294.271 9
  21196835.150   -16499524.620 7 -12616478.457 9
  22817446.385     -958009.061 6   -667847.556 9
  23074474.283    -8092063.390 6  -6148092.760 9
 94  3  2  0 25  0.0020000  0  5  2 15  7 27 26
  21817988.338   -13739661.635 7 -10573555.311 9
  24701564.729      637791.919 6    655182.269 9
  21197493.775   -16496064.892 7 -12613782.531 9
  22836110.244     -859930.078 6   -591422.420 9
  23078051.963    -8073259.427 6  -6133440.306 9
 94  3  2  0 25 30.0020000  0  5  2 15  7 27 26
  21824108.463   -13707500.022 7 -10548494.313 9
  24707752.361      670309.782 6    680520.853 9
  21198250.307   -16492089.304 7 -12610684.643 9
  22854837.955     -761518.087 6   -514737.806 9
  23081739.721    -8053882.677 6  -6118341.534 9
 94  3  2  0 26  0.0020000  0  5  2 15  7 27 26
  21830268.049   -13675132.547 7 -10523272.910 9
  24714054.572      703430.834 6    706329.478 9
  21199114.939   -16487544.910 7 -12607143.531 9
  22873635.518     -662735.288 6   -437764.246 9
  23085539.744    -8033910.991 6  -6102779.165 9
 94  3  2  0 26 30.0020000  0  5  2 15  7 27 26
  21836462.221   -13642581.803 7 -10497908.700 9
  24720467.588      737128.252 6    732587.195 9
  21200085.557   -16482444.336 7 -12603169.032 9
  22892499.494     -563600.042 6   -360516.041 9
  23089444.877    -8013391.492 6  -6086789.927 9
 94  3  2  0 27  0.0020000  0  5  2 15  7 27 26
  21842699.549   -13609802.434 7 -10472366.332 9
  24726996.689      771441.149 5    759324.549 9
  21201169.588   -16476747.244 7 -12598729.714 9
  22911441.932     -464058.966 6   -282951.611 9
  23093457.439    -7992306.792 6  -6070360.286 9
 94  3  2  0 27 30.0020000  0  5  2 15  7 27 26
  21848986.619   -13576764.725 7 -10446622.661 9
  24733647.822      806393.156 6    786559.870 9
  21202371.494   -16470431.173 7 -12593808.072 9
  22930466.596     -364085.428 6   -205050.197 9
  23097584.932    -7970616.490 6  -6053458.754 9
 94  3  2  0 28  0.0020000  0  5  2 15  7 27 26
  21855317.564   -13543493.987 7 -10420697.409 9
  24740413.182      841951.334 5    814267.544 9
  21203682.963   -16463536.428 7 -12588435.521 9
  22949567.830     -263707.332 6   -126833.543 9
  23101820.557    -7948355.253 6  -6036112.322 9
 94  3  2  0 28 30.0020000  0  5  2 15  7 27 26
  21861692.119   -13509995.988 7 -10394595.074 9
  24747295.221      878105.232 6    842439.408 9
  21205097.447   -16456104.946 7 -12582644.734 9
  22968740.416     -162949.408 6    -48320.914 9
  23106164.424    -7925526.551 6  -6018323.701 9
 94  3  2  0 29  0.0020000  0  5  2 15  7 27 26
  21868106.799   -13476287.907 7 -10368329.035 9
  24754284.471      914836.102 6    871060.873 9
  21206605.494   -16448178.827 7 -12576468.513 9
  22987981.557      -61840.274 6     30465.388 9
  23110615.963    -7902135.299 6  -6000096.736 9
 94  3  2  0 29 30.0020000  0  5  2 15  7 27 26
  21874566.893   -13442339.132 7 -10341875.444 9
  24761387.064      952163.446 5    900147.111 9
  21208210.768   -16439743.095 7 -12569895.201 9
  23007290.643       39627.256 6    109530.942 9
  23115181.049    -7878146.888 6  -5981404.469 9
 94  3  2  0 30  0.0020000  0  5  2 15  7 27 26
  21881075.018   -13408140.721 7 -10315227.330 9
  24768603.447      990094.758 5    929703.963 9
  21209913.432   -16430797.806 7 -12562924.826 9
  23026670.252      141464.136 6    188884.300 9
  23119860.268    -7853560.965 6  -5962246.602 9
 94  3  2  0 30 30.0020000  0  5  2 15  7 27 26
  21887626.096   -13373712.791 7 -10288400.366 9
  24775934.080     1028614.063 5    959719.028 9
  21211709.189   -16421360.534 7 -12555571.084 9
  23046113.447      243640.199 6    268501.962 9
  23124648.775    -7828395.599 6  -5942637.219 9
 94  3  2  0 31  0.0020000  0  5  2 15  7 27 26
  21894218.682   -13339066.792 7 -10261403.478 9
  24783374.619     1067712.782 5    990185.542 9
  21213601.572   -16411416.086 7 -12547822.140 9
  23065621.393      346158.287 6    348386.149 9
  23129543.822    -7802671.395 6  -5922592.384 9
 94  3  2  0 31 30.0020000  0  5  2 15  7 27 26
  21900852.478   -13304207.430 7 -10234240.343 9
  24790926.486     1107396.133 5   1021107.634 9
  21215593.025   -16400949.796 7 -12539666.575 9
  23085198.158      449032.266 6    428547.642 9
  23134543.658    -7776394.988 6  -5902117.265 9
 94  3  2  0 32  0.0020000  0  5  2 15  7 27 26
  21907523.947   -13269146.570 7 -10206920.185 9
  24798591.525     1147669.435 5   1052489.416 9
  21217686.838   -16389948.817 7 -12531094.364 9
  23104844.533      552274.144 6    508995.808 9
  23139646.994    -7749580.515 6  -5881222.873 9
 94  3  2  0 32 30.0020000  0  5  2 15  7 27 26
  21914227.658   -13233921.936 7 -10179472.420 9
  24806362.791     1188513.693 5   1084316.101 9
  21219878.330   -16378431.544 7 -12522119.847 9
  23124555.088      655856.017 6    589708.905 9
  23144845.893    -7722257.279 6  -5859932.042 9
 94  3  2  0 33  0.0020000  0  5  2 15  7 27 26
  21920964.314   -13198518.651 7 -10151885.441 9
  24814246.658     1229939.386 5   1116595.844 9
  21222168.986   -16366392.860 7 -12512739.035 9
  23144334.619      759797.029 6    670701.858 9
  23150143.783    -7694415.402 6  -5838237.070 9
 94  3  2  0 33 30.0020000  0  5  2 15  7 27 26
  21927735.596   -13162935.933 7 -10124158.647 9
  24822237.580     1271944.931 5   1149327.443 9
  21224555.814   -16353849.505 7 -12502964.974 9
  23164178.963      864078.919 6    751960.424 9
  23155541.205    -7666052.565 6  -5816136.157 9
 94  3  2  0 34  0.0020000  0  5  2 15  7 27 26
  21934544.713   -13127153.567 7 -10096276.273 9
  24830346.197     1314543.089 5   1182520.784 9
  21227041.541   -16340790.869 7 -12492789.390 9
  23184086.729      968694.246 6    833478.807 9
  23161043.463    -7637137.764 6  -5793605.133 9
 94  3  2  0 34 30.0020000  0  5  2 15  7 27 26
  21941392.596   -13091167.393 7 -10068235.091 9
  24838562.564     1357724.606 5   1216168.714 9
  21229620.400   -16327234.477 7 -12482225.947 9
  23204054.330     1073625.984 6    915243.734 9
  23166652.885    -7607658.463 6  -5770634.249 9
 94  3  2  0 35  0.0020000  0  5  2 15  7 27 26
  21948283.205   -13054960.675 7 -10040022.065 9
  24846889.549     1401477.851 5   1250262.132 9
  21232294.924   -16313179.872 7 -12471274.293 9
  23224081.588     1178871.349 6    997253.054 9
  23172371.596    -7577605.404 6  -5747216.285 9
 94  3  2  0 35 30.0030000  0  5  2 15  7 27 26
  21955210.936   -13018550.858 7 -10011650.780 9
  24855321.265     1445793.263 5   1284793.635 9
  21235066.726   -16298615.501 7 -12459925.414 9
  23244166.413     1284417.287 6   1079496.594 9
  23178198.608    -7546983.985 6  -5723355.443 9
 94  3  2  0 36  0.0030000  0  5  2 15  7 27 26
  21962183.226   -12981911.137 7  -9983100.345 9
  24863864.265     1490688.856 5   1319777.227 9
  21237940.858   -16283512.961 7 -12448157.183 9
  23264313.999     1390290.306 6   1161995.000 9
  23184137.038    -7515779.979 6  -5699040.631 9
 94  3  2  0 36 30.0030000  0  5  2 15  7 27 26
  21969198.226   -12945048.879 7  -9954376.509 9
  24872517.187     1536154.313 5   1355204.820 9
  21240918.257   -16267866.719 7 -12435965.290 9
  23284525.929     1496506.809 6   1244761.078 9
  23190179.960    -7484024.477 6  -5674296.103 9
 94  3  2  0 37  0.0030000  0  5  2 15  7 27 26
  21976254.640   -12907967.388 7  -9925481.840 9
  24881277.171     1582190.356 5   1391077.044 9
  21244000.726   -16251666.027 7 -12423341.354 9
  23304804.374     1603067.835 6   1327795.600 9
  23196325.280    -7451732.588 6  -5649133.593 9
 94  3  2  0 37 30.0030000  0  5  2 15  7 27 26
  21983346.476   -12870700.644 7  -9896442.805 9
  24890142.186     1628780.033 5   1427380.688 9
  21247183.585   -16234938.572 7 -12410306.959 9
  23325143.218     1709947.458 6   1411078.358 9
  23202564.772    -7418943.912 6  -5623583.983 9
 94  3  2  0 38  0.0030000  0  5  2 15  7 27 26
  21990474.249   -12833241.374 7  -9867253.758 9
  24899115.702     1675924.273 6   1464116.460 9
  21250463.960   -16217701.279 7 -12396875.284 9
  23345543.952     1817158.252 6   1494619.168 9
  23208898.140    -7385660.633 6  -5597648.963 9
 94  3  2  0 38 30.0030000  0  5  2 15  7 27 26
  21997637.796   -12795598.324 7  -9837921.511 9
  24908192.272     1723632.131 5   1501291.408 9
  21253842.101   -16199950.783 7 -12383043.714 9
  23366009.304     1924699.671 6   1578417.628 9
  23215328.147    -7351871.366 6  -5571319.668 9
 94  3  2  0 39  0.0030000  0  6  2 15  9  7 27 26
  22004834.390   -12757779.220 7  -9808452.076 9
  24917377.601     1771898.583 5   1538901.618 9
  25050547.390      -30639.83213
  21257310.608   -16181723.032 7 -12368840.253 9
  23386531.944     2032546.334 6   1662453.935 9
  23221854.546    -7317574.422 6  -5544594.792 9
 94  3  2  0 39 30.0030000  0  6  2 15  9  7 27 26
  22012061.858   -12719798.016 7  -9778856.339 9
  24926668.280     1820722.437 5   1576946.144 9
  25034652.054     -114173.989 4
  21260867.937   -16163028.022 7 -12354272.701 9
  23407112.640     2140698.757 6   1746728.494 9
  23228479.749    -7282757.054 6  -5517464.380 9
 94  3  2  0 40  0.0030000  0  5  2  9  7 27 26
  22019318.436   -12681665.170 7  -9749142.437 9
  25018761.265     -197678.415 4    -13009.30018
  21264512.194   -16143877.172 7 -12339349.947 9
  23427749.616     2249151.015 6   1831236.706 9
  23235204.085    -7247418.456 6  -5489927.811 9
 94  3  2  0 40 30.0030000  0  5  2  9  7 27 26
  22026607.624   -12643361.029 7  -9719295.055 9
  25002876.140     -281149.960 3    -78051.996 6
  21268247.069   -16124250.207 7 -12324056.193 9
  23448442.562     2357895.089 6   1915972.319 9
  23242032.382    -7211537.202 6  -5461968.397 9
 94  3  2  0 41  0.0030000  0  5  2  9  7 27 26
  22033932.530   -12604868.876 7  -9689301.172 9
  24986996.679     -364597.219 3   -143075.709 6
  21272074.890   -16104136.576 7 -12308383.219 9
  23469193.218     2466933.573 6   2000937.328 9
  23248966.030    -7175100.035 6  -5433575.812 9
 94  3  2  0 41 30.0030000  0  5  2  9  7 27 26
  22041291.421   -12566197.881 7  -9659167.924 9
  24971120.311     -448018.316 3   -208079.072 6
  21275995.405   -16083532.275 7 -12292327.898 9
  23489997.562     2576260.819 6   2086127.331 9
  23256001.874    -7138125.127 6  -5404764.199 9
 94  3  2  0 42  0.0030000  0  5  2  9  7 27 26
  22048691.561   -12527308.480 7  -9628864.499 9
  24955256.444     -531381.774 3   -273037.542 6
  21280011.874   -16062427.185 7 -12275882.362 9
  23510856.827     2685879.069 6   2171544.082 9
  23263139.171    -7100618.959 6  -5375538.620 9
 94  3  2  0 42 30.0030000  0  5  2  9  7 27 26
  22056141.530   -12488158.917 7  -9598358.349 9
  24939415.327     -614629.805 3   -337906.033 7
  21284127.890   -16040796.396 7 -12259027.186 9
  23531776.233     2795815.798 6   2257209.014 9
  23270382.562    -7062557.351 6  -5345880.226 9
 94  3  2  0 43  0.0030000  0  5  2  9  7 27 26
  22063636.171   -12448774.086 7  -9567668.872 9
  24923599.311     -697748.635 3   -402673.864 7
  21288340.562   -16018656.813 7 -12241775.549 9
  23552758.960     2906072.207 6   2343123.045 9
  23277725.905    -7023966.122 6  -5315809.151 9
 94  3  2  0 43 30.0030000  0  5  2  9  7 27 26
  22071172.413   -12409172.840 7  -9536810.771 9
  24907810.226     -780713.156 3   -467321.435 7
  21292648.241   -15996021.142 7 -12224137.354 9
  23573797.421     3016635.168 6   2429275.941 9
  23285165.296    -6984871.448 6  -5285345.774 9
 94  3  2  0 44  0.0030000  0  5  2  9  7 27 26
  22078748.601   -12369357.848 7  -9505786.114 9
  24892051.577     -863526.442 3   -531851.136 7
  21297048.452   -15972899.084 7 -12206120.158 9
  23594894.921     3127502.918 6   2515666.350 9
  23292703.069    -6945263.842 6  -5254482.699 9
 94  3  2  0 44 30.0030000  0  5  2  9  7 27 26
  22086361.858   -12329351.145 7  -9474612.061 9
  24876320.522     -946199.977 3   -596272.027 8
  21301542.655   -15949283.281 7 -12187718.221 9
  23616053.897     3238691.369 6   2602306.656 9
  23300339.390    -6905131.793 6  -5223211.004 9
 94  3  2  0 45  0.0030000  0  5  2  9  7 27 26
  22094003.507   -12289192.036 7  -9443319.250 9
  24860605.733    -1028780.705 3   -660620.514 9
  21306126.788   -15925193.904 7 -12168947.263 9
  23637269.405     3350178.703 6   2689179.855 9
  23308071.335    -6864502.975 6  -5191552.191 9
 94  3  2  0 45 30.0030000  0  5  2  9  7 27 26
  22101679.007   -12248857.014 7  -9411889.361 9
  24844908.468    -1111270.943 4   -724898.523 9
  21310801.944   -15900624.366 7 -12149802.156 9
  23658544.866     3461983.493 6   2776300.406 9
  23315899.929    -6823361.988 6  -5159494.309 9
 94  3  2  0 46  0.0030000  0  5  2  9  7 27 26
  22109390.866   -12208329.230 7  -9380309.266 9
  24829227.132    -1193676.421 5   -789110.518 9
  21315569.507   -15875570.754 7 -12130279.847 9
  23679883.468     3574120.171 6   2863679.587 9
  23323828.577    -6781696.149 6  -5127027.429 9
 94  3  2  0 46 30.0030000  0  5  2  9  7 27 26
  22117142.726   -12167593.416 7  -9348567.073 9
  24813567.397    -1275968.133 5   -853233.837 9
  21320434.483   -15850003.038 7 -12110356.944 9
  23701288.671     3686603.994 6   2951329.253 9
  23331858.265    -6739500.222 6  -5094147.481 9
 94  3  2  0 47  0.0030000  0  5  2  9  7 27 26
  22124933.272   -12126654.760 7  -9316666.828 9
  24797925.601    -1358153.524 4   -917274.314 9
  21325391.069   -15823955.356 7 -12090060.035 9
  23722752.358     3799394.172 6   3039217.643 9
  23339982.913    -6696805.475 6  -5060878.860 9
 94  3  2  0 47 30.0030000  0  6  2  4  9  7 27 26
  22132766.577   -12085489.537 7  -9284590.036 9
  25036942.772      -31746.068 5
  24782313.077    -1440204.645 5   -981210.128 9
  21330442.015   -15797414.170 7 -12069378.583 9
  23744272.718     3912485.901 6   3127341.008 9
  23348205.140    -6653601.079 6  -5027213.105 9
 94  3  2  0 48  0.0030000  0  6  2  4  9  7 27 26
  22140641.647   -12044107.177 7  -9252344.044 9
  25020469.124     -118314.851 5
  24766723.765    -1522135.235 5  -1045052.066 9
  21335587.546   -15770372.943 7 -12048307.481 9
  23765846.976     4025857.865 6   3215682.739 9
  23356522.804    -6609887.648 6  -4993150.711 9
 94  3  2  0 48 30.0030000  0  6  2  4  9  7 27 26
  22148560.569   -12002492.814 7  -9219917.272 9
  25004001.140     -204854.459 5    -56190.88919
  24751156.202    -1603935.858 5  -1108792.723 9
  21340832.593   -15742811.079 7 -12026830.687 9
  23787476.741     4139523.643 6   3304253.409 9
  23364940.569    -6565649.923 6  -4958679.763 9
 94  3  2  0 49  0.0030000  0  6  2  4  9  7 27 26
  22156523.530   -11960647.136 7  -9187310.249 9
  24987536.905     -291371.632 5   -123606.679 9
  24735614.718    -1685609.912 5  -1172434.773 9
  21346174.647   -15714739.233 7 -12004956.511 9
  23809161.038     4253477.375 6   3393048.462 9
  23373460.186    -6520880.803 6  -4923794.744 9
 94  3  2  0 49 30.0030000  0  6  2  4  9  7 27 26
  22164526.249   -11918595.075 7  -9154542.417 9
  24971078.741     -377858.341 5   -190998.716 8
  24720092.819    -1767179.883 5  -1235995.725 9
  21351612.124   -15686163.000 7 -11982689.302 9
  23830899.491     4367709.509 6   3482060.456 9
  23382080.272    -6475582.384 6  -4888497.284 9
 94  3  2  0 50  0.0030000  0  6  2  4  9  7 27 26
  22172565.601   -11876345.653 7  -9121620.788 9
  24954627.694     -464313.748 5   -258366.398 9
  24704589.515    -1848642.350 5  -1299472.884 9
  21357142.702   -15657099.752 7 -11960042.607 9
  23852690.483     4482222.344 6   3571291.172 9
  23390799.890    -6429756.884 6  -4852789.117 9
 94  3  2  0 50 30.0030000  0  6  2  4  9  7 27 26
  22180645.366   -11833888.450 7  -9088537.252 9
  24938183.241     -550723.778 5   -325698.698 9
  24689117.249    -1929955.241 5  -1362833.479 9
  21362764.226   -15627558.715 7 -11937023.608 9
  23874537.515     4597028.730 6   3660750.615 9
  23399620.218    -6383406.825 6  -4816672.203 9
 94  3  2  0 51  0.0030000  0  6  2  4  9  7 27 26
  22188760.202   -11791243.254 7  -9055307.241 9
  24921746.358     -637105.061 5   -393008.605 9
  24673670.366    -2011132.352 5  -1426088.253 9
  21368470.319   -15597570.831 7 -11913656.414 9
  23896434.132     4712096.171 6   3750413.498 9
  23408534.858    -6336559.820 6  -4780168.049 9
 94  3  2  0 51 30.0030000  0  6  2  4  9  7 27 26
  22196911.608   -11748405.925 7  -9021927.499 9
  24905315.218     -723449.146 5   -460289.509 9
  24658249.171    -2092171.519 5  -1489235.582 9
  21374262.272   -15567134.696 7 -11889939.935 9
  23918379.812     4827423.942 5   3840279.225 9
  23417543.960    -6289220.220 6  -4743280.065 9
 94  3  2  0 52  0.0030000  0  6  2  4  9  7 27 26
  22205101.655   -11705368.637 7  -8988391.945 9
  24888890.515     -809758.741 5   -527543.527 9
  24642855.569    -2173063.342 5  -1552268.071 9
  21380140.843   -15536243.620 7 -11865868.963 9
  23940377.694     4943021.523 5   3930355.207 9
  23426643.343    -6241403.167 6  -4706020.045 9
 94  3  2  0 52 30.0030000  0  6  2  4  9  7 27 26
  22213331.202   -11662121.468 7  -8954692.852 9
  24872471.687     -896033.235 4   -594770.223 9
  24627487.702    -2253824.255 5  -1615198.581 9
  21386108.976   -15504881.573 7 -11841430.989 9
  23962426.577     5058890.470 5   4020642.627 9
  23435834.327    -6193108.198 6  -4668387.628 9
 94  3  2  0 53  0.0030000  0  6  2  4  9  7 27 26
  22221603.476   -11618647.384 7  -8920816.935 9
  24856063.999     -982258.975 4   -661958.935 8
  24612141.851    -2334460.052 5  -1678031.599 9
  21392171.288   -15473024.380 7 -11816607.197 9
  23984528.718     5175041.617 5   4111149.954 9
  23445119.608    -6144309.876 6  -4630362.977 9
 94  3  2  0 53 30.0030000  0  6  2  4  9  7 27 26
  22229916.210   -11574966.311 7  -8886779.736 9
  24839665.304    -1068435.013 5   -729108.922 9
  24596819.374    -2414984.738 5  -1740778.027 9
  21398324.780   -15440685.697 7 -11791408.209 9
  24006683.811     5291465.115 5   4201869.501 9
  23454499.632    -6095020.915 6  -4591956.010 9
 94  3  2  0 54  0.0030000  0  6  2  4  9  7 27 26
  22238268.194   -11531078.565 7  -8852581.496 9
  24823279.319    -1154551.358 5   -796212.370 9
  24581514.163    -2495411.902 5  -1803448.492 9
  21404568.194   -15407877.129 7 -11765843.085 9
  24028890.226     5408157.309 5   4292798.413 9
  23463969.694    -6045255.454 6  -4553177.757 9
 94  3  2  0 54 30.0030000  0  6  2  4  9  7 27 26
  22246659.905   -11486979.794 7  -8818218.821 9
  24806905.546    -1240591.888 5   -863256.731 9
  24566229.171    -2575735.051 5  -1866037.887 9
  21410898.702   -15374608.509 7 -11739919.473 9
  24051146.538     5525115.020 5   4383934.228 9
  23473530.913    -5995006.515 6  -4514022.749 9
 94  3  2  0 55  0.0030000  0  6  2  4  9  7 27 26
  22255088.046   -11442687.791 7  -8783705.576 9
  24790546.374    -1326552.804 5   -930239.046 9
  24550964.140    -2655951.249 5  -1928543.924 9
  21417313.397   -15340900.378 7 -11713653.389 9
  24073453.421     5642333.547 5   4475273.259 9
  23483181.765    -5944290.910 6  -4474504.107 9
 94  3  2  0 55 30.0030000  0  6  2  4  9  7 27 26
  22263554.726   -11398191.722 7  -8749033.320 9
  24774206.499    -1412416.367 5   -997145.506 9
  24535722.546    -2736044.590 5  -1990954.240 9
  21423810.515   -15306755.998 7 -11687047.372 9
  24095808.335     5759812.419 5   4566815.167 9
  23492919.218    -5893122.103 6  -4434632.336 9
 94  3  2  0 56  0.0030000  0  6  2  4  9  7 27 26
  22272063.788   -11353479.636 7  -8714192.746 9
  24757886.624    -1498177.536 5  -1063972.217 9
  24520508.968    -2815993.122 5  -2053251.734 9
  21430393.811   -15272162.215 7 -11660091.169 9
  24118216.413     5877566.372 5   4658571.422 9
  23502744.437    -5841486.902 6  -4394397.122 9
 94  3  2  0 56 30.0030000  0  6  2  4  9  7 27 26
  22280610.968   -11308564.561 7  -8679193.986 9
  24741583.538    -1583852.005 5  -1130731.296 9
  24505325.140    -2895781.495 5  -2115424.406 9
  21437062.171   -15237119.115 7 -11632784.845 9
  24140675.186     5995586.296 5   4750534.920 9
  23512661.210    -5789374.751 6  -4353790.260 9
 94  3  2  0 57  0.0030000  0  6  2  4  9  7 27 26
  22289198.812   -11263434.648 7  -8644027.822 9
  24725296.468    -1669438.682 5  -1197422.001 9
  24490174.929    -2975395.906 5  -2177461.553 9
  21443820.561   -15201602.545 7 -11605109.589 9
  24163183.976     6113873.478 5   4842706.683 9
  23522672.374    -5736767.199 6  -4312797.377 9
 94  3  2  0 57 30.0030000  0  6  2  4  9  7 27 26
  22297829.538   -11218081.141 7  -8608687.439 9
  24709028.601    -1754934.905 5  -1264042.220 9
  24475061.851    -3054819.992 5  -2239350.392 9
  21450673.327   -15165593.716 7 -11577050.752 9
  24185743.476     6232427.325 5   4935086.236 9
  23532781.366    -5683645.924 6  -4271404.184 9
 94  3  2  0 58  0.0030000  0  6  2  4  9  7 27 26
  22306501.913   -11172506.577 7  -8573174.791 9
  24692775.858    -1840341.557 5  -1330592.647 9
  24459983.983    -3134047.955 5  -2301086.375 9
  21457621.843   -15129077.607 7 -11548596.627 9
  24208356.444     6351259.399 5   5027682.582 9
  23542990.718    -5629994.744 6  -4229598.094 9
 94  3  2  0 58 30.0030000  0  6  2  4  9  7 27 26
  22315211.405   -11126735.943 7  -8537509.376 9
  24676535.155    -1925683.837 5  -1397092.930 9
  24444937.077    -3213119.343 5  -2362700.381 9
  21464663.515   -15092073.592 7 -11519762.316 9
  24231015.936     6470334.352 5   5120468.199 9
  23553294.569    -5575848.367 6  -4187406.127 9
 94  3  2  0 59  0.0030000  0  6  2  4  9  7 27 26
  22323957.132   -11080777.813 7  -8501697.850 9
  24660306.671    -2010972.737 5  -1463551.628 9
  24429918.546    -3292050.985 5  -2424205.469 9
  21471796.171   -15054590.893 7 -11490555.005 9
  24253719.397     6589639.867 5   5213433.460 9
  23563686.694    -5521237.569 6  -4144852.287 9
 94  3  2  0 59 30.0030000  0  6  2  4  9  7 27 26
  22332740.960   -11034619.500 7  -8465730.336 9
  24644088.655    -2096193.533 5  -1529957.247 9
  24414928.944    -3370819.549 5  -2485583.512 9
  21479018.843   -15016635.867 7 -11460979.651 9
  24276469.530     6709192.120 5   5306590.983 9
  23574167.272    -5466163.218 6  -4101937.217 9
 94  3  2  1  0  0.0030000  0  6  2  4  9  7 27 26
  22341563.687   -10988255.725 7  -8429602.730 9
  24627884.710    -2181347.769 5  -1596311.066 9
  24399970.241    -3449429.325 5  -2546837.814 9
  21486328.226   -14978225.320 7 -11431049.353 9
  24299266.452     6828992.224 5   5399941.638 9
  23584733.405    -5410631.981 6  -4058666.138 9
 94  3  2  1  0 30.0030000  0  6  2  4  9  7 27 26
  22350428.304   -10941669.569 7  -8393301.831 9
  24611694.835    -2266420.385 5  -1662601.273 9
  24385045.163    -3527860.018 5  -2607952.561 9
  21493724.827   -14939356.659 7 -11400762.077 9
  24322111.007     6949040.624 5   5493485.765 9
  23595389.140    -5354637.045 6  -4015033.732 9
 94  3  2  1  1  0.0030000  0  6  2  4  9  7 27 26
  22359338.687   -10894846.899 7  -8356816.644 9
  24595523.593    -2351403.864 5  -1728822.040 9
  24370157.671    -3606091.134 5  -2668911.788 9
  21501204.788   -14900049.456 7 -11370133.082 9
  24345002.983     7069338.087 5   5587223.972 9
  23606132.640    -5298180.609 6  -3971041.713 9
 94  3  2  1  1 30.0030000  0  6  2  4  9  7 27 26
  22368293.640   -10847787.532 7  -8320147.014 9
  24579371.788    -2436281.221 5  -1794960.104 9
  24355308.585    -3684122.197 5  -2729715.137 9
  21508764.718   -14860320.304 7 -11339175.298 9
  24367939.999     7189881.137 5   5681153.555 9
  23616964.827    -5241255.842 6  -3926684.760 9
 94  3  2  1  2  0.0030000  0  6  2  4  9  7 27 26
  22377291.413   -10800504.441 7  -8283303.045 9
  24563241.499    -2521045.699 5  -1861010.194 9
  24340494.257    -3761972.597 5  -2790377.725 9
  21516407.140   -14820159.592 7 -11307881.237 9
  24390925.530     7310661.975 5   5775268.414 9
  23627886.374    -5183865.873 6  -3881965.324 9
 94  3  2  1  2 30.0030000  0  6  2  4  9  7 27 26
  22386328.601   -10753014.038 7  -8246297.540 9
  24547133.999    -2605688.640 5  -1926965.581 9
  24325712.733    -3839645.354 5  -2850901.915 9
  21524131.280   -14779569.762 7 -11276252.793 9
  24413954.140     7431673.615 5   5869563.132 9
  23638893.116    -5126024.929 6  -3836894.478 9
 94  3  2  1  3  0.0030000  0  6  2  4  9  7 27 26
  22395400.358   -10705341.423 7  -8209150.056 9
  24531049.804    -2690204.803 5  -1992822.166 9
  24310963.819    -3917154.723 5  -2911298.750 9
  21531933.726   -14738567.409 7 -11244302.905 9
  24437027.015     7552925.366 5   5964044.942 9
  23649983.226    -5067746.984 6  -3791483.111 9
 94  3  2  1  3 30.0030000  0  6  2  4  9  7 27 26
  22404501.491   -10657513.673 7  -8171881.685 9
  24514991.601    -2774592.370 5  -2058578.552 9
  24296242.999    -3994517.372 5  -2971581.282 9
  21539815.483   -14697148.313 7 -11212028.284 9
  24460145.960     7674416.340 5   6058713.149 9
  23661156.726    -5009033.863 6  -3745732.656 9
 94  3  2  1  4  0.0030000  0  6  2  4  9  7 27 26
  22413632.101   -10609533.810 7  -8134494.787 9
  24498957.733    -2858852.434 5  -2124235.574 9
  24281550.390    -4071728.566 6  -3031745.782 9
  21547778.811   -14655299.203 7 -11179418.585 9
  24483312.304     7796150.636 5   6153570.962 9
  23672411.491    -4949889.822 6  -3699646.411 9
 94  3  2  1  4 30.0030000  0  6  2  4  9  7 27 26
  22422793.405   -10561391.737 7  -8096981.490 9
  24482947.702    -2942986.050 5  -2189794.083 9
  24266886.804    -4148783.042 5  -3091788.172 9
  21555822.413   -14613032.772 7 -11146483.703 9
  24506522.530     7918128.099 5   6248618.263 9
  23683745.819    -4890323.029 6  -3653230.766 9
 94  3  2  1  5  0.0030000  0  6  2  4  9  7 27 26
  22431990.663   -10513059.292 7  -8059319.858 9
  24466961.413    -3026993.766 5  -2255254.471 9
  24252255.280    -4225674.766 6  -3151703.724 9
  21563947.280   -14570334.035 7 -11113211.951 9
  24529780.897     8040347.431 5   6343854.026 9
  23695164.202    -4830318.790 6  -3606474.236 9
 94  3  2  1  5 30.0030000  0  6  2  4  9  7 27 26
  22441231.538   -10464495.363 7  -8021477.850 9
  24450998.140    -3110875.058 5  -2320616.380 9
  24237655.968    -4302387.416 5  -3211479.748 9
  21572161.483   -14527169.713 7 -11079577.412 9
  24553081.726     8162798.569 5   6439270.430 9
  23706669.374    -4769856.584 6  -3559360.845 9
 94  3  2  1  6  0.0030000  0  6  2  4  9  7 27 26
  22450522.405   -10415673.247 7  -7983434.651 9
  24435060.272    -3194633.049 5  -2385882.200 9
  24223094.194    -4378909.539 5  -3271107.275 9
  21580463.546   -14483539.157 7 -11045579.573 9
  24576427.272     8285483.578 5   6534869.068 9
  23718262.671    -4708934.178 6  -3511888.849 9
 94  3  2  1  6 30.0030000  0  6  2  4  9  7 27 26
  22459863.702   -10366584.736 7  -7945183.876 9
  24419143.319    -3278274.068 5  -2451056.906 9
  24208568.179    -4455245.688 5  -3330589.928 9
  21588850.874   -14439463.878 7 -11011235.198 9
  24599817.726     8408394.979 5   6630644.124 9
  23729943.093    -4647552.194 6  -3464058.739 9
 94  3  2  1  7  0.0030000  0  6  2  4  9  7 27 26
  22469252.640   -10317244.322 7  -7906736.810 9
  24403249.499    -3361801.859 6  -2516143.334 9
  24194078.562    -4531386.580 5  -3389920.435 9
  21597319.444   -14394960.933 7 -10976557.580 9
  24623245.835     8531514.167 5   6726581.081 9
  23741711.374    -4585710.667 6  -3415870.557 9
 94  3  2  1  7 30.0030000  0  6  2  4  9  7 27 26
  22478684.702   -10267679.498 7  -7868114.876 9
  24387377.233    -3445210.798 6  -2581137.170 9
  24179626.304    -4607332.915 5  -3449099.338 9
  21605865.577   -14350052.285 7 -10941563.832 9
  24646714.265     8654835.692 5   6822675.685 9
  23753563.468    -4523430.272 6  -3367340.413 9
 94  3  2  1  8  0.0030000  0  6  2  4  9  7 27 26
  22488153.796   -10217919.255 7  -7829340.672 9
  24371529.710    -3528488.598 6  -2646028.808 9
  24165212.811    -4683078.238 5  -3508121.617 9
  21614483.296   -14304765.725 7 -10906275.595 9
  24670220.101     8778357.548 5   6918926.359 9
  23765495.108    -4460727.377 6  -3318481.040 9
 94  3  2  1  8 30.0030000  0  6  2  4  9  7 27 26
  22497657.187   -10167978.154 7  -7790425.537 9
  24355707.843    -3611626.514 5  -2710811.459 9
  24150840.851    -4758606.280 5  -3566974.577 9
  21623173.507   -14259096.665 7 -10870689.315 9
  24693759.811     8902063.122 5   7015320.226 9
  23777506.241    -4397611.709 6  -3269300.017 9
 94  3  2  1  9  0.0030000  0  6  2  4  9  7 27 26
  22507192.554   -10117869.217 7  -7751379.616 9
  24339914.226    -3694618.106 5  -2775480.112 9
  24136511.569    -4833908.299 6  -3625651.409 9
  21631941.538   -14213018.771 7 -10834784.463 9
  24717334.819     9025950.811 5   7111856.005 9
  23789591.296    -4334099.891 6  -3219810.310 9
 94  3  2  1  9 30.0030000  0  6  2  4  9  7 27 26
  22516760.624   -10067590.083 7  -7712201.084 9
  24324149.882    -3777468.130 5  -2840038.466 9
  24122222.718    -4908999.033 6  -3684163.620 9
  21640790.179   -14166519.776 7 -10798551.488 9
  24740945.241     9150026.123 5   7208537.967 9
  23801750.866    -4270203.191 6  -3170020.688 9
 94  3  2  1 10  0.0030000  0  6  2  4  9  7 27 26
  22526363.319   -10017128.521 7  -7672880.399 9
  24308409.421    -3860187.620 6  -2904495.086 9
  24107971.921    -4983887.339 6  -3742518.074 9
  21649719.640   -14119596.250 7 -10761987.701 9
  24764590.936     9274281.830 5   7305360.517 9
  23813983.538    -4205922.133 6  -3119931.584 9
 94  3  2  1 10 30.0030000  0  7  2  4  9  7 27 26 12
  22536003.116    -9966470.287 7  -7633406.453 9
  24292691.468    -3942784.792 6  -2968856.387 9
  24093756.304    -5058593.954 6  -3800730.952 9
  21658731.061   -14072240.666 7 -10725087.249 9
  24788271.608     9398725.166 5   7402329.272 9
  23826288.218    -4141253.673 6  -3069540.613 9
  25306709.913      -27119.191 3    -23053.13819
 94  3  2  1 11  0.0030000  0  7  2  4  9  7 27 26 12
  22545681.718    -9915607.493 7  -7593773.111 9
  24276998.913    -4025243.951 6  -3033110.138 9
  24079570.632    -5133137.044 6  -3858816.415 9
  21667822.390   -14024464.161 7 -10687858.807 9
  24811991.077     9523374.682 5   7499458.704 9
  23838671.944    -4076179.322 6  -3018833.348 9
  25292636.022     -101075.610 2    -80681.447 9
 94  3  2  1 11 30.0030000  0  7  2  4  9  7 27 26 12
  22555402.015    -9864526.292 7  -7553969.582 9
  24261335.733    -4107553.399 6  -3097247.245 9
  24065415.343    -5207518.562 6  -3916775.982 9
  21676988.999   -13976294.992 7 -10650324.394 9
  24835750.061     9648229.431 5   7596748.027 9
  23851136.944    -4010676.875 6  -2967792.508 9
  24978771.866     -175019.160 2   -138299.757 9
 94  3  2  1 12  0.0030000  0  7  2  4  9  7 27 26 12
  22565162.897    -9813235.862 7  -7514003.022 9
  24245703.421    -4189704.914 6  -3161261.284 9
  24051291.835    -5281735.496 5  -3974607.305 9
  21686226.616   -13927751.911 7 -10612498.622 9
  24859548.249     9773280.257 5   7694190.130 9
  23863681.671    -3944751.901 6  -2916422.411 9
  24964701.413     -248952.439 1   -195910.032 9
 94  3  2  1 12 30.0030000  0  7  2  4  9  7 27 26 12
  22574958.351    -9761758.969 7  -7473891.166 9
  24230103.374    -4271686.029 6  -3225142.554 9
  24037200.647    -5355780.707 5  -4032304.816 9
  21695530.991   -13878857.369 7 -10574398.983 9
  24883380.890     9898517.407 5   7791777.455 8
  23876305.522    -3878414.914 6  -2864731.282 9
  24950634.460     -322875.689 1   -253512.492 9
 94  3  2  1 13  0.0030000  0  7  2  4  9  7 27 26 12
  22584786.101    -9710112.078 7  -7433646.843 9
  24214535.218    -4353490.777 6  -3288886.395 9
  24023147.780    -5429633.731 6  -4089852.553 9
  21704900.421   -13829617.442 7 -10536030.212 9
  24907242.554    10023918.642 5   7889492.606 8
  23889004.812    -3811681.040 6  -2812730.886 9
  24936569.366      -12316.03911    -11516.41719
 94  3  2  1 13 30.0030000  0  7  2  4  9  7 27 26 12
  22594647.202    -9658292.363 7  -7393267.852 9
  24199001.257    -4435126.584 6  -3352498.608 9
  24009134.054    -5503276.137 6  -4147236.213 9
  21714338.710   -13780020.395 7 -10497383.163 9
  24931132.851    10149469.639 4   7987324.476 9
  23901774.319    -3744576.635 6  -2760441.775 9
  24922508.765      -86213.454 2    -69098.717 9
 94  3  2  1 14  0.0030000  0  7  2  4  9  7 27 26 12
  22604538.601    -9606314.405 7  -7352765.556 9
  24183496.319    -4516602.208 6  -3415986.005 9
  23995161.077    -5576704.533 6  -4204453.095 9
  21723848.757   -13730046.418 7 -10458442.402 9
  24955052.843    10275159.434 5   8085264.510 9
  23914610.327    -3677125.319 6  -2707882.337 9
  24908449.976     -160091.786 2   -126666.152 9
 94  3  2  1 14 30.0030000  0  7  2  4  9  7 27 26 12
  22614461.749    -9554167.866 7  -7312131.902 9
  24168021.187    -4597925.081 5  -3479354.385 9
  23981230.897    -5649908.344 6  -4261494.986 9
  21733435.132   -13679668.274 7 -10419186.710 9
  24978999.999    10401001.654 5   8183323.273 8
  23927512.163    -3609326.525 6  -2655052.135 9
  24894395.882     -233944.359 2   -184213.510 9
 94  3  2  1 15  0.0030000  0  7  2  4  9  7 27 26 12
  22624421.444    -9501829.867 7  -7271349.055 9
  24152571.843    -4679109.296 5  -3542614.726 9
  23967344.054    -5722884.899 6  -4318359.784 9
  21743103.936   -13628858.616 7 -10379594.774 9
  25002976.679    10527004.753 4   8281507.426 9
  23940480.140    -3541182.410 6  -2601952.855 9
  24880347.663     -307769.897 3   -241739.810 9
 94  3  2  1 15 30.0030000  0  7  2  4  9  7 27 26 12
  22634419.671    -9449288.513 7  -7230407.749 9
  24137148.288    -4760153.873 5  -3605766.252 9
  23953501.319    -5795627.819 6  -4375042.549 9
  21752856.405   -13577609.632 7 -10339660.501 9
  25026987.507    10653182.781 4   8379827.859 9
  23953513.897    -3472685.213 6  -2548578.452 9
  24866304.687     -381566.864 3   -299243.854 9
 94  3  2  1 16  0.0030000  0  7  2  4  9  7 27 26 12
  22644456.882    -9396542.436 7  -7189306.922 9
  24121754.476    -4841050.794 5  -3668802.705 9
  23939702.608    -5868140.304 6  -4431545.736 9
  21762691.640   -13525924.016 7 -10299385.999 9
  25051036.335    10779554.472 4   8478299.208 9
  23966619.351    -3403813.783 6  -2494912.438 9
  24852266.819     -455333.002 2   -356723.885 9
 94  3  2  1 16 30.0030000  0  7  2  4  9  7 27 26 12
  22654537.382    -9343567.519 7  -7148027.774 9
  24106392.866    -4921779.988 5  -3731708.451 9
  23925949.022    -5940417.345 6  -4487865.472 9
  21772607.444   -13473816.668 7 -10258782.876 9
  25075122.062    10906135.761 3   8576933.887 8
  23979799.819    -3334547.295 6  -2440938.581 9
  24838236.163     -529060.305 2   -414173.653 9
 94  3  2  1 17  0.0030000  0  7  2  4  9  7 27 26 12
  22664662.843    -9290361.492 7  -7106568.536 9
  24091065.999    -5002321.983 6  -3794468.336 9
  23912239.171    -6012463.591 6  -4544005.385 9
  21782598.507   -13421313.112 7 -10217871.008 9
  25099245.304    11032896.986 4   8675708.781 8
  23993057.679    -3264878.156 6  -2386650.963 9
  24824213.046     -602749.738 2   -471593.928 9
 94  3  2  1 17 30.0030000  0  7  2  4  9  7 27 26 12
  22674827.796    -9236942.168 7  -7064943.099 9
  24075778.397    -5082659.731 6  -3857069.058 9
  23898570.171    -6084292.504 6  -4599975.928 9
  21792659.249   -13368445.016 7 -10176675.095 9
  25123398.694    11159825.766 5   8774614.258 9
  24006391.608    -3194804.824 6  -2332048.405 9
  24810197.054     -676403.076 2   -528986.058 9
 94  3  2  1 18  0.0030000  0  7  2  4  9  7 27 26 12
  22685035.593    -9183299.854 7  -7023143.901 9
  24060532.530    -5162779.791 6  -3919500.175 9
  23884942.358    -6155910.194 6  -4655781.865 9
  21802785.913   -13315227.739 7 -10135207.089 9
  25147584.843    11286921.492 5   8873649.814 9
  24019802.780    -3124329.969 6  -2277132.954 9
  24796190.327     -750014.615 2   -586345.654 9
 94  3  2  1 18 30.0030000  0  7  2  4  9  7 27 26 12
  22695285.460    -9129434.809 7  -6981171.150 9
  24045328.257    -5242676.419 6  -3981757.199 9
  23871356.983    -6227302.491 6  -4711412.203 9
  21812978.249   -13261667.638 7 -10093471.946 9
  25171799.444    11414167.945 5   8972802.808 9
  24033288.218    -3053465.570 6  -2221913.979 9
  24782190.585     -823581.968 2   -643670.785 9
 94  3  2  1 19  0.0030000  0  7  2  4  9  7 27 26 12
  22705573.882    -9075370.726 7  -6939043.303 9
  24030164.702    -5322358.483 6  -4043847.033 9
  23857815.772    -6298459.406 6  -4766859.100 9
  21823236.601   -13207759.080 7 -10051465.282 9
  25196041.780    11541564.404 5   9072072.679 9
  24046843.968    -2982231.588 6  -2166407.022 9
  24768199.147     -897109.409 3   -700964.822 9
 94  3  2  1 19 30.0030000  0  7  2  4  9  7 27 26 12
  22715897.499    -9021118.136 7  -6896768.563 9
  24015042.249    -5401829.327 6  -4105772.289 9
  23844320.921    -6369376.241 6  -4822118.923 9
  21833562.022   -13153499.975 7 -10009185.473 9
  25220318.226    11669138.699 5   9171481.115 9
  24060466.679    -2910639.714 6  -2110621.176 9
  24754214.647     -970597.144 3   -758227.878 9
 94  3  2  1 20  0.0030000  0  7  2  4  9  7 27 26 12
  22726257.546    -8966675.596 7  -6854345.810 9
  23999955.921    -5481103.921 6  -4167544.627 9
  23830873.811    -6440038.205 6  -4877180.167 9
  21843954.882   -13098885.896 7  -9966629.043 9
  25244629.280    11796892.386 5   9271029.340 9
  24074158.015    -2838696.883 6  -2054561.856 9
  24740238.632    -1044042.984 3   -815458.313 9
 94  3  2  1 20 30.0030000  0  7  2  4  9  7 27 26 12
  22736653.304    -8912048.590 7  -6811779.321 9
  23984909.538    -5560178.512 6  -4229161.103 9
  23817477.413    -6510434.445 6  -4932034.331 9
  21854418.335   -13043900.457 7  -9923783.258 9
  25268973.679    11924822.302 5   9370714.897 9
  24087915.718    -2766399.699 6  -1998226.439 9
  24726271.312    -1117439.344 3   -872650.183 9
 94  3  2  1 21  0.0030000  0  7  2  4  9  7 27 26 12
  22747084.155    -8857231.567 7  -6769064.777 9
  23969900.561    -5639053.768 6  -4290622.236 9
  23804130.015    -6580576.001 6  -4986690.047 9
  21864952.804   -12988539.445 7  -9880644.815 9
  25293351.851    12052925.294 5   9470535.308 9
  24101738.444    -2693757.589 6  -1941622.237 9
  24712313.515    -1190786.232 3   -929803.528 9
 94  3  2  1 21 30.0030000  0  7  2  4  9  7 27 26 12
  22757555.335    -8802206.466 7  -6726188.086 9
  23954928.280    -5717732.372 6  -4351930.137 9
  23790830.163    -6650466.699 6  -5041150.290 9
  21875557.249   -12932812.653 7  -9837221.345 9
  25317756.710    12181185.019 4   9570477.827 9
  24115628.452    -2620766.173 6  -1884745.849 9
  24698365.624    -1264083.045 3   -986917.861 9
 94  3  2  1 22  0.0030000  0  7  2  4  9  7 27 26 12
  22768067.897    -8746965.040 7  -6683142.828 9
  23939993.140    -5796214.945 6  -4413085.300 9
  23777577.554    -6720110.576 6  -5095418.196 9
  21886230.179   -12876725.685 7  -9793517.224 9
  25342190.913    12309586.512 4   9670530.816 8
  24129582.788    -2547428.222 5  -1827599.434 9
  24684428.312    -1337328.151 3  -1043991.912 9
 94  3  2  1 22 30.0030000  0  7  2  4  9  7 27 26 12
  22778622.147    -8691500.735 7  -6639923.904 9
  23925097.366    -5874491.706 6  -4474080.105 9
  23764373.663    -6789500.919 6  -5149488.545 9
  21896973.046   -12820270.728 7  -9749526.359 9
  25366653.179    12438126.997 5   9770692.113 8
  24143603.827    -2473748.273 5  -1770186.506 9
  24670501.351    -1410519.057 3  -1101023.693 9
 94  3  2  1 23  0.0030000  0  6  2  4  9  7 26 12
  22789219.976    -8635807.368 7  -6596526.493 9
  23910240.444    -5952562.790 6  -4534914.639 9
  23751217.796    -6858632.038 6  -5203356.921 9
  21907785.202   -12763453.308 7  -9705253.049 9
  24157690.936    -2399718.807 5  -1712501.256 9
  24656584.741    -1483651.496 3  -1158009.927 9
 94  3  2  1 23 30.0030000  0  6  2  4  9  7 26 12
  22799860.538    -8579891.925 7  -6552956.029 9
  23895423.640    -6030424.873 6  -4595586.322 9
  23738113.311    -6927498.832 6  -5257019.310 9
  21918664.944   -12706280.192 7  -9660702.581 9
  24171845.554    -2325339.993 5  -1654543.757 9
  24642678.913    -1556725.546 4  -1214950.674 9
 94  3  2  1 24  0.0030000  0  6  2  4  9  7 26 12
  22810538.905    -8523776.266 7  -6509229.551 9
  23880649.054    -6108070.976 6  -4656089.700 9
  23725057.671    -6996105.143 6  -5310478.742 9
  21929612.858   -12648749.220 7  -9615873.253 9
  24186062.554    -2250630.419 5  -1596328.533 9
  24628783.937    -1629740.386 3  -1271845.270 9
 94  3  2  1 24 30.0030000  0  6  2  4  9  7 26 12
  22821255.483    -8467461.437 7  -6465347.883 9
  23865916.194    -6185492.220 6  -4716417.857 9
  23712053.593    -7064442.697 6  -5363728.735 9
  21940631.171   -12590845.851 7  -9570753.750 9
  24200341.687    -2175594.944 6  -1537859.378 9
  24614901.366    -1702691.330 3  -1328690.109 9
 94  3  2  1 25  0.0030000  0  6  2  4  9  7 26 12
  22832010.163    -8410944.183 7  -6421308.481 9
  23851229.210    -6262670.073 6  -4776556.339 9
  23699098.507    -7132522.179 6  -5416777.641 9
  21951721.233   -12532567.973 7  -9525342.414 9
  24214682.382    -2100233.349 6  -1479136.096 9
  24601031.124    -1775576.638 3  -1385483.788 9
 94  3  2  1 25 30.0030000  0  6  2  4  9  7 26 12
  22842803.601    -8354223.208 7  -6377110.330 9
  23836591.327    -6339589.169 6  -4836493.200 9
  23686190.788    -7200351.232 6  -5469631.408 9
  21962882.374   -12473916.547 7  -9479640.003 9
  24229084.616    -2024553.753 6  -1420165.027 9
  24587175.640    -1848393.716 4  -1442224.322 9
 94  3  2  1 26  0.0030000  0  6  2  4  9  7 26 12
  22853637.444    -8297293.527 7  -6332749.553 9
  23822003.155    -6416245.489 6  -4896225.325 9
  23673329.726    -7267939.083 6  -5522297.207 9
  21974114.351   -12414894.020 7  -9433648.419 9
  24243549.351    -1948544.034 6  -1360936.714 9
  24573332.327    -1921139.395 4  -1498909.221 9
 94  3  2  1 26 30.0030000  0  6  2  4  9  7 26 12
  22864513.288    -8240140.784 7  -6288214.965 9
  23807466.366    -6492636.272 6  -4955750.552 9
  23660515.397    -7335281.585 6  -5574771.833 9
  21985412.913   -12355518.829 7  -9387382.042 9
  24258078.288    -1872189.633 6  -1301439.820 9
  24559502.921    -1993815.082 4  -1555539.557 9
 94  3  2  1 27  0.0030000  0  6  2  4  9  7 26 12
  22875428.929    -8182776.569 7  -6243515.588 9
  23792980.093    -6568768.738 6  -5015074.491 9
  23647748.624    -7402370.262 6  -5627048.671 9
  21996771.897   -12295825.804 7  -9340867.998 9
  24272674.155    -1795490.277 6  -1241674.130 9
  24545685.241    -2066423.943 3  -1612117.837 9
 94  3  2  1 27 30.0030000  0  6  2  4  9  7 26 12
  22886383.960    -8125206.001 7  -6198655.418 9
  23778539.108    -6644660.283 6  -5074210.685 9
  23635033.187    -7469188.116 6  -5679114.485 9
  22008188.843   -12235829.326 7  -9294117.498 9
  24287335.726    -1718440.606 6  -1181635.469 9
  24531881.765    -2138961.434 3  -1668640.494 9
 94  3  2  1 28  0.0040000  0  6  2  4  9  7 26 12
  22897378.723    -8067430.301 7  -6153635.405 9
  23764142.730    -6720317.189 6  -5133164.049 9
  23622371.957    -7535719.882 6  -5730957.368 9
  22019662.309   -12175536.551 7  -9247136.119 9
  24302063.465    -1641048.843 6  -1121330.237 9
  24518090.168    -2211433.416 3  -1725112.107 9
 94  3  2  1 28 30.0040000  0  6  2  4  9  7 26 12
  22908410.488    -8009458.652 7  -6108462.708 9
  23749790.113    -6795734.159 6  -5191930.432 9
  23609769.809    -7601938.236 6  -5782556.032 9
  22031192.402   -12114945.177 7  -9199922.063 9
  24316850.668    -1563342.271 6  -1060779.703 9
  24504313.363    -2283833.328 4  -1781527.562 9
 94  3  2  1 29  0.0040000  0  6  2  4  9  7 26 12
  22919479.738    -7951289.480 7  -6063136.096 9
  23735484.887    -6870909.375 6  -5250508.445 9
  23597227.129    -7667855.170 6  -5833919.829 9
  22042784.355   -12054028.637 7  -9152454.643 9
  24331695.269    -1485332.088 6   -999992.603 9
  24490550.621    -2356158.875 4  -1837885.064 9
 94  3  2  1 29 30.0040000  0  6  2  4  9  7 26 12
  22930589.363    -7892905.182 7  -6017641.853 9
  23721226.559    -6945831.688 6  -5308889.403 9
  23584737.223    -7733486.964 6  -5885061.454 9
  22054444.590   -11992754.344 7  -9104708.453 9
  24346595.363    -1407024.713 5   -938973.918 9
  24476802.770    -2428405.437 4  -1894181.019 9
 94  3  2  1 30  0.0040000  0  6  2  4  9  7 26 12
  22941741.777    -7834300.730 7  -5971976.061 9
  23707019.723    -7020488.578 6  -5367063.529 9
  23572301.879    -7798834.016 6  -5935981.192 9
  22066174.598   -11931111.851 7  -9056675.357 9
  24361551.410    -1328430.448 5   -877731.673 9
  24463069.512    -2500571.767 5  -1950414.445 9
 94  3  2  1 30 30.0040000  0  6  2  4  9  7 26 12
  22952934.934    -7775481.786 7  -5926143.144 9
  23692862.379    -7094886.174 6  -5425035.618 9
  23559921.519    -7863896.982 6  -5986679.561 9
  22077976.199   -11869095.403 7  -9008350.861 9
  24376562.644    -1249551.768 6   -816267.818 9
  24449351.426    -2572659.237 4  -2006586.432 9
 94  3  2  1 31  0.0040000  0  6  2  4  9  7 26 12
  22964169.379    -7716444.659 7  -5880140.207 9
  23678755.168    -7169024.676 6  -5482805.818 9
  23547593.473    -7928679.583 6  -6037159.474 9
  22089846.309   -11806717.158 7  -8959744.442 9
  24391627.035    -1170386.226 5   -754580.425 9
  24435647.566    -2644668.057 4  -2062697.134 9
 94  3  2  1 31 30.0040000  0  6  2  4  9  7 26 12
  22975443.723    -7657194.182 7  -5833971.018 9
  23664696.973    -7242902.842 6  -5540373.144 9
  23535325.137    -7993153.136 6  -6087398.574 9
  22101781.902   -11743994.127 7  -8910869.360 9
  24406746.082    -1090928.991 5   -692665.733 9
  24421959.496    -2716596.180 4  -2118744.965 9
 94  3  2  1 32  0.0040000  0  6  2  4  9  7 26 12
  22986756.574    -7597746.339 7  -5787648.038 9
  23650687.465    -7316516.954 6  -5597734.723 9
  23523119.707    -8057293.394 6  -6137377.952 9
  22113778.168   -11680954.306 7  -8861747.432 9
  24421922.004    -1011186.812 5   -630529.025 9
  24408287.840    -2788443.747 4  -2174730.008 9
 94  3  2  1 32 30.0040000  0  6  2  4  9  7 26 12
  22998106.144    -7538102.920 7  -5741172.665 9
  23636729.855    -7389865.100 6  -5654889.051 9
  23510977.473    -8121100.015 6  -6187097.372 9
  22125831.309   -11617610.402 7  -8812388.553 9
  24437147.449     -931172.179 5   -568179.996 9
  24394632.543    -2860208.553 5  -2230650.557 9
 94  3  2  1 33  0.0040000  0  6  2  4  9  7 26 12
  23009493.543    -7478260.815 7  -5694542.475 9
  23622825.801    -7462932.309 6  -5711824.479 9
  23498896.043    -8184589.049 6  -6236569.306 9
  22137941.637   -11553972.060 7  -8762800.252 9
  24452426.113     -850886.352 5   -505619.668 9
  24380993.355    -2931886.458 5  -2286503.377 9
 94  3  2  1 33 30.0040000  0  6  2  4  9  7 26 12
  23020917.551    -7418228.948 7  -5647764.406 9
  23608976.840    -7535708.711 6  -5768533.295 9
  23486873.559    -8247767.274 6  -6285799.061 9
  22150106.926   -11490045.134 7  -8712987.072 9
  24467754.973     -770332.364 6   -442850.371 9
  24367370.277    -3003475.765 5  -2342287.162 9
 94  3  2  1 34  0.0040000  0  6  2  4  9  7 26 12
  23032377.160    -7358007.017 7  -5600838.235 9
  23595182.590    -7608199.954 6  -5825019.905 9
  23474906.285    -8310654.702 6  -6334802.208 9
  22162325.082   -11425834.746 7  -8662953.011 9
  24483132.918     -689516.177 6   -379876.765 9
  24353762.668    -3074977.122 5  -2398002.443 9
 94  3  2  1 34 30.0040000  0  6  2  4  9  7 26 12
  23043875.488    -7297583.790 7  -5553755.206 9
  23581443.770    -7680398.311 6  -5881278.298 9
  23462992.144    -8373264.141 6  -6383588.753 9
  22174601.254   -11361324.588 7  -8612685.371 9
  24498565.449     -608423.960 6   -316688.072 9
  24340173.848    -3146381.395 5  -2453642.070 9
 94  3  2  1 35  0.0040000  0  6  2  4  9  7 26 12
  23055411.598    -7236962.018 7  -5506517.473 9
  23567760.754    -7752300.815 6  -5937306.157 9
  23451129.480    -8435602.507 6  -6432164.055 9
  22186933.363   -11296520.519 7  -8562188.703 9
  24514051.527     -527044.585 6   -253275.631 9
  24326604.004    -3217691.770 5  -2509208.549 9
 94  3  2  1 35 30.0040000  0  6  2  4  9  7 26 12
  23066986.691    -7176135.098 7  -5459119.888 9
  23554132.723    -7823912.192 6  -5993107.185 9
  23439321.137    -8497657.072 6  -6480518.219 9
  22199321.754   -11231417.909 7  -8511459.409 9
  24529591.434     -445384.100 6   -189644.119 9
  24313053.996    -3288902.222 5  -2564697.158 9
 94  3  2  1 36  0.0040000  0  6  2  4  9  7 26 12
  23078602.043    -7115093.033 7  -5411554.655 9
  23540562.207    -7895228.109 6  -6048677.981 9
  23427567.129    -8559422.479 6  -6528647.074 9
  22211769.691   -11166003.307 7  -8460486.999 9
  24545184.059     -363443.184 6   -125794.101 9
  24299523.566    -3360010.415 5  -2620106.082 9
 94  3  2  1 36 30.0040000  0  6  2  4  9  7 26 12
  23090259.590    -7053834.457 7  -5363820.700 9
  23527049.355    -7966238.585 6  -6104010.769 9
  23415871.949    -8620886.098 6  -6576540.764 9
  22224277.910   -11100272.292 7  -8409268.036 9
  24560828.363     -281231.606 6    -61733.173 9
  24286011.941    -3431015.825 5  -2675434.914 9
 94  3  2  1 37  0.0040000  0  6  2  4  9  7 26 12
  23101959.426    -6992351.838 7  -5315912.186 9
  23513593.309    -8036953.537 6  -6159113.266 9
  23404234.965    -8682037.137 6  -6624190.896 9
  22236846.699   -11034223.039 7  -8357801.093 9
  24576524.668     -198751.322 6      2537.135 9
  24272518.098    -3501920.773 5  -2730685.458 9
 94  3  2  1 37 30.0040000  0  6  2  4  9  7 26 12
  23113701.629    -6930643.627 7  -5267827.875 9
  23500191.730    -8107377.352 6  -6213988.918 9
  23392661.676    -8742854.536 6  -6671581.039 9
  22249477.840   -10967846.357 7  -8306079.009 9
  24592269.887     -116001.212 5     67017.686 9
  24259044.418    -3572721.549 5  -2785854.842 9
 94  3  2  1 38  0.0040000  0  6  2  4  9  7 26 12
  23125485.871    -6868716.784 7  -5219573.207 9
  23486843.574    -8177522.570 6  -6268647.457 9
  23381153.621    -8803329.182 6  -6718704.113 9
  22262169.551   -10901149.962 7  -8254107.800 9
  24608068.605      -32980.118 5    131709.411 9
  24245590.246    -3643421.089 5  -2840945.350 9
 94  3  2  1 38 30.0040000  0  6  2  4  9  7 26 12
  23137312.301    -6806571.940 7  -5171148.674 9
  23473546.668    -8247395.561 6  -6323093.886 9
  23369712.238    -8863452.394 6  -6765553.341 9
  22274918.621   -10834153.602 7  -8201902.857 9
  24623915.621       50297.544 5    196601.056 9
  24232157.160    -3714016.919 5  -2895955.039 9
 94  3  2  1 39  0.0040000  0  6  2  4  9  7 26 12
  23149177.723    -6744218.780 7  -5122561.809 9
  23460301.887    -8316995.725 6  -6377327.721 9
  23358336.934    -8923232.240 6  -6812135.002 9
  22287722.949   -10766864.206 7  -8149469.575 9
  24639810.629      133827.811 5    261689.527 9
  24218742.637    -3784512.306 5  -2950886.450 9
 94  3  2  1 39 30.0040000  0  6  2  4  9  7 26 12
  23161078.895    -6681676.792 7  -5073827.806 9
  23447111.145    -8386314.038 6  -6431341.935 9
  23347025.332    -8982672.520 6  -6858452.077 9
  22300580.980   -10699295.238 7  -8096818.441 9
  24655749.035      217581.848 5    326952.387 9
  24205347.246    -3854906.405 5  -3005738.934 9
 94  3  2  1 40  0.0040000  0  6  2  4  9  7 26 12
  23173015.691    -6618947.697 7  -5024948.012 9
  23433977.809    -8455328.985 6  -6485119.751 9
  23335776.504    -9041787.334 6  -6904515.539 9
  22313491.621   -10631452.237 7  -8043953.780 9
  24671726.473      301543.110 5    392376.703 9
  24191971.746    -3925195.778 5  -3060509.803 9
 94  3  2  1 40 30.0040000  0  6  2  4  9  7 26 12
  23184987.762    -6556032.943 7  -4975923.552 9
  23420907.066    -8524015.161 6  -6538641.390 9
  23324587.480    -9100584.835 6  -6950331.754 9
  22326454.043   -10563333.154 7  -7990873.980 9
  24687743.965      385715.746 5    457965.722 9
  24178615.230    -3995380.145 5  -3115198.870 9
 94  3  2  1 41  0.0040000  0  7  2  4  9  7 24 26 12
  23196995.840    -6492932.897 7  -4926754.696 9
  23407899.434    -8592370.076 6  -6591904.897 9
  23313457.832    -9159073.735 6  -6995907.503 9
  22339469.418   -10494936.177 7  -7937577.645 9
  25374252.051      -51988.47915
  24703804.395      470112.441 5    523729.332 9
  24165279.090    -4065460.790 5  -3169807.114 9
 94  3  2  1 41 30.0040000  0  7  2  4  9  7 24 26 12
  23209040.387    -6429637.493 7  -4877433.627 9
  23394954.871    -8660395.665 6  -6644911.800 9
  23302385.894    -9217252.527 6  -7041241.600 9
  22352534.340   -10426281.073 7  -7884080.172 9
  25356795.879     -143721.600 5     -2380.36119
  24719906.590      554733.293 5    589667.619 9
  24151963.973    -4135432.695 5  -3224330.630 9
 94  3  2  1 42  0.0040000  0  7  2  4  9  7 24 26 12
  23221124.762    -6366132.587 7  -4827949.310 9
  23382072.051    -8728095.831 6  -6697665.127 9
  23291372.473    -9275132.114 6  -7086342.549 9
  22365646.457   -10357378.572 7  -7830389.922 9
  25339342.269     -235443.228 5    -73851.572 9
  24736053.269      639588.519 5    655788.529 9
  24138669.699    -4205299.794 5  -3278772.468 9
 94  3  2  1 42 30.0040000  0  7  2  4  9  7 24 26 12
  23233253.504    -6302398.352 7  -4778286.289 9
  23369249.316    -8795481.483 6  -6750173.375 9
  23280417.309    -9332702.026 6  -7131202.197 9
  22378804.145   -10288232.738 7  -7776510.061 9
  25321893.535     -327132.688 4   -145297.744 8
  24752246.816      724683.861 5    722096.549 9
  24125395.988    -4275054.880 5  -3333127.014 9
 94  3  2  1 43  0.0040000  0  7  2  4  9  7 24 26 12
  23245423.762    -6238443.423 7  -4728451.304 9
  23356484.144    -8862561.504 6  -6802443.463 9
  23269519.277    -9389970.659 6  -7175827.078 9
  22392006.270   -10218853.792 7  -7722448.553 9
  25304452.395     -418785.535 4   -216715.404 8
  24768482.488      809997.325 5    788574.526 9
  24112142.637    -4344700.959 5  -3387396.620 9
 94  3  2  1 43 30.0040000  0  7  2  4  9  7 24 26 12
  23257633.566    -6174278.629 7  -4678452.780 9
  23343777.519    -8929333.311 6  -6854473.390 9
  23258678.691    -9446937.126 6  -7220216.511 9
  22405252.098   -10149247.127 7  -7668209.602 9
  25287016.941     -510415.603 5   -288115.298 9
  24784755.160      895510.439 5    855208.077 9
  24098908.605    -4414241.166 5  -3441583.722 9
 94  3  2  1 44  0.0040000  0  7  2  4  9  7 24 26 12
  23269883.863    -6109903.962 7  -4628290.720 9
  23331133.293    -8995781.514 6  -6906251.163 9
  23247900.863    -9503573.738 6  -7264348.907 9
  22418547.270   -10079380.142 7  -7613767.800 9
  25269587.144     -602005.937 5   -359484.228 8
  24801065.527      981224.504 5    921998.208 9
  24085697.605    -4483662.839 5  -3495678.460 9
 94  3  2  1 44 30.0040000  0  7  2  4  9  7 24 26 12
  23282167.637    -6045352.267 7  -4577990.733 9
  23318548.644    -9061913.735 6  -6957782.721 9
  23237188.863    -9559866.371 6  -7308213.265 9
  22431892.785   -10009247.640 7  -7559119.105 9
  25252167.137     -693550.919 5   -430817.832 8
  24817411.887     1067120.548 5    988930.145 9
  24072508.051    -4552972.945 5  -3549686.272 9
 94  3  2  1 45  0.0040000  0  7  2  4  9  7 24 26 12
  23294481.855    -5980639.735 7  -4527565.404 9
  23306025.707    -9127723.511 6  -7009063.021 9
  23226544.309    -9615803.411 6  -7351800.538 9
  22445290.863    -9938841.556 7  -7504257.229 9
  25234755.449     -785052.490 5   -502117.598 9
  24833792.496     1153198.325 5   1056003.686 9
  24059341.465    -4622166.982 5  -3603603.631 9
 94  3  2  1 45 30.0040000  0  7  2  4  9  7 24 26 12
  23306830.691    -5915744.534 7  -4476997.723 9
  23293564.801    -9193204.179 6  -7060086.875 9
  23215973.465    -9671353.876 6  -7395086.590 9
  22458742.887    -9868149.512 7  -7449172.530 9
  25217353.676     -876497.628 5   -573373.387 8
  24850207.004     1239464.005 5   1123223.662 9
  24046199.840    -4691230.230 5  -3657419.098 9
 94  3  2  1 46  0.0040000  0  7  2  4  9  7 24 26 12
  23319215.168    -5850666.061 7  -4426287.239 9
  23281166.871    -9258355.872 6  -7110854.390 9
  23205475.645    -9726519.670 6  -7438072.897 9
  22472249.887    -9797170.699 7  -7393864.371 9
  25199963.496     -967881.230 5   -644581.235 9
  24866658.746     1325913.545 5   1190586.909 9
  24033081.934    -4760164.073 5  -3711133.720 9
 94  3  2  1 46 30.0040000  0  7  2  4  9  7 24 26 12
  23331638.027    -5785384.868 7  -4375418.797 9
  23268832.957    -9323170.278 6  -7161359.080 9
  23195049.371    -9781310.144 6  -7480766.747 9
  22485808.730    -9725918.863 7  -7338343.461 9
  25182583.293    -1059208.727 5   -715745.360 8
  24883148.059     1412563.634 5   1258106.390 9
  24019989.887    -4828958.957 5  -3764740.064 9
 94  3  2  1 47  0.0040000  0  7  2  4  9  7 24 26 12
  23344101.301    -5719887.928 7  -4324382.231 9
  23256565.754    -9387634.835 6  -7211591.161 9
  23184692.480    -9835734.313 6  -7523175.167 9
  22499415.566    -9654413.428 7  -7282624.941 9
  25165210.691    -1150500.661 5   -786881.829 8
  24899674.355     1499413.480 5   1325781.535 9
  24006924.488    -4897616.895 5  -3818239.711 9
 94  3  2  1 47 30.0040000  0  7  2  4  9  7 24 26 12
  23356607.027    -5654169.956 7  -4273173.423 9
  23244367.402    -9451736.019 6  -7261540.096 9
  23174403.863    -9889800.569 6  -7565304.684 9
  22513068.918    -9582663.268 7  -7226715.732 9
  25147843.762    -1241771.386 5   -858001.747 9
  24916240.184     1586466.835 5   1393615.259 9
  23993885.246    -4966140.940 5  -3871635.023 9
 94  3  2  1 48  0.0040000  0  7  2  4  9  7 24 26 12
  23369153.098    -5588239.789 7  -4221799.278 9
  23232238.957    -9515473.704 6  -7311205.768 9
  23164182.043    -9943517.925 6  -7607162.337 9
  22526767.605    -9510677.280 7  -7170622.760 9
  25130478.566    -1333023.239 5   -929106.982 9
  24932845.684     1673731.570 5   1461613.724 9
  23980872.121    -5034527.726 5  -3924923.368 9
 94  3  2  1 48 30.0040000  0  7  2  4  9  7 24 26 12
  23381740.113    -5522095.769 7  -4170258.495 9
  23220179.324    -9578848.856 6  -7360588.950 9
  23154029.559    -9996872.026 6  -7648736.925 9
  22540511.129    -9438456.364 7  -7114346.726 9
  25113119.449    -1424249.439 5  -1000192.201 8
  24949491.824     1761203.599 5   1529773.680 9
  23967885.965    -5102771.209 5  -3978100.036 9
 94  3  2  1 49  0.0040000  0  7  2  4  9  7 24 26 12
  23394363.184    -5455761.268 7  -4118569.288 9
  23208185.019    -9641873.917 6  -7409699.336 9
  23143943.043   -10049876.207 6  -7690038.853 9
  22554299.129    -9365999.926 7  -7057887.173 9
  25095765.223    -1515442.207 5  -1071251.353 9
  24966170.613     1848852.175 5   1598071.221 9
  23954924.363    -5170882.233 5  -4031173.492 9
 94  3  2  1 49 30.0040000  0  7  2  4  9  7 24 26 12
  23407023.973    -5389226.115 7  -4066723.718 9
  23196257.691    -9704555.354 6  -7458541.980 9
  23133922.863   -10102532.098 6  -7731069.387 9
  22568135.887    -9293288.049 7  -7001228.579 9
  25078427.340    -1606555.372 5  -1142248.476 8
  24982883.082     1936677.751 5   1666506.681 9
  23941991.590    -5238843.028 5  -4084129.914 9
 94  3  2  1 50  0.0040000  0  7  2  4  9  7 24 26 12
  23419722.504    -5322497.142 7  -4014727.114 9
  23184393.090    -9766902.472 6  -7507124.107 9
  23123968.301   -10154839.618 6  -7771828.468 9
  22582020.941    -9220322.012 7  -6944371.931 9
  25061107.363    -1697565.875 4  -1213165.618 9
  24999626.637     2024661.793 5   1735065.613 9
  23929087.660    -5306649.947 5  -4136966.434 9
 94  3  2  1 50 30.0040000  0  7  2  4  9  7 24 26 12
  23432458.051    -5255573.776 7  -3962579.046 9
  23172595.199    -9828898.781 6  -7555432.871 9
  23114080.910   -10206801.790 6  -7812318.442 9
  22595953.590    -9147104.575 7  -6887319.399 9
  25043807.066    -1788479.612 5  -1284007.394 9
  25016397.980     2112796.781 5   1803742.165 9
  23916213.980    -5374304.780 5  -4189684.452 9
 94  3  2  1 51  0.0040000  0  7  2  4  9  7 24 26 12
  23445231.012    -5188448.558 7  -3910273.697 9
  23160867.527    -9890530.139 6  -7603457.256 9
  23104258.848   -10258415.625 6  -7852537.001 9
  22609933.277    -9073640.192 7  -6830074.439 9
  25026525.590    -1879295.720 5  -1354773.041 9
  25033198.754     2201093.983 5   1872545.123 9
  23903371.051    -5441797.867 6  -4242276.428 9
 94  3  2  1 51 30.0040000  0  7  2  4  9  7 24 26 12
  23458043.605    -5121115.605 7  -3857806.465 9
  23149212.473    -9951780.033 7  -7651184.391 9
  23094507.066   -10309661.853 6  -7892469.106 9
  22623955.801    -8999951.726 7  -6772654.860 9
  25009260.348    -1970027.777 5  -1425473.259 9
  25050033.410     2289557.735 5   1941477.869 9
  23890557.957    -5509130.160 6  -4294743.107 9
 94  3  2  1 52  0.0040000  0  7  2  4  9  7 24 26 12
  23470897.355    -5053569.508 7  -3805173.150 9
  23137632.988   -10012630.745 7  -7698600.480 9
  23084830.012   -10360513.317 6  -7932093.612 9
  22638018.652    -8926049.560 7  -6715068.760 9
  24992006.215    -2060699.482 5  -1496126.427 9
  25066900.980     2378195.250 5   2010545.992 9
  23877775.684    -5576299.200 5  -4347082.567 9
 94  3  2  1 52 30.0040000  0  7  2  4  9  7 24 26 12
  23483795.644    -4985792.214 7  -3752359.688 9
  23126131.059   -10073071.354 6  -7745697.014 9
  23075230.246   -10410961.852 6  -7971404.149 9
  22652123.855    -8851925.964 7  -6657310.117 9
  24974763.895    -2151309.477 5  -1566731.471 9
  25083802.402     2467009.713 5   2079751.979 9
  23865024.519    -5643302.935 5  -4399293.215 9
 94  3  2  1 53  0.0040000  0  7  2  4  9  7 24 26 12
  23496738.059    -4917778.849 7  -3699362.285 9
  23114705.762   -10133109.756 6  -7792480.155 9
  23065708.973   -10460997.021 6  -8010392.568 9
  22666272.707    -8777572.038 7  -6599372.001 9
  24957535.598    -2241838.558 5  -1637273.491 9
  25100735.199     2555994.355 5   2149090.598 9
  23852305.957    -5710138.238 5  -4451372.633 9
 94  3  2  1 53 30.0040000  0  7  2  4  9  7 24 26 12
  23509724.770    -4849527.802 7  -3646179.662 9
  23103357.902   -10192745.949 7  -7838949.893 9
  23056266.215   -10510618.642 7  -8049058.750 9
  22680468.371    -8702975.492 7  -6541244.828 9
  24940325.488    -2332274.808 5  -1707743.173 9
  25117700.855     2645144.740 5   2218558.391 9
  23839620.777    -5776799.979 5  -4503316.809 9
 94  3  2  1 54  0.0040000  0  7  2  4  9  7 24 26 12
  23522758.051    -4781040.020 7  -3592812.565 9
  23092084.191   -10251990.864 7  -7885114.722 9
  23046901.379   -10559830.865 6  -8087405.919 9
  22694713.707    -8628116.800 7  -6482913.393 9
  24923137.574    -2422597.978 5  -1778124.761 9
  25134694.871     2734448.334 5   2288145.523 9
  23826969.770    -5843284.995 5  -4555123.278 9
 94  3  2  1 54 30.0040000  0  7  2  4  9  7 24 26 12
  23535835.910    -4712319.804 7  -3539264.374 9
  23080883.980   -10310847.124 7  -7930976.704 9
  23037614.098   -10608638.193 7  -8125437.587 9
  22709008.012    -8552999.136 7  -6424380.158 9
  24905975.316    -2512787.442 5  -1848402.154 9
  25151716.027     2823898.488 5   2357846.889 9
  23814352.379    -5909589.672 5  -4606789.213 9
 94  3  2  1 55  0.0040000  0  7  2  4  9  7 24 26 12
  23548952.145    -4643391.905 7  -3485554.346 9
  23069755.652   -10369325.887 7  -7976544.526 9
  23028404.301   -10657035.222 7  -8163149.542 9
  22723348.152    -8477641.848 7  -6365660.201 9
  24888835.496    -2602864.993 5  -1918592.338 9
  25168764.902     2913488.682 5   2427657.363 9
  23801769.387    -5975713.963 5  -4658314.577 9
 94  3  2  1 55 30.0040000  0  7  2  4  9  7 24 26 12
  23562106.176    -4574265.356 7  -3431689.514 9
  23058700.762   -10427418.004 7  -8021811.067 9
  23019272.020   -10705026.636 7  -8200545.434 9
  22737730.371    -8402061.264 7  -6306766.245 9
  24871714.590    -2692834.289 5  -1988698.168 9
  25185839.941     3003220.954 5   2497578.565 9
  23789221.215    -6041653.565 5  -4709696.030 9
 94  3  2  1 56  0.0040000  0  7  2  4  9  7 24 26 12
  23575299.840    -4504933.129 7  -3377664.419 9
  23047721.527   -10485112.424 6  -8066767.725 9
  23010217.254   -10752608.818 7  -8237622.439 9
  22752153.691    -8326267.352 7  -6247706.060 9
  24854612.574    -2782701.547 5  -2058724.493 9
  25202943.660     3093100.868 5   2567614.796 9
  23776708.629    -6107406.861 5  -4760932.318 9
 94  3  2  1 56 30.0040000  0  7  2  4  9  7 24 26 12
  23588530.895    -4435402.710 7  -3323484.888 9
  23036819.934   -10542403.763 6  -8111410.298 9
  23001239.598   -10799788.106 7  -8274385.499 9
  22766616.371    -8250265.953 7  -6188484.201 9
  24837527.809    -2872480.919 5  -2128682.349 9
  25220079.512     3183145.911 5   2637779.691 9
  23764232.363    -6172970.577 5  -4812020.882 9
 94  3  2  1 57  0.0040000  0  7  2  4  9  7 24 26 12
  23601801.785    -4365665.411 7  -3269144.151 9
  23025997.520   -10599275.201 6  -8155725.670 9
  22992338.488   -10846562.127 7  -8310832.765 9
  22781121.465    -8174041.716 7  -6129088.697 9
  24820460.754    -2962168.777 5  -2198568.876 9
  25237246.199     3273364.011 5   2708079.456 9
  23751793.809    -6238338.096 6  -4862956.570 9
 94  3  2  1 57 30.0040000  0  7  2  4  9  7 24 26 12
  23615113.949    -4295708.238 6  -3214632.075 9
  23015257.715   -10655715.032 7  -8199704.727 9
  22983513.301   -10892938.368 7  -8346970.081 9
  22795669.684    -8097591.636 7  -6069517.208 9
  24803415.691    -3051743.900 5  -2268367.581 9
  25254447.051     3363753.263 5   2778512.584 9
  23739391.449    -6303511.899 6  -4913741.317 9
 94  3  2  1 58  0.0040000  0  8  2  4  9  7 24 26 12  5
  23628469.215    -4225525.151 6  -3159943.983 9
  23004597.730   -10711733.349 7  -8243355.324 9
  22974767.004   -10938899.420 7  -8382783.867 9
  22810261.301    -8020909.184 7  -6009764.650 9
  24786391.254    -3141203.340 5  -2338076.137 9
  25271679.598     3454308.732 5   2849075.229 9
  23727025.449    -6368494.428 6  -4964377.006 9
  25575298.754      -62550.745 4
 94  3  2  1 58 30.0040000  0  8  2  4  9  7 24 26 12  5
  23641868.488    -4155111.344 6  -3105076.092 9
  22994017.277   -10767333.338 7  -8286679.955 9
  22966103.035   -10984429.057 7  -8418261.489 9
  22824899.590    -7943985.912 7  -5949824.436 9
  24769393.809    -3230528.189 5  -2407679.812 9
  25288941.543     3545019.972 5   2919759.247 9
  23714697.004    -6433279.712 5  -5014859.005 9
  25562984.504     -127262.704 4    -21851.49712
 94  3  2  1 59  0.0040000  0  8  2  4  9  7 24 26 12  5
  23655315.246    -4084451.133 6  -3050016.212 9
  22983517.145   -10822510.884 7  -8329675.413 9
  22957522.379   -11029520.203 7  -8453397.418 9
  22839580.059    -7866837.468 7  -5889708.761 9
  24752421.254    -3319713.119 5  -2477174.488 9
  25306228.316     3635863.100 5   2990546.037 9
  23702406.012    -6497867.842 5  -5065187.367 9
  25550666.066     -191996.245 4    -72293.020 9
 94  3  2  1 59 30.0040000  0  8  2  4  9  7 24 26 12  5
  23668808.340    -4013541.460 6  -2994761.938 9
  22973098.777   -10877258.989 7  -8372336.245 9
  22949027.301   -11074161.080 6  -8488182.490 9
  22854302.965    -7789468.674 7  -5829421.403 9
  24735477.668    -3408748.270 5  -2546552.443 9
  25323541.676     3726839.662 5   3061436.790 9
  23690154.348    -6562249.177 5  -5115354.595 9
  25538345.863     -256738.015 4   -122741.024 9
 94  3  2  2  0  0.0040000  0  8  2  4  9  7 24 26 12  5
  23682345.504    -3942401.581 6  -2939328.271 9
  22962759.980   -10931591.113 7  -8414672.925 9
  22940615.715   -11118364.319 6  -8522626.545 9
  22869065.457    -7711891.592 7  -5768971.738 9
  24718562.934    -3497638.462 5  -2615817.443 9
  25340876.793     3817937.392 5   3132421.988 9
  23677941.668    -6626426.385 5  -5165362.774 9
  25526023.691     -321484.228 3   -173192.558 7
 94  3  2  2  0 30.0040000  0  8  2  4  9  7 24 26 12  5
  23695923.519    -3871051.108 6  -2883730.511 9
  22952501.160   -10985498.482 7  -8456678.624 9
  22932280.004   -11162168.170 6  -8556759.390 9
  22883863.309    -7634128.213 7  -5708376.902 9
  24701673.019    -3586401.825 5  -2684983.602 9
  25358230.285     3909133.999 5   3203484.197 9
  23665765.644    -6690411.509 5  -5215221.277 9
  25513697.168     -386264.886 4   -223670.926 7
 94  3  2  2  1  0.0040000  0  8  2  4  9  7 24 26 12  5
  23709535.855    -3799517.683 6  -2827990.198 9
  22942325.691   -11038974.253 7  -8498348.014 9
  22924018.816   -11205580.230 6  -8590586.943 9
  22898694.676    -7556187.455 7  -5647643.844 9
  24684804.113    -3675049.473 5  -2754059.622 9
  25375604.105     4000435.387 5   3274628.089 9
  23653626.973    -6754203.640 5  -5264929.408 9
  25501368.434     -451063.899 4   -274163.573 9
 94  3  2  2  1 30.0040000  0  8  2  4  9  7 24 26 12  5
  23723177.645    -3727827.362 6  -2772127.624 9
  22932228.738   -11092030.709 7  -8539690.665 9
  22915832.449   -11248599.808 6  -8624108.672 9
  22913560.629    -7478065.825 7  -5586769.853 9
  24667956.129    -3763587.584 5  -2823050.264 9
  25392997.066     4091832.519 5   3345846.551 9
  23641523.934    -6817805.821 5  -5314489.523 9
  25489035.816     -515860.151 4   -324654.056 8
 94  3  2  2  2  0.0040000  0  8  2  4  9  7 24 26 12  5
  23736850.262    -3655976.648 6  -2716140.059 9
  22922213.051   -11144666.798 7  -8580705.758 9
  22907721.645   -11291223.039 6  -8657321.556 9
  22928462.652    -7399755.989 7  -5525749.220 9
  24651126.168    -3852026.109 5  -2891963.301 9
  25410404.965     4183317.135 5   3417133.190 9
  23629456.832    -6881217.742 5  -5363901.381 9
  25476705.348     -580662.058 4   -375148.961 9
 94  3  2  2  2 30.0040000  0  8  2  4  9  7 24 26 12  5
  23750557.652    -3583948.307 6  -2660014.099 9
  22912276.574   -11196884.247 7  -8621394.634 9
  22899689.121   -11333432.301 6  -8690211.857 9
  22943401.309    -7321252.330 7  -5464577.544 9
  24634314.621    -3940369.347 5  -2960802.107 9
  25427828.543     4274878.404 5   3488479.567 9
  23617426.762    -6944433.952 5  -5413160.734 9
  25464369.996     -645480.099 4   -425656.447 9
 94  3  2  2  3  0.0040000  0  8  2  4  9  7 24 26 12  5
  23764298.988    -3511737.506 6  -2603745.946 9
  22902412.762   -11248715.439 7  -8661782.532 9
  22891738.691   -11375213.767 6  -8722768.821 9
  22958374.941    -7242565.185 7  -5403262.899 9
  24617523.168    -4028608.792 5  -3029560.054 9
  25445263.395     4366501.461 4   3559874.113 9
  23605434.121    -7007457.198 5  -5462269.715 9
  25452031.605     -710312.834 4   -476175.391 9
 94  3  2  2  3 30.0040000  0  8  2  4  9  7 24 26 12  5
  23778082.176    -3439302.941 6  -2547303.436 9
  22892621.746   -11300166.991 7  -8701874.604 9
  22883870.012   -11416564.797 7  -8754990.380 9
  22973386.144    -7163681.770 7  -5341795.313 9
  24600754.066    -4116728.890 5  -3098224.975 9
  25462711.184     4458182.329 5   3631313.677 9
  23593478.887    -7070281.614 5  -5511223.764 9
  25439688.066     -775183.583 5   -526723.965 9
 94  3  2  2  4  0.0040000  0  8  2  4  9  7 24 26 12  5
  23791913.973    -3366617.172 6  -2490665.181 9
  22882903.488   -11351236.448 7  -8741668.945 9
  22876082.129   -11457489.910 6  -8786880.056 9
  22988436.191    -7084593.304 7  -5280167.948 9
  24584011.934    -4204706.754 5  -3166779.073 9
  25480170.684     4549934.508 5   3702808.799 9
  23581563.113    -7132900.091 6  -5560017.342 9
  25427333.441     -840113.137 5   -577318.350 9
 94  3  2  2  4 30.0040000  0  8  2  4  9  7 24 26 12  5
  23805792.426    -3293687.784 6  -2433837.098 9
  22873255.715   -11401938.669 7  -8781177.128 9
  22868372.699   -11498002.602 7  -8818448.366 9
  23003522.832    -7005312.916 7  -5218391.032 9
  24567299.402    -4292529.049 5  -3235211.951 9
  25497642.371     4641750.686 5   3774353.806 9
  23569685.691    -7195317.641 6  -5608654.343 9
  25414968.129     -905098.031 5   -627955.845 9
 94  3  2  2  5  0.0040000  0  8  2  4  9  7 24 26 12  5
  23819714.949    -3220521.647 6  -2376824.544 9
  22863682.238   -11452247.522 7  -8820378.776 9
  22860740.496   -11538109.743 7  -8849700.668 9
  23018645.824    -6925840.543 7  -5156464.517 9
  24550618.816    -4380190.124 5  -3303519.191 9
  25515129.254     4733645.115 5   3845959.800 9
  23557846.582    -7257533.606 6  -5657134.288 9
  25402592.191     -970130.781 5   -678630.639 9
 94  3  2  2  5 30.0040000  0  8  2  4  9  7 24 26 12  5
  23833681.480    -3147126.850 6  -2319633.813 9
  22854189.254   -11502131.341 7  -8859249.244 9
  22853185.168   -11577815.481 7  -8880640.184 9
  23033804.949    -6846176.816 6  -5094388.895 9
  24533967.215    -4467696.874 5  -3371706.182 9
  25532632.887     4825625.135 5   3917632.478 9
  23546045.793    -7319544.848 6  -5705454.696 9
  25390209.269    -1035199.479 4   -729333.408 9
 94  3  2  2  6  0.0040000  0  8  2  4  9  7 24 26 12  5
  23847685.887    -3073533.824 6  -2262288.613 9
  22844783.582   -11551556.323 7  -8897762.173 9
  22845707.637   -11617109.358 7  -8911258.778 9
  23048997.520    -6766341.994 6  -5032179.943 9
  24517343.660    -4555050.453 5  -3439773.819 9
  25550151.137     4917678.094 5   3989361.968 9
  23534285.316    -7381346.997 6  -5753612.185 9
  25377823.441    -1100274.721 3   -780041.293 7
 94  3  2  2  6 30.0040000  0  8  2  4  9  7 24 26 12  5
  23861723.645    -2999765.778 6  -2204807.039 9
  22835469.176   -11600504.147 7  -8935903.304 9
  22838311.066   -11655978.022 7  -8941546.035 9
  23064217.926    -6686356.273 7  -4969853.414 9
  24500745.285    -4642274.952 5  -3507740.867 9
  25567680.152     5009795.080 5   4061141.348 9
  23522564.043    -7442940.390 5  -5801607.008 9
  25365442.035    -1165341.066 3   -830742.268 8
 94  3  2  2  7  0.0040000  0  8  2  4  9  7 24 26 12  5
  23875793.941    -2925826.503 6  -2147192.040 9
  22826245.957   -11648972.594 7  -8973670.889 9
  22830996.746   -11694416.960 7  -8971498.432 9
  23079463.504    -6606241.282 6  -4907426.150 9
  24484168.895    -4729386.845 5  -3575620.189 9
  25585217.410     5101962.998 5   4132960.445 9
  23510882.848    -7504326.848 6  -5849440.578 9
  25353059.762    -1230414.720 4   -881448.910 8
 94  3  2  2  7 30.0040000  0  8  2  4  9  7 24 26 12  5
  23889893.855    -2851729.413 6  -2089454.076 9
  22817110.488   -11696980.501 7  -9011079.609 9
  22823763.957   -11732424.950 7  -9001115.035 9
  23094730.863    -6526009.371 7  -4844907.781 9
  24467612.027    -4816389.402 5  -3643414.323 9
  25602764.230     5194164.510 5   4204805.698 9
  23499241.144    -7565504.573 6  -5897111.502 9
  25340673.809    -1295502.247 4   -932166.343 9
 94  3  2  2  8  0.0040000  0  8  2  4  9  7 24 26 12  5
  23904025.559    -2777465.873 6  -2031586.411 9
  22808059.926   -11744539.948 7  -9048138.877 9
  22816615.020   -11769994.975 7  -9030390.367 9
  23110024.332    -6445642.300 7  -4782284.096 9
  24451078.824    -4903272.515 5  -3711115.382 9
  25620317.121     5286404.858 5   4276681.226 9
  23487639.871    -7626469.043 6  -5944616.251 9
  25328284.129    -1360615.519 5   -982903.901 9
 94  3  2  2  8 30.0040000  0  8  2  4  9  7 24 26 12  5
  23918193.371    -2703016.309 6  -1973573.798 9
  22799089.738   -11791677.411 7  -9084869.334 9
  22809545.934   -11807141.489 7  -9059335.688 9
  23125344.715    -6365135.107 7  -4719551.220 9
  24434570.254    -4990027.457 6  -3778716.567 9
  25637876.363     5378686.740 4   4348589.115 9
  23476078.621    -7687224.188 6  -5991957.886 9
  25315883.746    -1425775.712 5  -1033677.995 9
 94  3  2  2  9  0.0040000  0  8  2  4  9  7 24 26 12  5
  23932397.605    -2628372.168 6  -1915409.553 9
  22790199.395   -11838401.167 7  -9121277.418 9
  22802557.480   -11843866.536 7  -9087952.597 9
  23140693.144    -6284477.306 7  -4656700.989 9
  24418090.746    -5076631.926 6  -3846200.499 9
  25655443.496     5471005.858 4   4420526.008 9
  23464557.207    -7747767.349 6  -6039134.330 9
  25303474.871    -1490985.485 5  -1084490.710 9
 94  3  2  2  9 30.0040000  0  8  2  4  9  7 24 26 12  5
  23946636.293    -2553545.243 6  -1857102.865 9
  22781387.496   -11884707.023 7  -9157359.858 9
  22795650.238   -11880163.399 7  -9116235.846 9
  23156073.996    -6203651.518 7  -4593719.856 9
  24401640.582    -5163075.407 6  -3913558.967 9
  25673022.074     5563369.594 5   4492497.694 9
  23453076.184    -7808101.367 6  -6086147.806 9
  25291056.660    -1556247.644 5  -1135344.276 9
 94  3  2  2 10  0.0040000  0  7  2  4  9  7 24 12  5
  23960913.262    -2478519.254 6  -1798641.080 9
  22772656.316   -11930588.159 7  -9193111.357 9
  22788826.410   -11916021.720 7  -9144177.381 9
  23171487.270    -6122653.820 7  -4530604.764 9
  24385224.207    -5249343.691 6  -3980780.942 9
  23441635.262    -7868223.747 6  -6132996.386 9
  25278628.152    -1621560.267 5  -1186237.124 9
 94  3  2  2 10 30.0040000  0  7  2  4  9  7 24 12  5
  23975224.559    -2403315.033 6  -1740040.407 9
  22764007.379   -11976040.323 7  -9228528.594 9
  22782087.137   -11951439.122 7  -9171775.339 9
  23186927.699    -6041513.475 7  -4467378.516 9
  24368836.887    -5335452.329 5  -4047878.522 9
  23430234.082    -7928136.672 6  -6179681.744 9
  25266187.527    -1686929.613 5  -1237174.186 9
 94  3  2  2 11  0.0040000  0  7  2  4  9  7 24 12  5
  23989566.051    -2327949.612 6  -1681314.128 9
  22755439.621   -12021062.311 7  -9263610.620 9
  22775433.207   -11986403.955 7  -9199020.634 9
  23202393.715    -5960238.469 7  -4404047.349 9
  24352480.262    -5421409.767 5  -4114858.294 9
  23418872.934    -7987840.354 6  -6226204.062 9
  25253738.496    -1752354.801 5  -1288154.769 9
 94  3  2  2 11 30.0040000  0  7  2  4  9  7 24 12  5
  24003939.066    -2252416.916 6  -1622457.491 9
  22746955.488   -12065645.061 7  -9298350.387 9
  22768866.629   -12020912.202 7  -9225910.159 9
  23217885.621    -5878829.675 7  -4340611.931 9
  24336152.176    -5507216.206 5  -4181720.404 9
  23407552.871    -8047328.701 6  -6272558.585 9
  25241278.098    -1817828.935 5  -1339173.474 9
 94  3  2  2 12  0.0040000  0  7  2  4  9  7 24 12  5
  24018346.301    -2176709.781 6  -1563464.921 9
  22738554.441   -12109793.173 7  -9332751.486 9
  22762383.801   -12054979.882 7  -9252456.389 9
  23233398.238    -5797309.311 7  -4277089.566 9
  24319850.402    -5592882.350 5  -4248473.193 9
  23396273.738    -8106600.618 6  -6318744.461 9
  25228809.848    -1883351.288 5  -1390229.756 9
 94  3  2  2 12 30.0040000  0  7  2  4  9  7 24 12  5
  24032785.730    -2100830.814 6  -1504338.469 9
  22730236.238   -12153506.849 7  -9366814.056 9
  22755983.441   -12088611.773 7  -9278663.045 9
  23248931.293    -5715682.235 6  -4213484.060 9
  24303576.434    -5678404.185 6  -4315113.519 9
  23385037.293    -8165649.119 6  -6364756.242 9
  25216335.629    -1948908.372 5  -1441313.105 9
 94  3  2  2 13  0.0040000  0  7  2  4  9  7 24 12  5
  24047257.238    -2024780.251 6  -1445078.296 9
  22721996.426   -12196806.662 7  -9400554.130 9
  22749663.762   -12121824.327 7  -9304542.937 9
  23264482.645    -5633956.820 6  -4149801.923 9
  24287329.824    -5763785.957 6  -4381644.707 9
  23373840.480    -8224488.740 6  -6410605.260 9
  25203853.895    -2014500.133 5  -1492423.462 9
 94  3  2  2 13 30.0040000  0  7  2  4  9  7 24 12  5
  24061764.004    -1948545.230 5  -1385674.386 9
  22713838.059   -12239679.316 7  -9433961.353 9
  22743424.285   -12154609.161 7  -9330089.545 9
  23280054.621    -5552127.336 6  -4086038.697 9
  24271111.629    -5849014.465 6  -4448056.466 9
  23362686.019    -8283106.683 6  -6456281.531 9
  25191368.254    -2080106.216 5  -1543545.019 9
 94  3  2  2 14  0.0040000  0  7  2  4  9  7 24 12  5
  24076305.394    -1872130.472 6  -1326130.418 9
  22705758.387   -12282136.496 7  -9467044.829 9
  22737265.832   -12186973.935 7  -9355308.834 9
  23295643.754    -5470203.757 6  -4022202.151 9
  24254921.254    -5934092.011 6  -4514350.577 9
  23351572.746    -8341505.489 6  -6501787.046 9
  25178879.645    -2145733.235 5  -1594682.881 9
 94  3  2  2 14 30.0040000  0  7  2  4  9  7 24 12  5
  24090882.730    -1795528.630 6  -1266440.687 9
  22697762.184   -12324156.617 7  -9499787.751 9
  22731189.254   -12218906.194 7  -9380191.092 9
  23311254.848    -5388168.523 6  -3958278.593 9
  24238763.723    -6018999.416 6  -4580512.121 9
  23340503.824    -8399674.046 6  -6547113.155 9
  25166390.105    -2211367.578 5  -1645826.414 9
 94  3  2  2 15  0.0040000  0  7  2  4  9  7 24 12  5
  24105495.973    -1718735.079 6  -1206601.571 9
  22689853.801   -12365718.441 7  -9532173.551 9
  22725197.301   -12250394.522 7  -9404727.441 9
  23326887.894    -5306017.136 6  -3894264.520 9
  24222639.160    -6103730.223 6  -4646536.056 9
  23329479.434    -8457607.088 6  -6592255.749 9
  25153896.434    -2277019.106 5  -1696983.342 9
 94  3  2  2 15 30.0040000  0  7  2  4  9  7 24 12  5
  24120143.215    -1641763.272 6  -1146623.558 9
  22682033.543   -12406813.482 7  -9564195.613 9
  22719289.027   -12281444.701 7  -9428922.385 9
  23342542.277    -5223754.369 7  -3830163.665 9
  24206550.730    -6188274.060 6  -4712414.317 9
  23318500.238    -8515302.848 6  -6637213.442 9
  25141396.269    -2342711.842 5  -1748172.386 9
 94  3  2  2 16  0.0040000  0  7  2  4  9  7 24 12  5
  24134823.832    -1564615.134 6  -1086508.144 9
  22674303.941   -12447430.959 7  -9595845.555 9
  22713461.387   -12312064.623 7  -9452782.053 9
  23358218.012    -5141377.276 7  -3765973.723 9
  24190498.316    -6272629.483 6  -4778145.758 9
  23307566.660    -8572758.213 6  -6681983.822 9
  25128880.988    -2408477.518 5  -1799418.270 9
 94  3  2  2 16 30.0040000  0  7  2  4  9  7 24 12  5
  24149536.246    -1487299.321 6  -1026262.070 9
  22666667.012   -12487562.629 7  -9627116.957 9
  22707719.465   -12342240.288 7  -9476295.551 9
  23373916.371    -5058881.209 7  -3701691.076 9
  24174484.160    -6356784.486 6  -4843721.019 9
  23296679.855    -8629969.916 6  -6726564.331 9
  25116350.504    -2474324.762 5  -1850727.715 9
 94  3  2  2 17  0.0040000  0  7  2  4  9  7 24 12  5
  24164275.473    -1409846.282 6   -965909.075 9
  22659111.309   -12527267.929 7  -9658056.124 9
  22702055.949   -12372002.473 7  -9499486.855 9
  23389631.324    -4976300.473 7  -3637342.457 9
  24158500.551    -6440778.313 6  -4909170.687 9
  23285832.512    -8686972.809 6  -6770982.139 9
  25103797.215    -2540297.057 5  -1902134.621 9
 94  3  2  2 17 30.0040000  0  7  2  4  9  7 24 12  5
  24179049.152    -1332212.633 6   -905415.353 9
  22651639.129   -12566533.731 7  -9688652.818 9
  22696476.301   -12401322.113 7  -9522333.315 9
  23405371.012    -4893586.670 7  -3572890.145 9
  24142554.770    -6524574.921 6  -4974466.685 9
  23275031.465    -8743732.997 6  -6815210.821 9
  25091226.934    -2606350.479 5  -1953604.739 9
 94  3  2  2 18  0.0040000  0  7  2  4  9  7 24 12  5
  24193861.324    -1254372.858 6   -844761.005 9
  22644251.277   -12605358.885 7  -9718906.153 9
  22690982.723   -12430195.150 7  -9544831.779 9
  23421138.277    -4810728.836 7  -3508325.600 9
  24126645.293    -6608179.835 6  -5039613.310 9
  23264278.496    -8800240.844 6  -6859242.872 9
  25078646.738    -2672458.590 5  -2005117.471 9
 94  3  2  2 18 30.0040000  0  7  2  4  9  7 24 12  5
  24208717.199    -1176306.101 6   -783929.804 9
  22636945.769   -12643749.589 7  -9748820.955 9
  22685576.621   -12458600.670 7  -9566965.947 9
  23436933.848    -4727721.324 7  -3443644.422 9
  24110773.879    -6691581.158 6  -5104601.280 9
  23253574.473    -8856489.823 6  -6903073.215 9
  25066065.332    -2738579.189 5  -2056639.959 9
 94  3  2  2 19  0.0040000  0  7  2  4  9  7 24 12  5
  24223614.699    -1098015.906 6   -722924.500 9
  22629721.613   -12681712.094 7  -9778402.105 9
  22680255.566   -12486562.170 7  -9588754.124 9
  23452756.777    -4644573.435 7  -3378853.866 9
  24094937.965    -6774799.635 6  -5169446.792 9
  23242918.551    -8912485.282 6  -6946706.005 9
  25053480.246    -2804708.098 5  -2108168.853 9
 94  3  2  2 19 30.0050000  0  7  2  4  9  7 24 12  5
  24238553.353    -1019511.241 6   -661752.059 9
  22622586.110   -12719209.049 7  -9807620.477 9
  22675020.470   -12514070.266 6  -9610188.982 9
  23468604.071    -4561292.901 7  -3313959.934 9
  24079138.103    -6857828.762 6  -5234144.751 9
  23232313.313    -8968215.807 6  -6990132.349 9
  25040895.548    -2870836.771 5  -2159697.609 9
 94  3  2  2 20  0.0050000  0  7  2  4  9  7 24 12  5
  24253527.392     -940823.031 6   -600436.592 9
  22615543.188   -12756219.477 7  -9836459.733 9
  22669874.048   -12541119.004 7  -9631265.915 9
  23484469.298    -4477920.704 7  -3248994.591 9
  24063375.767    -6940666.120 6  -5298693.277 9
  23221759.149    -9023679.913 6  -7033351.094 9
  25028310.267    -2936976.140 5  -2211234.722 9
 94  3  2  2 20 30.0050000  0  7  2  4  9  7 24 12  5
  24268533.228     -861971.666 6   -538993.989 9
  22608593.165   -12792742.312 7  -9864919.055 9
  22664815.548   -12567700.663 7  -9651978.886 9
  23500349.852    -4394465.976 7  -3183964.928 9
  24047650.040    -7023306.146 6  -5363088.036 9
  23211254.415    -9078882.136 6  -7076365.788 9
  25015720.415    -3003139.740 5  -2262790.708 9
 94  3  2  2 21  0.0050000  0  7  2  4  9  7 24 12  5
  24283566.267     -782969.449 6   -477433.848 9
  22601738.032   -12828765.776 7  -9892989.251 9
  22659845.899   -12593817.394 7  -9672329.572 9
  23516246.235    -4310934.273 7  -3118875.290 9
  24031960.313    -7105753.134 6  -5427332.380 9
  23200800.970    -9133815.795 6  -7119171.216 9
  25003123.751    -3069334.006 5  -2314370.569 9
 94  3  2  2 21 30.0000000  0  7  2  4  9  7 24 12  5
  22799668.594     -703805.041 6   -415747.318 9
  21096017.711   -12864280.405 7  -9920662.954 9
  21156006.891   -12619444.180 7  -9692298.486 9
  22033194.297    -4227325.327 7  -3053725.460 9
  22517347.836    -7187993.951 6  -5491416.081 9
  21691437.055    -9188474.530 6  -7161762.404 9
  23491560.641    -3135551.237 5  -2365968.330 9
 94  3  2  2 22  0.0000000  0  7  2  4  9  7 24 12  5
  22814767.477     -624460.505 6   -353920.418 9
  21089350.891   -12899313.737 7  -9947961.620 9
  21151221.398   -12644591.674 7  -9711893.922 9
  22049121.945    -4143624.399 7  -2988503.949 9
  22501737.555    -7270024.462 6  -5555335.907 9
  21681087.109    -9242863.237 6  -7204143.182 9
  23478953.977    -3201797.268 5  -2417588.557 9
 94  3  2  2 22 30.0000000  0  7  2  4  9  7 24 12  5
  22829904.984     -544910.833 6   -291933.676 9
  21082774.484   -12933873.969 7  -9974891.637 9
  21146527.844   -12669255.229 7  -9731112.254 9
  22065074.188    -4059795.276 7  -2923182.543 9
  22486166.633    -7351850.123 6  -5619096.109 9
  21670790.969    -9296970.533 6  -7246304.669 9
  23466347.234    -3268046.095 5  -2469210.972 9
 94  3  2  2 23  0.0000000  0  7  2  4  9  7 24 12  5
  22845083.477     -465147.562 6   -229780.497 9
  21076289.586   -12967951.127 7 -10001445.228 9
  21141926.445   -12693439.201 7  -9749956.891 9
  22081049.906    -3975838.347 6  -2857761.551 9
  22470634.367    -7433470.427 6  -5682696.276 9
  21660549.000    -9350793.361 6  -7288244.505 9
  23453740.641    -3334293.801 5  -2520832.520 9
 94  3  2  2 23 30.0000000  0  7  2  4  9  7 24 12  5
  22860302.273     -385172.224 6   -167462.072 9
  21069897.477   -13001540.537 7 -10027618.757 9
  21137415.945   -12717140.875 7  -9768425.710 9
  22097049.656    -3891758.508 6  -2792244.789 9
  22455144.523    -7514870.042 6  -5746124.492 9
  21650362.063    -9404326.577 6  -7329958.668 9
  23441133.211    -3400547.131 5  -2572458.409 9
 94  3  2  2 24  0.0000000  0  7  2  4  9  7 24 12  5
  22875559.094     -304999.164 6   -104989.589 9
  21063597.898   -13034645.236 7 -10053414.591 9
  21132995.578   -12740367.576 7  -9786524.428 9
  22113071.789    -3807563.221 6  -2726638.055 9
  22439698.719    -7596039.230 6  -5809373.145 9
  21640230.258    -9457567.695 6  -7371445.228 9
  23428523.219    -3466812.714 5  -2624093.872 9
 94  3  2  2 24 30.0000000  0  7  2  4  9  7 24 12  5
  22890847.648     -224659.354 6    -42387.163 9
  21057394.469   -13067243.562 7 -10078815.854 9
  21128668.703   -12763107.951 7  -9804244.183 9
  22129110.422    -3723278.492 6  -2660961.645 9
  22424296.734    -7676975.402 6  -5872440.227 9
  21630154.547    -9510516.237 6  -7412703.806 9
  23415912.148    -3533089.352 5  -2675737.928 9
 94  3  2  2 25  0.0000000  0  7  2  4  9  7 24 12  5
  22906163.766     -144169.139 6     20332.459 9
  21051289.063   -13099330.335 7 -10103818.501 9
  21124433.539   -12785362.825 7  -9821585.632 9
  22145162.031    -3638926.705 6  -2595232.968 9
  22408943.820    -7757657.583 6  -5935309.412 9
  21620134.891    -9563170.414 6  -7453733.016 9
  23403296.836    -3599381.856 5  -2727394.358 9
 94  3  2  2 25 30.0000000  0  7  2  4  9  7 24 12  5
  22921508.875      -63532.202 6     83166.418 9
  21045278.820   -13130913.281 7 -10128428.554 9
  21120293.961   -12807115.476 7  -9838535.731 9
  22161227.977    -3554497.122 6  -2529443.675 9
  22393641.031    -7838074.350 6  -5997971.774 9
  21610172.055    -9615524.326 6  -7494528.243 9
  23390678.266    -3665688.018 5  -2779061.427 9
 94  3  2  2 26  0.0000000  0  7  2  4  9  7 24 12  5
  22936883.906       17263.902 6    146124.390 9
  21039363.227   -13162001.635 7 -10152653.208 9
  21116250.703   -12828365.566 7  -9855094.233 9
  22177311.891    -3469978.857 6  -2463585.295 9
  22378388.188    -7918230.972 6  -6060431.415 9
  21600265.648    -9667582.466 6  -7535093.002 9
  23378059.672    -3731999.062 5  -2830732.315 9
 94  3  2  2 26 30.0000000  0  7  2  4  9  7 24 12  5
  22952293.250       98242.155 6    209224.302 9
  21033541.422   -13192592.733 7 -10176490.397 9
  21112301.781   -12849115.618 7  -9871263.090 9
  22193413.305    -3385365.809 6  -2397653.064 9
  22363180.648    -7998146.671 6  -6122703.330 9
  21590415.914    -9719342.145 6  -7575425.194 9
  23365441.789    -3798306.932 5  -2882400.739 9
 94  3  2  2 27  0.0000000  0  7  2  4  9  7 24 12  5
  22967745.195      179442.783 6    272497.501 9
  21027815.617   -13222681.649 7 -10199936.280 9
  21108449.023   -12869362.643 7  -9887039.978 9
  22209535.727    -3300640.246 6  -2331633.146 9
  22348020.445    -8077812.363 6  -6184780.425 9
  21580625.797    -9770789.204 6  -7615513.793 9
  23352827.008    -3864601.898 5  -2934059.069 9
 94  3  2  2 27 30.0000000  0  7  2  4  9  7 24 12  5
  22983244.258      260888.549 6    335961.687 9
  21022187.484   -13252258.039 7 -10222982.789 9
  21104693.094   -12889097.538 7  -9902417.811 9
  22225681.094    -3215796.635 6  -2265521.241 9
  22332906.859    -8157234.964 6  -6246668.098 9
  21570896.102    -9821918.516 6  -7655354.792 9
  23340211.109    -3930893.568 5  -2985714.860 9
 94  3  2  2 28  0.0000000  0  7  2  4  9  7 24 12  5
  22998791.078      342587.637 6    399623.286 9
  21016658.047   -13281314.668 7 -10245624.292 9
  21101031.000   -12908340.623 7  -9917412.408 9
  22241846.016    -3130850.337 6  -2199329.318 9
  22317837.500    -8236425.549 6  -6308374.987 9
  21561227.477    -9872726.650 6  -7694945.524 9
  23327596.719    -3997185.386 5  -3037370.776 9
 94  3  2  2 28 30.0000000  0  7  2  4  9  7 24 12  5
  23014380.633      424515.490 5    463463.129 9
  21011230.523   -13309837.662 7 -10267849.971 9
  21097461.703   -12927100.289 7  -9932030.310 9
  22258028.609    -3045810.209 6  -2133064.276 9
  22302812.234    -8315379.050 6  -6369897.143 9
  21551621.133    -9923209.051 6  -7734282.435 9
  23314978.094    -4063495.675 5  -3089041.059 9
 94  3  2  2 29  0.0000000  0  7  2  4  9  7 24 12  5
  23030011.023      506649.744 6    527463.836 9
  21005903.539   -13337828.476 7 -10289660.971 9
  21093986.484   -12945361.108 7  -9946259.505 9
  22274229.008    -2960676.927 6  -2066726.653 9
  22287839.500    -8394061.446 6  -6431208.063 9
  21542076.930    -9973364.096 6  -7773364.267 9
  23302354.633    -4129834.346 5  -3140733.471 9
 94  3  2  2 29 30.0000000  0  7  2  4  9  7 24 12  5
  23045675.992      588968.634 6    591608.378 9
  21000674.922   -13365303.699 7 -10311070.202 9
  21090606.281   -12963125.264 7  -9960101.688 9
  22290446.008    -2875455.223 6  -2000320.125 9
  22272917.555    -8472479.412 6  -6492312.937 9
  21532594.430   -10023196.134 6  -7812194.397 9
  23289724.828    -4196202.823 5  -3192449.105 9
 94  3  2  2 30  0.0000000  0  7  2  4  9  7 24 12  5
  23061372.813      671457.983 5    655885.757 9
  20995546.539   -13392256.899 7 -10332072.668 9
  21087318.344   -12980403.631 7  -9973565.332 9
  22306680.047    -2790142.615 6  -1933842.773 9
  22258049.766    -8550613.390 6  -6553196.502 9
  21523173.555   -10072702.832 6  -7850771.011 9
  23277092.188    -4262586.421 5  -3244176.535 9
 94  3  2  2 30 30.0000000  0  7  2  4  9  7 24 12  5
  23077097.859      754097.814 5    720280.398 9
  20990512.109   -13418711.815 7 -10352686.852 9
  21084123.203   -12997192.378 7  -9986647.453 9
  22322930.914    -2704745.242 6  -1867299.365 9
  22243236.203    -8628456.803 6  -6613853.648 9
  21513811.516   -10121900.691 6  -7889106.973 9
  23264455.398    -4328996.391 5  -3295924.499 9
 94  3  2  2 31  0.0000000  0  7  2  4  9  7 24 12  5
  23092857.555      836912.191 5    784811.048 9
  20985570.656   -13444678.522 7 -10372920.615 9
  21081025.711   -13013471.627 7  -9999332.577 9
  22339197.398    -2619265.626 6  -1800691.874 9
  22228477.453    -8706013.639 6  -6674287.491 9
  21504508.930   -10170786.199 6  -7927199.541 9
  23251817.055    -4395409.261 5  -3347674.727 9
 94  3  2  2 31 30.0000000  0  7  2  4  9  7 24 12  5
  23108657.219      919938.331 5    849506.713 9
  20980728.609   -13470122.042 7 -10392746.711 9
  21078027.133   -13029228.267 6 -10011610.463 9
  22355483.758    -2533681.607 6  -1734003.029 9
  22213773.609    -8783283.174 6  -6734497.465 9
  21495271.250   -10219330.108 6  -7965025.940 9
  23239184.219    -4461796.391 6  -3399404.898 9
 94  3  2  2 32  0.0000000  0  7  2  4  9  7 24 12  5
  23124495.422     1003172.470 5    914364.448 9
  20975988.352   -13495032.021 7 -10412157.051 9
  21075128.664   -13044457.960 6 -10023477.737 9
  22371787.891    -2448002.926 6  -1667240.433 9
  22199123.773    -8860268.721 6  -6794486.152 9
  21486097.578   -10267537.276 6  -8002589.939 9
  23226552.398    -4528174.852 5  -3451128.305 9
 94  3  2  2 32 30.0000000  0  7  2  4  9  7 24 12  5
  23140373.086     1086606.624 6    979378.051 9
  20971345.875   -13519427.664 7 -10431166.613 9
  21072332.344   -13059153.477 6 -10034928.777 9
  22388105.695    -2362251.295 6  -1600420.981 9
  22184522.648    -8936998.632 6  -6854275.643 9
  21476986.578   -10315415.552 6  -8039897.652 9
  23213920.430    -4594553.983 5  -3502852.245 9
 94  3  2  2 33  0.0000000  0  7  2  4  9  7 24 12  5
  23156291.836     1170259.599 5   1044562.160 9
  20966808.492   -13543276.569 7 -10449750.154 9
  21069638.875   -13073309.464 6 -10045959.416 9
  22404439.008    -2276420.821 6  -1533540.104 9
  22169970.289    -9013472.242 6  -6913865.419 9
  21467942.242   -10362943.840 6  -8076932.645 9
  23201291.672    -4660918.003 5  -3554564.420 9
 94  3  2  2 33 30.0000000  0  7  2  4  9  7 24 12  5
  23172246.477     1254103.621 5   1109895.140 9
  20962372.484   -13566585.891 7 -10467913.237 9
  21067041.094   -13086959.060 6 -10056595.456 9
  22420783.477    -2190527.642 6  -1466610.361 9
  22155464.641    -9089698.606 6  -6973262.536 9
  21458961.336   -10410138.739 6  -8113707.857 9
  23188661.711    -4727290.476 5  -3606283.173 9
 94  3  2  2 34  0.0000000  0  7  2  4  9  7 24 12  5
  23188235.617     1338123.973 6   1175365.508 9
  20958036.789   -13589370.991 7 -10485667.834 9
  21064539.789   -13100099.971 6 -10066835.120 9
  22437137.172    -2104586.876 6  -1399643.532 9
  22141009.109    -9165662.073 6  -7032454.787 9
  21450043.109   -10457005.449 6  -8150227.347 9
  23176031.852    -4793662.501 6  -3658001.556 9
 94  3  2  2 34 30.0000000  0  7  2  4  9  7 24 12  5
  23204260.367     1422336.350 5   1240985.513 9
  20953800.164   -13611637.521 7 -10503018.351 9
  21062135.773   -13112735.800 6 -10076681.214 9
  22453501.227    -2018594.004 6  -1332636.099 9
  22126605.875    -9241347.676 6  -7091430.540 9
  21441189.336   -10503532.403 6  -8186482.090 9
  23163406.258    -4860013.260 6  -3709703.391 9
 94  3  2  2 35  0.0000000  0  7  2  4  9  7 24 12  5
  23220322.305     1506748.438 5   1306761.126 9
  20949662.898   -13633378.333 7 -10519959.212 9
  21059826.742   -13124869.339 6 -10086135.914 9
  22469877.531    -1932539.049 6  -1265580.295 9
  22112260.750    -9316730.528 6  -7150170.388 9
  21432401.758   -10549711.140 6  -8222465.485 9
  23150783.328    -4926339.831 5  -3761386.371 9
 94  3  2  2 35 30.0000000  0  7  2  4  9  7 24 12  5
  23236423.875     1591360.776 5   1372692.797 9
  20945623.156   -13654605.254 7 -10536499.645 9
  21057616.469   -13136483.296 6 -10095185.746 9
  22486265.102    -1846422.349 6  -1198476.385 9
  22097976.383    -9391799.039 6  -7208665.279 9
  21423681.266   -10595537.574 6  -8258174.361 9
  23138167.102    -4992636.359 5  -3813045.936 9
 94  3  2  2 36  0.0000000  0  7  2  4  9  7 24 12  5
  23252562.906     1676166.812 5   1438775.368 9
  20941679.703   -13675328.439 7 -10552647.554 9
  21055506.688   -13147572.968 6 -10103827.049 9
  22502663.000    -1760248.411 6  -1131327.866 9
  22083750.070    -9466557.236 6  -7266918.373 9
  21415027.758   -10641011.059 6  -8293608.218 9
  23125555.258    -5058912.762 5  -3864689.826 9
 94  3  2  2 36 30.0000000  0  7  2  4  9  7 24 12  5
  23268740.953     1761180.225 5   1505019.550 9
  20937833.492   -13695541.730 7 -10568398.140 9
  21053494.539   -13158145.369 6 -10112065.289 9
  22519076.445    -1673993.507 6  -1064116.262 9
  22069582.969    -9541007.274 6  -7324931.341 9
  21406442.289   -10686127.058 6  -8328763.517 9
  23112946.055    -5125177.229 5  -3916324.397 9
 94  3  2  2 37  0.0000000  0  7  2  4  9  7 24 12  5
  23284953.148     1846382.380 5   1571410.806 9
  20934085.094   -13715238.259 7 -10583746.060 9
  21051582.805   -13168192.155 6 -10119893.958 9
  22535505.680    -1587657.261 6   -996841.281 9
  22055472.391    -9615158.482 6  -7382711.466 9
  21397924.477   -10730888.429 6  -8363642.484 9
  23100336.625    -5191437.660 5  -3967955.844 9
 94  3  2  2 37 30.0000000  0  7  2  4  9  7 24 12  5
  23301202.000     1931768.458 5   1637945.375 9
  20930435.820   -13734414.662 7 -10598688.684 9
  21049771.703   -13177710.049 6 -10127310.494 9
  22551952.703    -1501229.005 6   -929494.590 9
  22041417.680    -9689016.781 6  -7440263.346 9
  21389474.828   -10775292.323 6  -8398242.895 9
  23087728.164    -5257693.553 5  -4019583.742 9
 94  3  2  2 38  0.0000000  0  7  2  4  9  7 24 12  5
  23317485.008     2017332.999 5   1704619.008 9
  20926886.273   -13753065.509 7 -10613221.790 9
  21048056.781   -13186722.894 6 -10134333.485 9
  22568418.695    -1414701.462 6   -862070.534 9
  22027419.805    -9762576.842 6  -7497582.826 9
  21381092.328   -10819341.377 6  -8432566.812 9
  23075120.516    -5323948.735 5  -4071211.106 9
 94  3  2  2 38 30.0000000  0  7  2  4  9  7 24 12  5
  23333805.477     2103101.518 5   1771451.593 9
  20923442.594   -13771161.569 7 -10627322.593 9
  21046441.570   -13195209.952 6 -10140946.765 9
  22584905.102    -1328065.355 6   -794561.880 9
  22013483.563    -9835813.965 6  -7554650.677 9
  21372781.531   -10863015.208 6  -8466598.345 9
  23062514.938    -5390191.809 5  -4122829.010 9
 94  3  2  2 39  0.0000000  0  7  2  4  9  7 24 12  5
  23350159.969     2189044.103 5   1838419.794 9
  20920104.820   -13788703.659 7 -10640991.732 9
  21044925.172   -13203178.609 6 -10147156.104 9
  22601403.727    -1241359.106 6   -726998.567 9
  21999605.094    -9908743.867 6  -7611479.138 9
  21364540.023   -10906326.207 6  -8500347.156 9
  23049909.555    -5456437.566 6  -4174449.015 9
 94  3  2  2 39 30.0000000  0  7  2  4  9  7 24 12  5
  23366548.930     2275166.266 6   1905527.918 9
  20916873.742   -13805683.205 7 -10654222.514 9
  21043506.914   -13210633.029 6 -10152964.741 9
  22617916.703    -1154583.746 6   -659381.395 9
  21985788.484    -9981349.203 6  -7668054.679 9
  21356367.992   -10949269.279 6  -8533809.269 9
  23037301.648    -5522682.923 5  -4226068.701 9
 94  3  2  2 40  0.0000000  0  7  2  4  9  7 24 12  5
  23382973.906     2361482.155 6   1972787.017 9
  20913749.734   -13822098.495 7 -10667013.629 9
  21042187.219   -13217566.973 6 -10158367.814 9
  22634440.359    -1067752.998 6   -591721.075 9
  21972035.078   -10053625.289 6  -7724373.669 9
  21348267.266   -10991840.301 6  -8566981.474 9
  23024694.703    -5588934.488 5  -4277693.240 9
 94  3  2  2 40 30.0000000  0  7  2  4  9  7 24 12  5
  23399441.680     2448016.428 6   2040216.268 9
  20910738.102   -13837925.790 7 -10679346.563 9
  21040976.055   -13223932.263 6 -10163327.770 9
  22650974.609     -980864.321 6   -524015.601 9
  21958345.633   -10125563.797 6  -7780429.598 9
  21340241.109   -11034017.794 6  -8599847.034 9
  23012091.508    -5655166.373 5  -4329302.445 9
 94  3  2  2 41  0.0000000  0  7  2  4  9  7 24 12  5
  23415943.102     2534734.877 6   2107789.047 9
  20907829.508   -13853210.330 7 -10691256.564 9
  21039869.977   -13229746.561 7 -10167858.380 9
  22667514.016     -893946.928 6   -456287.763 9
  21944716.422   -10197181.710 6  -7836235.724 9
  21332285.242   -11075825.565 6  -8632424.498 9
  22999492.852    -5721379.710 6  -4380897.194 9
 94  3  2  2 41 30.0000000  0  7  2  4  9  7 24 12  5
  23432482.836     2621649.947 6   2175515.101 9
  20905019.023   -13867979.219 7 -10702764.764 9
  21038868.016   -13235010.175 7 -10171959.893 9
  22684059.180     -807003.375 6   -388539.551 9
  21931150.156   -10268473.787 6  -7891787.945 9
  21324399.992   -11117262.005 6  -8664712.605 9
  22986896.773    -5787569.614 6  -4432473.660 9
 94  3  2  2 42  0.0000000  0  7  2  4  9  7 24 12  5
  23449060.344     2708766.123 6   2243397.754 9
  20902304.609   -13882242.918 7 -10713879.313 9
  21037970.156   -13239729.019 7 -10175636.904 9
  22700607.688     -720042.039 6   -320777.467 9
  21917643.813   -10339451.288 6  -7947095.039 9
  21316586.055   -11158323.539 6  -8696708.583 9
  22974306.578    -5853727.275 6  -4484025.017 9
 94  3  2  2 42 30.0000000  0  7  2  4  9  7 24 12  5
  23465665.203     2796022.921 5   2311390.025 9
  20899679.164   -13896042.886 7 -10724632.511 9
  21037168.000   -13243944.873 7 -10178921.977 9
  22717152.289     -633098.499 6   -253029.276 9
  21904190.641   -10410145.682 6  -8002181.539 9
  21308836.305   -11199049.904 6  -8728443.394 9
  22961717.766    -5919877.090 5  -4535570.271 9
 94  3  2  2 43  0.0000000  0  7  2  4  9  7 24 12  5
  23482299.719     2883441.789 5   2379508.592 9
  20897146.672   -13909348.730 7 -10735000.670 9
  21036460.969   -13247659.918 7 -10181816.813 9
  22733701.930     -546131.861 6   -185263.064 9
  21890798.578   -10480522.287 6  -8057020.419 9
  21301156.328   -11239409.169 6  -8759892.160 9
  22949137.039    -5985992.803 5  -4587088.975 9
 94  3  2  2 43 30.0000000  0  7  2  4  9  7 24 12  5
  23498973.961     2971066.064 5   2447787.218 9
  20894720.891   -13922095.834 7 -10744933.454 9
  21035853.797   -13250853.678 7 -10184305.452 9
  22750264.367     -459092.975 6   -117440.559 9
  21877470.859   -10550562.062 6  -8111596.821 9
  21293553.422   -11279361.683 6  -8791023.979 9
  22936565.375    -6052057.676 6  -4638568.036 9
 94  3  2  2 44  0.0000000  0  7  2  4  9  7 24 12  5
  23515680.695     3058863.507 5   2516200.783 9
  20892401.203   -13934286.871 7 -10754432.943 9
  21035339.922   -13253553.595 7 -10186409.278 9
  22766837.086     -372005.765 6    -49580.404 9
  21864200.969   -10620295.735 6  -8165934.714 9
  21286022.641   -11318934.997 6  -8821860.316 9
  22923997.977    -6118103.493 6  -4690032.268 9
 94  3  2  2 44 30.0000000  0  7  2  4  9  7 24 12  5
  23532426.883     3146860.558 5   2584769.856 9
  20890193.188   -13945888.363 7 -10763473.042 9
  21034925.750   -13255730.506 7 -10188105.570 9
  22783422.461     -284849.042 6     18333.902 9
  21850994.281   -10689697.558 6  -8220014.016 9
  21278568.352   -11358107.071 6  -8852383.983 9
  22911436.523    -6184114.804 6  -4741469.602 9
 94  3  2  2 45  0.0000000  0  7  2  4  9  7 24 12  5
  23549199.367     3234998.984 5   2653449.119 9
  20888086.070   -13956961.612 7 -10772101.528 9
  21034599.523   -13257445.303 7 -10189441.768 9
  22800007.289     -197693.758 6     86247.094 9
  21837835.117   -10758847.940 6  -8273897.384 9
  21271178.883   -11396941.135 6  -8882644.271 9
  22898865.086    -6250175.083 6  -4792945.090 9
 94  3  2  2 45 30.0000000  0  7  2  4  9  7 24 12  5
  23566011.086     3323350.725 5   2722294.582 9
  20886090.758   -13967447.662 7 -10780272.453 9
  21034379.117   -13258602.666 7 -10190343.604 9
  22816605.391     -110469.023 6    154214.406 9
  21824738.484   -10827672.765 6  -8327527.081 9
  21263867.422   -11435363.880 6  -8912584.064 9
  22886295.867    -6316221.630 5  -4844409.884 9
 94  3  2  2 46  0.0000000  0  7  2  4  9  7 24 12  5
  23582861.703     3411893.703 5   2791289.080 9
  20884201.875   -13977373.052 7 -10788006.501 9
  21034264.039   -13259205.721 7 -10190813.517 9
  22833214.266      -23190.456 6    222223.674 9
  21811704.063   -10896168.049 6  -8380899.985 9
  21256631.391   -11473387.958 6  -8942213.200 9
  22873730.672    -6382254.545 5  -4895864.056 9
 94  3  2  2 46 30.0000000  0  7  2  4  9  7 24 12  5
  23599741.234     3500601.373 5   2860411.904 9
  20882413.234   -13986772.818 7 -10795330.964 9
  21034251.102   -13259275.129 7 -10190867.603 9
  22849829.945       64127.828 6    290263.895 9
  21798731.734   -10964337.581 6  -8434019.067 9
  21249468.320   -11511028.213 6  -8971543.244 9
  22861164.109    -6448291.952 6  -4947321.725 9
 94  3  2  2 47  0.0000000  0  7  2  4  9  7 24 12  5
  23616654.898     3589478.888 5   2929667.065 9
  20880722.523   -13995654.387 7 -10802251.643 9
  21034340.602   -13258803.127 7 -10190499.812 9
  22866456.648      151503.808 5    358349.056 9
  21785824.781   -11032164.643 6  -8486871.283 9
  21242381.945   -11548268.943 6  -9000561.975 9
  22848600.617    -6514314.204 6  -4998767.580 9
 94  3  2  2 47 30.0000000  0  7  2  4  9  7 24 12  5
  23633600.891     3678533.923 5   2999060.560 9
  20879130.398   -14004021.755 7 -10808771.658 9
  21034530.102   -13257807.236 7 -10189723.786 9
  22883093.898      238929.501 6    426472.963 9
  21772986.281   -11099631.884 6  -8539443.120 9
  21235371.398   -11585109.049 6  -9029268.530 9
  22836043.031    -6580302.550 6  -5050187.035 9
 94  3  2  2 48  0.0000000  0  7  2  4  9  7 24 12  5
  23650577.922     3767746.490 5   3068576.792 9
  20877632.898   -14011891.230 7 -10814903.689 9
  21034813.359   -13256319.962 7 -10188564.871 9
  22899734.578      326378.727 6    494615.206 9
  21760213.727   -11166746.798 6  -8591740.408 9
  21228433.547   -11621565.049 6  -9057675.775 9
  22823491.266    -6646262.472 6  -5101584.329 9
 94  3  2  2 48 30.0000000  0  7  2  4  9  7 24 12  5
  23667587.859     3857135.711 5   3138230.699 9
  20876231.266   -14019259.647 7 -10820645.283 9
  21035194.227   -13254316.187 7 -10187003.492 9
  22916380.305      413853.656 6    562777.480 9
  21747512.234   -11233491.921 6  -8643749.555 9
  21221573.625   -11657616.425 6  -9085767.727 9
  22810948.281    -6712179.571 6  -5152948.247 9
 94  3  2  2 49  0.0000000  0  7  2  4  9  7 24 12  5
  23684633.930     3946713.689 5   3208031.699 9
  20874928.406   -14026105.508 7 -10825979.701 9
  21035677.836   -13251778.785 7 -10185026.297 9
  22933031.273      501354.345 6    630959.842 9
  21734881.289   -11299869.481 6  -8695472.293 9
  21214792.258   -11693253.031 6  -9113536.487 9
  22798413.680    -6778048.371 6  -5204274.536 9
 94  3  2  2 49 30.0000000  0  7  2  4  9  7 24 12  5
  23701702.766     4036412.366 5   3277926.727 9
  20873717.406   -14032468.433 7 -10830937.797 9
  21036251.125   -13248762.961 7 -10182676.307 9
  22949675.578      588817.218 6    699112.735 9
  21722310.242   -11365929.324 6  -8746947.449 9
  21208078.063   -11728534.365 6  -9141028.413 9
  22785874.961    -6843938.390 6  -5255617.392 9
 94  3  2  2 50  0.0000000  0  7  2  4  9  7 24 12  5
  23718821.969     4126369.351 5   3348023.032 9
  20872626.977   -14038198.077 7 -10835402.430 9
  21036947.102   -13245105.380 6 -10179826.243 9
  22966340.281      676392.743 6    767353.406 9
  21709827.266   -11431529.780 6  -8798064.655 9
  21201459.859   -11763314.463 6  -9168129.763 9
  22773359.766    -6909707.825 6  -5306866.234 9
 94  3  2  2 50 30.0000000  0  7  2  4  9  7 24 12  5
  23735981.547     4216549.759 5   3418293.457 9
  20871653.188   -14043316.832 7 -10839391.040 9
  21037757.617   -13240846.450 7 -10176507.603 9
  22983017.648      764032.531 6    835644.172 9
  21697420.641   -11496729.973 6  -8848869.951 9
  21194928.320   -11797637.245 6  -9194874.770 9
  22760858.250    -6975403.507 6  -5358057.629 9
 94  3  2  2 51  0.0000000  0  7  2  4  9  7 24 12  5
  23753180.117     4306925.673 5   3488716.214 9
  20870796.250   -14047818.783 7 -10842899.029 9
  21038675.297   -13236026.540 7 -10172751.835 9
  22999704.750      851723.793 6    903975.029 9
  21685084.656   -11561553.891 6  -8899382.054 9
  21188479.391   -11831526.494 6  -9221281.952 9
  22748367.602    -7041042.921 6  -5409205.160 9
 94  3  2  2 51 30.0000000  0  7  2  4  9  7 24 12  5
  23770416.453     4397499.159 5   3559292.920 9
  20870055.992   -14051711.440 7 -10845932.257 9
  21039697.492   -13230651.594 6 -10168563.570 9
  23016402.953      939471.720 6    972350.060 9
  21672822.063   -11625994.874 6  -8949595.767 9
  21182114.148   -11864977.312 6  -9247347.502 9
  22735891.117    -7106609.997 6  -5460296.336 9
 94  3  2  2 52  0.0000000  0  7  2  4  9  7 24 12  5
  23787692.273     4488285.214 5   3630035.263 9
  20869430.211   -14054998.637 7 -10848493.675 9
  21040829.094   -13224703.328 6 -10163928.546 9
  23033112.648     1027282.844 6   1040774.332 9
  21660632.258   -11690054.793 7  -8999512.548 9
  21175834.734   -11897976.242 6  -9273060.937 9
  22723428.867    -7172098.032 6  -5511325.928 9
 94  3  2  2 52 30.0000000  0  7  2  4  9  7 24 12  5
  23805007.617     4579281.652 5   3700941.528 9
  20868917.742   -14057688.109 7 -10850589.343 9
  21042069.758   -13218185.744 6 -10158849.907 9
  23049835.617     1115163.866 6   1109253.087 9
  21648514.305   -11753731.767 6  -9049130.922 9
  21169642.484   -11930517.960 6  -9298418.106 9
  22710979.531    -7237519.522 6  -5562303.664 9
 94  3  2  2 53  0.0000000  0  7  2  4  9  7 24 12  5
  23822362.172     4670481.256 5   3772006.120 9
  20868516.188   -14059799.453 7 -10852234.527 9
  21043420.156   -13211087.768 6 -10153319.016 9
  23066573.367     1203120.531 6   1177790.766 9
  21636470.875   -11817020.623 6  -9098446.874 9
  21163538.750   -11962593.206 6  -9323411.781 9
  22698541.281    -7302880.223 6  -5613234.029 9
 94  3  2  2 53 30.0000000  0  7  2  4  9  7 24 12  5
  23839756.758     4761886.713 5   3843231.088 9
  20868220.016   -14061358.800 7 -10853449.582 9
  21044881.453   -13203411.738 6 -10147337.697 9
  23083323.141     1291140.674 6   1246377.913 9
  21624499.555   -11879929.994 6  -9147467.129 9
  21157522.742   -11994208.182 6  -9348046.803 9
  22686110.461    -7368204.783 6  -5664136.219 9
 94  3  2  2 54  0.0000000  0  7  2  4  9  7 24 12  5
  23857192.117     4853509.797 5   3914625.689 9
  20868031.492   -14062345.713 7 -10854218.574 9
  21046454.656   -13195142.213 6 -10140893.915 9
  23100084.273     1379226.402 6   1315016.150 9
  21612605.250   -11942438.725 7  -9196175.195 9
  21151596.320   -12025352.497 6  -9372315.084 9
  22673687.422    -7433487.807 6  -5715006.039 9
